[[{"header":{"parameterUnit":"m.s-1","parameterCategory":1,"la1":30.6,"la2":28.766,"lo1":-90.7593,"lo2":-88.6598,"dy":0.0162,"dx":0.0183,"nx":116,"ny":114,"refTime":"2023-10-23T18:00:00:Z","depth":0,"parameterNumber":2,"parameterNumberName":"U-component_of_WINDS"},"data":[0.0,0.0,0.0,0.0,0.0,0.0,0.0,0.0,0.0,0.0,0.0,0.0,0.0,0.0,0.0,0.0,0.0,0.0,0.0,0.0,0.0,0.0,0.0,0.0,0.0,0.0,0.0,0.0,0.0,0.0,0.0,0.0,0.0,0.0,0.0,0.0,0.0,0.0,0.0,0.0,0.0,0.0,0.0,0.0,0.0,0.0,0.0,0.0,0.0,0.0,0.0,0.0,0.0,0.0,0.0,0.0,0.0,0.0,0.0,0.0,0.0,0.0,0.0,0.0,0.0,0.0,0.0,0.0,0.0,0.0,0.0,0.0,0.0,0.0,0.0,0.0,0.0,0.0,0.0,0.0,0.0,0.0,0.0,0.0,0.0,0.0,0.0,0.0,0.0,0.0,0.0,0.0,0.0,0.0,0.0,0.0,0.0,0.0,0.0,0.0,0.0,0.0,0.0,0.0,0.0,0.0,0.0,0.0,0.0,0.0,0.0,0.0,0.0,0.0,0.0,0.0,0.0,0.0,0.0,0.0,0.0,0.0,0.0,0.0,0.0,0.0,0.0,0.0,0.0,0.0,0.0,0.0,0.0,0.0,0.0,0.0,0.0,0.0,0.0,0.0,0.0,0.0,0.0,0.0,0.0,0.0,0.0,0.0,0.0,0.0,0.0,0.0,0.0,0.0,0.0,0.0,0.0,0.0,0.0,0.0,0.0,0.0,0.0,0.0,0.0,0.0,0.0,0.0,0.0,0.0,0.0,0.0,0.0,0.0,0.0,0.0,0.0,0.0,0.0,0.0,0.0,0.0,0.0,0.0,0.0,0.0,0.0,0.0,0.0,0.0,0.0,0.0,0.0,0.0,0.0,0.0,0.0,0.0,0.0,0.0,0.0,0.0,0.0,0.0,0.0,0.0,0.0,0.0,0.0,0.0,0.0,0.0,0.0,0.0,0.0,0.0,0.0,0.0,0.0,0.0,0.0,0.0,0.0,0.0,0.0,0.0,0.0,0.0,0.0,0.0,0.0,0.0,0.0,0.0,0.0,0.0,0.0,0.0,0.0,0.0,0.0,0.0,0.0,0.0,0.0,0.0,0.0,0.0,0.0,0.0,0.0,0.0,0.0,0.0,0.0,0.0,0.0,0.0,0.0,0.0,0.0,0.0,0.0,0.0,0.0,0.0,0.0,0.0,0.0,0.0,0.0,0.0,0.0,0.0,0.0,0.0,0.0,0.0,0.0,0.0,0.0,0.0,0.0,0.0,0.0,0.0,0.0,0.0,0.0,0.0,0.0,0.0,0.0,0.0,0.0,0.0,0.0,0.0,0.0,0.0,0.0,0.0,0.0,0.0,0.0,0.0,0.0,0.0,0.0,0.0,0.0,0.0,0.0,0.0,0.0,0.0,0.0,0.0,0.0,0.0,0.0,0.0,0.0,0.0,0.0,0.0,0.0,0.0,0.0,0.0,0.0,0.0,0.0,0.0,0.0,0.0,0.0,0.0,0.0,0.0,0.0,0.0,0.0,0.0,0.0,0.0,0.0,0.0,0.0,0.0,0.0,0.0,0.0,0.0,0.0,0.0,0.0,0.0,0.0,0.0,0.0,0.0,0.0,0.0,0.0,0.0,0.0,0.0,0.0,0.0,0.0,0.0,0.0,0.0,0.0,0.0,0.0,0.0,0.0,0.0,0.0,0.0,0.0,0.0,0.0,0.0,0.0,0.0,0.0,0.0,0.0,0.0,0.0,0.0,0.0,0.0,0.0,0.0,0.0,0.0,0.0,0.0,0.0,0.0,0.0,0.0,0.0,0.0,0.0,0.0,0.0,0.0,0.0,0.0,0.0,0.0,0.0,0.0,0.0,0.0,0.0,0.0,0.0,0.0,0.0,0.0,0.0,0.0,0.0,0.0,0.0,0.0,0.0,0.0,0.0,0.0,0.0,0.0,0.0,0.0,0.0,0.0,0.0,0.0,0.0,0.0,0.0,0.0,0.0,0.0,0.0,0.0,0.0,0.0,0.0,0.0,0.0,0.0,0.0,0.0,0.0,0.0,0.0,0.0,0.0,0.0,0.0,0.0,0.0,0.0,0.0,0.0,0.0,0.0,0.0,0.0,0.0,0.0,0.0,0.0,0.0,0.0,0.0,0.0,0.0,0.0,0.0,0.0,0.0,0.0,0.0,0.0,0.0,0.0,0.0,0.0,0.0,0.0,0.0,0.0,0.0,0.0,0.0,0.0,0.0,0.0,0.0,0.0,0.0,0.0,0.0,0.0,0.0,0.0,0.0,0.0,0.0,0.0,0.0,0.0,0.0,0.0,0.0,0.0,0.0,0.0,0.0,0.0,0.0,0.0,0.0,0.0,0.0,0.0,0.0,0.0,0.0,0.0,0.0,0.0,0.0,0.0,0.0,0.0,0.0,0.0,0.0,0.0,0.0,0.0,0.0,0.0,0.0,0.0,0.0,0.0,0.0,0.0,0.0,0.0,0.0,0.0,0.0,0.0,0.0,0.0,0.0,0.0,0.0,0.0,0.0,0.0,0.0,0.0,0.0,0.0,0.0,0.0,0.0,0.0,0.0,0.0,0.0,0.0,0.0,0.0,0.0,0.0,0.0,0.0,0.0,0.0,0.0,0.0,0.0,0.0,0.0,0.0,0.0,0.0,0.0,0.0,0.0,0.0,0.0,0.0,0.0,0.0,0.0,0.0,0.0,0.0,0.0,0.0,0.0,0.0,0.0,0.0,0.0,0.0,0.0,0.0,0.0,0.0,0.0,0.0,0.0,0.0,0.0,0.0,0.0,0.0,0.0,0.0,0.0,0.0,0.0,0.0,0.0,0.0,0.0,0.0,0.0,0.0,0.0,0.0,0.0,0.0,0.0,0.0,0.0,0.0,0.0,0.0,0.0,0.0,0.0,0.0,0.0,0.0,0.0,0.0,0.0,0.0,0.0,0.0,0.0,0.0,0.0,0.0,0.0,0.0,0.0,0.0,0.0,0.0,0.0,0.0,0.0,0.0,0.0,0.0,0.0,0.0,0.0,0.0,0.0,0.0,0.0,0.0,0.0,0.0,0.0,0.0,0.0,0.0,0.0,0.0,0.0,0.0,0.0,0.0,0.0,0.0,0.0,0.0,0.0,0.0,0.0,0.0,0.0,0.0,0.0,0.0,0.0,0.0,0.0,0.0,0.0,0.0,0.0,0.0,0.0,0.0,0.0,0.0,0.0,0.0,0.0,0.0,0.0,0.0,0.0,0.0,0.0,0.0,0.0,0.0,0.0,0.0,0.0,0.0,0.0,0.0,0.0,0.0,0.0,0.0,0.0,0.0,0.0,0.0,0.0,0.0,0.0,0.0,0.0,0.0,0.0,0.0,0.0,0.0,0.0,0.0,0.0,0.0,0.0,0.0,0.0,0.0,0.0,0.0,0.0,0.0,0.0,0.0,0.0,0.0,0.0,0.0,0.0,0.0,0.0,0.0,0.0,0.0,0.0,0.0,0.0,0.0,0.0,0.0,0.0,0.0,0.0,0.0,0.0,0.0,0.0,0.0,0.0,0.0,0.0,0.0,0.0,0.0,0.0,0.0,0.0,0.0,0.0,0.0,0.0,0.0,0.0,0.0,0.0,0.0,0.0,0.0,0.0,0.0,0.0,0.0,0.0,0.0,0.0,0.0,0.0,0.0,0.0,0.0,0.0,0.0,0.0,0.0,0.0,0.0,0.0,0.0,0.0,0.0,0.0,0.0,0.0,0.0,0.0,0.0,0.0,0.0,0.0,0.0,0.0,0.0,0.0,0.0,0.0,0.0,0.0,0.0,0.0,0.0,0.0,0.0,0.0,0.0,0.0,0.0,0.0,0.0,0.0,0.0,0.0,0.0,0.0,0.0,0.0,0.0,0.0,0.0,0.0,0.0,0.0,0.0,0.0,0.0,0.0,0.0,0.0,0.0,0.0,0.0,0.0,0.0,0.0,0.0,0.0,0.0,0.0,0.0,0.0,0.0,0.0,0.0,0.0,0.0,0.0,0.0,0.0,0.0,0.0,0.0,0.0,0.0,0.0,0.0,0.0,0.0,0.0,0.0,0.0,0.0,0.0,0.0,0.0,0.0,0.0,0.0,0.0,0.0,0.0,0.0,0.0,0.0,0.0,0.0,0.0,0.0,0.0,0.0,0.0,0.0,0.0,0.0,0.0,0.0,0.0,0.0,0.0,0.0,0.0,0.0,0.0,0.0,0.0,0.0,0.0,0.0,0.0,0.0,0.0,0.0,0.0,0.0,0.0,0.0,0.0,0.0,0.0,0.0,0.0,0.0,0.0,0.0,0.0,0.0,0.0,0.0,0.0,0.0,0.0,0.0,0.0,0.0,0.0,0.0,0.0,0.0,0.0,0.0,0.0,0.0,0.0,0.0,0.0,0.0,0.0,0.0,0.0,0.0,0.0,0.0,0.0,0.0,0.0,0.0,0.0,0.0,0.0,0.0,0.0,0.0,0.0,0.0,0.0,0.0,0.0,0.0,0.0,0.0,0.0,0.0,0.0,0.0,0.0,0.0,0.0,0.0,0.0,0.0,0.0,0.0,0.0,0.0,0.0,0.0,0.0,0.0,0.0,0.0,0.0,0.0,0.0,0.0,0.0,0.0,0.0,0.0,0.0,0.0,0.0,0.0,0.0,0.0,0.0,0.0,0.0,0.0,0.0,0.0,0.0,0.0,0.0,0.0,0.0,0.0,0.0,0.0,0.0,0.0,0.0,0.0,0.0,0.0,0.0,0.0,0.0,0.0,0.0,0.0,0.0,0.0,0.0,0.0,0.0,0.0,0.0,0.0,0.0,0.0,0.0,0.0,0.0,0.0,0.0,0.0,0.0,0.0,0.0,0.0,0.0,0.0,0.0,0.0,0.0,0.0,0.0,0.0,0.0,0.0,0.0,0.0,0.0,0.0,0.0,0.0,0.0,0.0,0.0,0.0,0.0,0.0,0.0,0.0,0.0,0.0,0.0,0.0,0.0,0.0,0.0,0.0,0.0,0.0,0.0,0.0,0.0,0.0,0.0,0.0,0.0,0.0,0.0,0.0,0.0,0.0,0.0,0.0,0.0,0.0,0.0,0.0,0.0,0.0,0.0,0.0,0.0,0.0,0.0,0.0,0.0,0.0,0.0,0.0,0.0,0.0,0.0,0.0,0.0,0.0,0.0,0.0,0.0,0.0,0.0,0.0,0.0,0.0,0.0,0.0,0.0,0.0,0.0,0.0,0.0,0.0,0.0,0.0,0.0,0.0,0.0,0.0,0.0,0.0,0.0,0.0,0.0,0.0,0.0,0.0,0.0,0.0,0.0,0.0,0.0,0.0,0.0,0.0,0.0,0.0,0.0,0.0,0.0,0.0,0.0,0.0,0.0,0.0,0.0,0.0,0.0,0.0,0.0,0.0,0.0,0.0,0.0,0.0,0.0,0.0,0.0,0.0,0.0,0.0,0.0,0.0,0.0,0.0,0.0,0.0,0.0,0.0,0.0,0.0,0.0,0.0,0.0,0.0,0.0,0.0,0.0,0.0,0.0,0.0,0.0,0.0,0.0,0.0,0.0,0.0,0.0,0.0,0.0,0.0,0.0,0.0,0.0,0.0,0.0,0.0,0.0,0.0,0.0,0.0,0.0,0.0,0.0,0.0,0.0,0.0,0.0,0.0,0.0,0.0,0.0,0.0,0.0,0.0,0.0,0.0,0.0,0.0,0.0,0.0,0.0,0.0,0.0,0.0,0.0,0.0,0.0,0.0,0.0,0.0,0.0,0.0,0.0,0.0,0.0,0.0,0.0,0.0,0.0,0.0,0.0,0.0,0.0,0.0,0.0,0.0,0.0,0.0,0.0,0.0,0.0,0.0,0.0,0.0,0.0,0.0,0.0,0.0,0.0,0.0,0.0,0.0,0.0,0.0,0.0,0.0,0.0,0.0,0.0,0.0,0.0,0.0,0.0,0.0,0.0,0.0,0.0,0.0,0.0,0.0,0.0,0.0,0.0,0.0,0.0,0.0,0.0,0.0,0.0,0.0,0.0,0.0,0.0,0.0,0.0,0.0,0.0,0.0,0.0,0.0,0.0,0.0,0.0,0.0,0.0,0.0,-0.93,-0.8986,0.0,0.0,0.0,0.0,0.0,0.0,0.0,0.0,0.0,0.0,0.0,0.0,0.0,0.0,0.0,0.0,0.0,0.0,0.0,0.0,0.0,0.0,0.0,0.0,0.0,0.0,0.0,0.0,0.0,0.0,0.0,0.0,0.0,0.0,0.0,0.0,0.0,-1.1752,-1.1172,-1.0801,-1.0642,-1.0215,-0.9869,-0.9598,0.0,0.0,0.0,0.0,0.0,0.0,0.0,0.0,0.0,0.0,0.0,0.0,0.0,0.0,0.0,0.0,0.0,0.0,0.0,0.0,0.0,0.0,0.0,0.0,0.0,0.0,0.0,0.0,0.0,0.0,0.0,0.0,0.0,0.0,0.0,0.0,0.0,0.0,0.0,0.0,0.0,0.0,0.0,0.0,0.0,0.0,0.0,0.0,0.0,0.0,0.0,0.0,0.0,0.0,0.0,0.0,0.0,0.0,0.0,0.0,0.0,0.0,0.0,0.0,0.0,0.0,0.0,0.0,0.0,0.0,-1.0282,-0.9738,0.0,0.0,0.0,0.0,0.0,0.0,0.0,0.0,0.0,0.0,0.0,0.0,0.0,0.0,0.0,0.0,0.0,0.0,0.0,0.0,0.0,0.0,0.0,-1.6955,-1.6257,-1.5162,-1.4681,-1.434,0.0,0.0,0.0,0.0,0.0,0.0,-1.2204,-1.1952,-1.1906,-1.2046,-1.1541,-1.1094,-1.0781,-1.0973,-1.0773,-1.0235,-1.0322,0.0,0.0,0.0,0.0,0.0,0.0,0.0,0.0,0.0,0.0,0.0,0.0,0.0,0.0,0.0,0.0,0.0,0.0,0.0,0.0,0.0,0.0,0.0,0.0,0.0,0.0,0.0,0.0,0.0,0.0,0.0,0.0,0.0,0.0,0.0,0.0,0.0,0.0,0.0,0.0,0.0,0.0,0.0,0.0,0.0,0.0,0.0,0.0,0.0,0.0,0.0,0.0,0.0,0.0,0.0,0.0,0.0,0.0,0.0,0.0,0.0,0.0,0.0,-1.2507,-1.267,-1.3012,-1.2832,-1.2848,-1.2946,-1.1671,-1.0883,-1.0487,-1.0103,0.0,0.0,0.0,0.0,0.0,0.0,0.0,0.0,0.0,0.0,0.0,0.0,0.0,0.0,0.0,0.0,0.0,0.0,0.0,-1.7338,-1.6936,-1.6003,-1.5318,-1.5037,-1.4286,-1.3766,-1.3589,0.0,0.0,0.0,0.0,-1.2204,-1.2204,-1.2037,-1.2085,-1.2272,-1.2334,-1.2195,-1.1803,-1.2375,-1.237,-1.1944,-1.1041,-1.0555,-1.0371,0.0,0.0,0.0,0.0,0.0,0.0,0.0,0.0,0.0,0.0,0.0,0.0,0.0,0.0,0.0,0.0,0.0,0.0,0.0,0.0,0.0,0.0,0.0,0.0,0.0,0.0,0.0,0.0,0.0,0.0,0.0,0.0,0.0,0.0,0.0,0.0,0.0,0.0,0.0,0.0,0.0,-1.0154,-1.0312,0.0,0.0,0.0,0.0,0.0,0.0,0.0,0.0,0.0,0.0,0.0,0.0,0.0,-1.2264,-1.2588,-1.3083,-1.352,-1.3937,-1.4221,-1.4456,-1.4689,-1.4664,-1.4664,-1.4656,-1.4123,0.0,-1.1722,-1.1403,0.0,0.0,0.0,0.0,0.0,0.0,0.0,0.0,0.0,0.0,0.0,0.0,0.0,0.0,0.0,0.0,0.0,0.0,0.0,0.0,0.0,-1.5521,-1.4958,-1.4253,-1.3969,-1.3649,-1.3293,-1.305,0.0,0.0,-1.2439,-1.2254,-1.2254,-1.2302,-1.2516,-1.2934,-1.3377,-1.3524,-1.3377,-1.3821,-1.3941,-1.3725,-1.3159,-1.2395,-1.1564,-1.1372,0.0,0.0,0.0,0.0,0.0,0.0,0.0,0.0,0.0,0.0,0.0,0.0,0.0,0.0,0.0,0.0,0.0,0.0,0.0,0.0,0.0,0.0,0.0,0.0,0.0,0.0,0.0,0.0,0.0,0.0,0.0,0.0,0.0,0.0,0.0,0.0,0.0,0.0,0.0,-1.0349,-1.0707,-1.0831,-1.0794,-1.0737,0.0,0.0,0.0,0.0,0.0,0.0,0.0,0.0,0.0,-1.2816,-1.3368,-1.3795,-1.4144,-1.4619,-1.5017,-1.5374,-1.5528,-1.5699,-1.591,-1.591,-1.591,-1.5902,-1.5593,-1.4968,-1.4034,-1.2775,-1.1996,-1.1557,0.0,0.0,0.0,0.0,-1.1102,-1.1245,0.0,0.0,0.0,0.0,0.0,0.0,0.0,0.0,0.0,0.0,0.0,0.0,-1.5377,-1.5176,-1.4851,-1.4137,-1.4116,-1.3932,-1.3549,-1.318,-1.2904,-1.2743,-1.2491,-1.2377,-1.2377,-1.28,-1.3289,-1.3879,-1.4545,-1.489,-1.4944,-1.5359,-1.5486,-1.5432,-1.5294,-1.4343,-1.2775,-1.2484,-1.1955,-1.1333,0.0,0.0,0.0,0.0,0.0,0.0,0.0,0.0,0.0,0.0,0.0,0.0,0.0,0.0,0.0,0.0,0.0,0.0,0.0,0.0,0.0,0.0,0.0,0.0,0.0,0.0,0.0,0.0,0.0,0.0,0.0,0.0,0.0,0.0,0.0,0.0,0.0,-1.0903,-1.1338,-1.1576,-1.1524,-1.15,0.0,0.0,0.0,0.0,0.0,0.0,-1.258,-1.3172,-1.3731,-1.4273,-1.4889,-1.5431,-1.5748,-1.6097,-1.6405,-1.6714,-1.6763,-1.6852,-1.699,-1.699,-1.699,-1.7018,-1.6747,-1.647,-1.604,-1.4156,-1.3149,-1.2735,-1.219,-1.1947,-1.1945,-1.2078,-1.2215,-1.2465,0.0,0.0,0.0,0.0,0.0,0.0,0.0,0.0,0.0,0.0,0.0,-1.553,-1.5389,-1.4991,-1.4906,-1.5362,-1.4959,-1.4635,-1.4627,-1.3949,-1.3407,-1.3084,-1.2767,-1.258,-1.258,-1.3598,-1.4448,-1.5093,-1.5845,-1.6257,-1.6419,-1.7005,-1.7144,-1.6882,-1.6936,-1.5784,-1.3793,-1.3274,-1.2645,-1.2011,-1.1625,0.0,0.0,0.0,0.0,0.0,0.0,0.0,0.0,0.0,0.0,0.0,0.0,0.0,0.0,0.0,0.0,0.0,0.0,0.0,0.0,0.0,0.0,0.0,0.0,0.0,0.0,0.0,0.0,0.0,0.0,0.0,0.0,0.0,0.0,0.0,0.0,0.0,0.0,-1.2661,-1.2718,0.0,0.0,0.0,0.0,-1.2694,-1.3196,-1.3714,-1.4249,-1.4954,-1.5626,-1.6154,-1.6501,-1.6874,-1.7274,-1.7453,-1.7603,-1.7843,-1.8005,-1.8133,-1.8141,-1.8141,-1.8141,-1.8125,-1.7676,-1.7469,-1.7177,-1.5576,-1.4591,-1.4062,-1.3524,-1.3199,-1.3102,-1.368,-1.3883,-1.4079,0.0,0.0,0.0,0.0,0.0,0.0,0.0,0.0,-1.7622,-1.682,-1.6076,-1.5497,-1.5102,-1.5351,-1.5632,-1.5826,-1.5894,-1.5715,-1.526,-1.4667,-1.4115,-1.3636,-1.3305,-1.3329,-1.3758,-1.4603,-1.5447,-1.6234,-1.6947,-1.7469,-1.7788,-1.8113,-1.8188,-1.8095,-1.804,-1.7359,-1.619,-1.5106,-1.418,-1.3424,-1.293,-1.2379,0.0,0.0,0.0,0.0,0.0,0.0,0.0,0.0,0.0,0.0,0.0,0.0,0.0,0.0,0.0,0.0,0.0,0.0,0.0,0.0,0.0,0.0,0.0,0.0,0.0,0.0,0.0,0.0,0.0,0.0,0.0,0.0,0.0,0.0,0.0,0.0,0.0,-1.3917,-1.3901,0.0,-1.4314,-1.3974,-1.3937,-1.4314,-1.4773,-1.5195,-1.5618,-1.6324,-1.6909,-1.7331,-1.7765,-1.8073,-1.8249,-1.842,-1.8485,-1.8436,-1.8501,-1.8525,-1.8525,-1.8525,-1.8525,-1.8517,-1.8273,-1.8127,-1.8052,-1.743,-1.6469,-1.5342,-1.4919,-1.4823,-1.4918,-1.5134,-1.5606,-1.6266,0.0,0.0,0.0,0.0,0.0,0.0,0.0,-1.7847,-1.709,-1.6497,-1.5836,-1.54,-1.5357,-1.5886,-1.6279,-1.6462,-1.6714,-1.6552,-1.5829,-1.5181,-1.4619,-1.4018,-1.3823,-1.4034,-1.4654,-1.5497,-1.6307,-1.7076,-1.7789,-1.8338,-1.8679,-1.8818,-1.8907,-1.8899,-1.876,-1.8403,-1.7886,-1.6868,-1.5723,-1.4578,-1.3969,-1.3303,-1.2621,0.0,0.0,0.0,0.0,0.0,0.0,0.0,0.0,0.0,0.0,0.0,0.0,0.0,0.0,0.0,0.0,0.0,0.0,0.0,0.0,0.0,0.0,0.0,0.0,0.0,0.0,0.0,0.0,0.0,0.0,0.0,0.0,0.0,0.0,-1.3401,-1.4359,-1.5317,-1.5335,-1.548,-1.5958,-1.5634,-1.5626,-1.6064,-1.6414,-1.6738,-1.7104,-1.7689,-1.8152,-1.8444,-1.8866,-1.9086,-1.9086,-1.9331,-1.9355,-1.924,-1.9368,-1.9287,-1.9141,-1.9335,-1.9287,-1.9133,-1.9192,-1.93,-1.9448,-1.9349,-1.8685,-1.7648,-1.6792,-1.6617,-1.6888,-1.7199,-1.7833,-1.8719,0.0,0.0,0.0,0.0,0.0,0.0,-1.7818,-1.682,-1.6169,-1.6423,-1.5509,-1.5186,-1.6177,-1.6485,-1.6828,-1.7356,-1.7404,-1.7088,-1.6349,-1.5594,-1.4927,-1.4229,-1.4367,-1.4687,-1.5237,-1.6299,-1.7109,-1.7635,-1.8356,-1.8842,-1.9013,-1.924,-1.933,-1.9314,-1.9086,-1.8915,-1.868,-1.8363,-1.7201,-1.5545,-1.4751,-1.4066,-1.3402,0.0,0.0,0.0,0.0,0.0,0.0,0.0,0.0,0.0,0.0,0.0,0.0,0.0,0.0,0.0,0.0,0.0,0.0,0.0,0.0,0.0,0.0,0.0,0.0,0.0,0.0,0.0,0.0,0.0,0.0,0.0,0.0,0.0,-1.3658,-1.4581,-1.5659,-1.6744,-1.702,-1.7307,-1.7627,-1.7551,-1.7591,-1.794,-1.8119,-1.8371,-1.8728,-1.9086,-1.9403,-1.9524,-1.9703,-1.98,-1.98,-2.0133,-2.0342,-2.0333,-2.0634,-2.0539,-2.0046,-2.0579,-2.053,-2.0078,-2.0495,-2.0932,-2.1341,-2.1245,-2.1254,-2.111,-1.9165,-1.8574,-1.8902,-1.9855,-2.0618,-2.1443,0.0,0.0,0.0,0.0,0.0,0.0,-1.6591,-1.5906,-1.5386,-1.5413,-1.5085,-1.5222,-1.6211,-1.6914,-1.7416,-1.7746,-1.777,-1.7356,-1.6365,-1.5594,-1.5002,-1.4586,-1.4984,-1.5553,-1.6347,-1.7331,-1.807,-1.8615,-1.9207,-1.9524,-1.9565,-1.9622,-1.9646,-1.9638,-1.9589,-1.9467,-1.9281,-1.9053,-1.8499,-1.7579,-1.6292,-1.5358,-1.4651,0.0,0.0,0.0,0.0,0.0,0.0,0.0,0.0,0.0,0.0,0.0,0.0,0.0,0.0,0.0,0.0,0.0,0.0,0.0,0.0,0.0,0.0,0.0,0.0,0.0,0.0,0.0,0.0,0.0,0.0,0.0,-1.4286,-1.5098,-1.48,-1.5796,-1.6998,-1.8032,-1.8363,-1.8663,-1.9151,-1.8923,-1.8882,-1.9061,-1.9118,-1.9191,-1.9289,-1.9516,-1.9727,-1.9906,-1.9963,-2.0038,-2.0038,-2.0501,-2.0663,-2.0519,-2.0883,-2.0937,-2.0788,-2.1183,-2.1317,-2.121,-2.2086,-2.2546,-2.277,-2.3693,-2.3961,-2.3536,-2.1719,-2.1035,-2.117,-2.1959,-2.2972,-2.4073,0.0,0.0,0.0,0.0,0.0,0.0,-1.5154,-1.4687,-1.4426,-1.4712,-1.4729,-1.5121,-1.6195,-1.7044,-1.7607,-1.7741,-1.7757,-1.7327,-1.6365,-1.5594,-1.5205,-1.5229,-1.5853,-1.6568,-1.7388,-1.8282,-1.8923,-1.9321,-1.9784,-2.0011,-2.0011,-2.0011,-2.0011,-2.0011,-2.0011,-1.9955,-1.9841,-1.967,-1.942,-1.8972,-1.794,-1.6885,-1.5804,-1.5204,-1.4643,-1.4164,-1.3872,-1.3449,-1.3011,-1.2986,0.0,0.0,0.0,0.0,0.0,0.0,0.0,0.0,0.0,0.0,0.0,0.0,0.0,0.0,0.0,0.0,0.0,0.0,0.0,0.0,0.0,0.0,0.0,0.0,-1.5626,-1.6617,-1.6779,-1.7437,-1.8265,-1.9272,-1.9549,-1.9808,-2.0198,-2.0095,-2.0022,-2.0068,-2.0076,-2.0076,-2.0076,-2.0174,-2.0288,-2.0445,-2.0445,-2.0517,-2.0652,-2.1087,-2.1362,-2.1427,-2.1738,-2.179,-2.159,-2.2211,-2.2652,-2.2939,-2.4123,-2.5002,-2.5712,-2.6571,-2.6882,-2.6617,0.0,0.0,0.0,0.0,-2.5388,-2.6301,0.0,0.0,0.0,0.0,0.0,0.0,-1.3684,-1.3355,-1.3337,-1.4132,-1.4285,-1.4784,-1.6056,-1.6812,-1.7331,-1.7465,-1.7457,-1.7084,-1.6267,-1.5634,-1.5561,-1.6104,-1.6868,-1.7599,-1.8314,-1.9167,-1.9703,-1.9906,-2.0247,-2.0418,-2.0442,-2.0442,-2.0442,-2.0442,-2.0442,-2.0426,-2.0401,-2.0247,-2.0052,-1.9825,-1.9508,-1.8436,-1.693,-1.6412,-1.5804,-1.5155,-1.496,-1.4456,-1.386,-1.3993,0.0,0.0,0.0,0.0,0.0,0.0,0.0,0.0,0.0,0.0,0.0,0.0,0.0,0.0,0.0,0.0,0.0,0.0,0.0,0.0,0.0,0.0,0.0,0.0,-1.6922,-1.8192,-1.9069,-1.9248,-1.9565,-2.032,-2.0596,-2.0783,-2.1015,-2.1015,-2.0991,-2.0967,-2.095,-2.0926,-2.091,-2.091,0.0,0.0,0.0,-2.1148,-2.1414,-2.1847,-2.2183,-2.2588,-2.2959,-2.2897,-2.2443,-2.3574,-2.4458,-2.5138,-2.6414,-2.7884,-2.9323,-2.9619,-2.9855,-2.9866,-2.7397,-2.6393,-2.6446,-2.7178,-2.7698,-2.7954,0.0,0.0,0.0,0.0,0.0,0.0,-1.2721,-1.2469,-1.2474,-1.3189,-1.3552,-1.4188,-1.5298,-1.6081,-1.6584,-1.6771,-1.6649,-1.6308,-1.5707,-1.5934,-1.6341,-1.6877,-1.7729,-1.8573,-1.924,-1.9849,-2.032,-2.0698,-2.0864,-2.1043,-2.1181,-2.1181,-2.1181,-2.1181,-2.1181,-2.11,-2.0916,-2.0937,-2.0645,-2.0214,-2.0141,-1.9321,-1.8103,-1.7705,-1.7068,-1.6404,-1.6113,-1.5723,-1.5301,-1.4933,-1.4594,-1.431,-1.3798,-1.3197,0.0,0.0,0.0,0.0,0.0,0.0,0.0,0.0,0.0,0.0,0.0,0.0,0.0,0.0,0.0,0.0,0.0,0.0,0.0,-1.7274,-1.8533,-1.9638,-2.0437,-2.0918,-2.11,-2.0986,-2.1254,-2.153,-2.1701,-2.1595,-2.1504,-2.1303,-2.1157,-2.101,-2.0918,-2.091,-2.091,-2.091,-2.1329,-2.1579,-2.1652,-2.2469,-2.2939,-2.2998,-2.366,0.0,-2.3886,-2.5201,-2.6357,-2.7351,-2.8889,-3.0192,-3.1328,-3.1925,-3.2165,-3.1934,-2.9749,-2.9002,-2.9128,-2.9053,-2.8818,-2.8462,0.0,0.0,0.0,0.0,0.0,0.0,-1.1725,-1.1737,-1.1927,-1.2442,-1.2988,-1.3677,-1.4444,-1.5204,-1.5707,-1.5894,-1.591,-1.5869,-1.5748,-1.6365,-1.7071,-1.7884,-1.8688,-1.9501,-2.0166,-2.0621,-2.0986,-2.1309,-2.1449,-2.1571,-2.166,-2.166,-2.166,-2.166,-2.166,-2.162,-2.1506,-2.1343,-2.11,-2.0832,-2.0564,-2.0028,-1.9321,-1.8688,-1.8119,-1.7591,-1.7136,-1.669,-1.6259,-1.5894,-1.5576,-1.5179,-1.4822,-1.4176,-1.3496,0.0,0.0,0.0,0.0,0.0,0.0,0.0,0.0,0.0,0.0,0.0,0.0,0.0,0.0,-1.5027,-1.578,0.0,-1.7624,-1.8801,-1.9743,-2.0592,-2.1227,-2.1699,-2.1831,-2.1555,-2.1684,-2.1831,-2.188,-2.1847,-2.1725,-2.153,-2.1449,-2.1319,-2.1186,-2.1441,-2.1603,-2.1603,-2.2144,-2.2479,-2.2706,-2.3143,-2.3582,-2.3956,-2.4319,-2.4731,-2.5185,-2.6424,-2.7873,-2.9517,-3.0925,-3.2304,-3.3586,-3.3917,-3.4012,-3.3811,-3.2431,-3.1445,-3.0794,-3.0284,-2.9802,-2.9295,0.0,0.0,0.0,0.0,0.0,0.0,-1.0992,-1.1245,-1.1541,-1.19,-1.2507,-1.3092,-1.3636,-1.4237,-1.4692,-1.4873,-1.5156,-1.5536,-1.5926,-1.6752,-1.7737,-1.8785,-1.9549,-2.0263,-2.0999,-2.1278,-2.1555,-2.1822,-2.1912,-2.2001,-2.2042,-2.2042,-2.2042,-2.2042,-2.2042,-2.1961,-2.1953,-2.1636,-2.1449,-2.1343,-2.088,-2.0572,-2.0288,-1.9492,-1.898,-1.8524,-1.79,-1.7311,-1.6825,-1.6609,-1.6235,-1.5845,-1.5675,-1.5108,-1.4419,-1.3774,-1.3182,0.0,0.0,0.0,0.0,0.0,0.0,0.0,0.0,-1.4359,-1.496,-1.5397,-1.6008,-1.6779,-1.764,-1.8233,-1.8972,-2.0133,-2.0796,-2.1284,-2.1701,-2.2042,-2.2172,-2.2001,-2.1961,-2.2042,-2.2042,-2.2042,-2.1953,-2.1725,-2.1725,-2.1675,-2.1557,-2.205,-2.2371,-2.2434,-2.3018,-2.3439,-2.3773,-2.3952,-2.4303,-2.4921,-2.5196,-2.5735,-2.6541,-2.7813,-2.9514,-3.1529,-3.2997,-3.4268,-3.535,-3.5312,-3.5225,-3.5064,-3.4505,-3.3447,-3.2073,-3.1315,-3.0759,-3.0197,0.0,0.0,0.0,0.0,0.0,0.0,0.0,0.0,-1.1245,-1.1766,-1.2004,-1.2321,-1.2864,-1.3165,-1.3441,-1.3755,-1.4387,-1.5082,-1.5756,-1.7071,-1.8241,-1.9208,-2.0036,-2.0767,-2.1319,-2.153,-2.1846,-2.2131,-2.2147,-2.2253,-2.2407,-2.2407,-2.2407,-2.2407,-2.2407,-2.2318,-2.2147,-2.1953,-2.1676,-2.136,-2.1157,-2.0864,-2.0523,-2.0101,-1.9574,-1.8834,-1.8135,-1.7543,-1.7006,-1.6503,-1.6292,-1.6211,-1.5999,-1.5561,-1.5002,-1.4435,-1.3709,-1.2946,-1.2588,-1.2727,-1.3068,-1.3595,-1.4115,-1.4676,0.0,-1.5975,-1.6487,-1.7006,-1.7734,-1.8451,-1.9142,-1.9719,-2.0336,-2.1108,-2.1555,-2.1896,-2.2107,-2.2359,-2.2359,-2.2188,-2.2302,-2.2407,-2.2407,-2.2407,-2.2277,-2.1936,-2.1856,-2.1981,-2.2168,-2.2261,-2.2526,-2.3018,-2.3574,-2.3937,-2.3974,-2.4782,-2.5259,-2.537,-2.6701,-2.753,-2.7965,-3.0066,-3.1769,-3.325,-3.5316,-3.5972,-3.5642,-3.5665,-3.5313,-3.4753,-3.468,-3.4163,-3.3414,-3.2598,-3.1653,-3.0809,0.0,0.0,0.0,0.0,0.0,0.0,0.0,0.0,-1.1082,-1.131,-1.1549,-1.1778,-1.2036,-1.2402,-1.2783,-1.3107,-1.3928,-1.4749,-1.5569,-1.7063,-1.8363,-1.9362,-2.0263,-2.1051,-2.1684,-2.179,-2.2001,-2.2359,-2.2359,-2.2342,-2.2359,-2.2359,-2.2253,-2.2172,-2.2253,-2.2253,-2.2172,-2.2001,-2.1791,-2.166,-2.1165,-2.0815,-2.0523,-1.99,-1.9086,-1.8306,-1.79,-1.7274,0.0,-1.6137,-1.5926,-1.5853,-1.5878,-1.5585,-1.5116,-1.4687,-1.3998,-1.3326,-1.3134,-1.3222,-1.3585,-1.4427,-1.5244,-1.5983,-1.6698,-1.7526,-1.8312,-1.8696,-1.9272,-1.9882,-2.0491,-2.0783,-2.114,-2.1741,-2.1977,-2.2147,-2.2375,-2.2237,-2.2082,-2.1952,-2.1766,-2.1806,-2.2123,-2.2147,-2.2042,-2.179,-2.2061,-2.2279,-2.2278,-2.2927,-2.3401,-2.3628,-2.4228,-2.4664,-2.5045,-2.5457,-2.5889,-2.6403,-2.7728,-2.8741,-2.9547,-3.1434,-3.3226,-3.4862,-3.6053,-3.6348,-3.5909,-3.5767,-3.543,-3.4958,-3.4768,-3.43,-3.3623,-3.3024,-3.2249,-3.1444,0.0,0.0,0.0,0.0,0.0,0.0,0.0,0.0,0.0,0.0,-1.122,-1.137,-1.1419,-1.1776,-1.215,-1.2483,-1.3319,-1.4229,-1.5228,-1.6712,-1.8097,-1.9313,-2.0234,-2.0994,-2.1766,-2.1782,-2.1961,-2.2318,-2.2318,-2.2253,-2.2123,-2.2123,-2.2066,-2.1936,-2.2066,-2.2123,-2.2107,-2.1936,-2.1831,-2.1725,-2.11,-2.0714,-2.0279,-1.9435,-1.846,-1.7518,-1.7238,-1.6582,-1.5804,-1.539,-1.5212,-1.5171,-1.5293,-1.5187,-1.4905,-1.4586,-1.4055,-1.3609,-1.366,-1.3945,-1.4452,-1.5521,-1.6544,-1.7429,-1.8144,-1.9029,-1.9835,-2.0093,-2.0474,-2.0872,-2.1303,-2.1384,-2.1555,-2.2042,-2.2172,-2.2253,-2.2448,-2.2172,-2.1847,-2.162,-2.123,-2.1116,-2.1449,-2.162,-2.1676,-2.1595,-2.2132,-2.2451,-2.2543,-2.3527,-2.411,-2.4228,-2.473,-2.5275,-2.5816,-2.5925,-2.6495,-2.746,-2.8708,-2.9863,-3.1084,-3.2926,-3.4606,-3.6053,-3.6449,-3.6363,-3.5968,-3.5782,-3.5445,-3.5064,-3.4797,-3.43,-3.3638,-3.3304,-3.2765,-3.2116,0.0,0.0,0.0,0.0,0.0,0.0,0.0,0.0,0.0,0.0,0.0,-1.1045,-1.1179,-1.1219,-1.1373,-1.1806,-1.2467,-1.3374,-1.4651,-1.6039,-1.7473,-1.8939,-1.9753,-2.0551,-2.1384,-2.1408,-2.1571,-2.1896,-2.1896,-2.1896,-2.1936,-2.1936,-2.1936,-2.188,-2.1936,-2.1936,-2.188,-2.1741,-2.1579,-2.136,-2.1056,-2.0486,-1.9735,-1.9013,-1.7859,-1.6576,-1.6177,-1.548,-1.4676,-1.414,-1.4075,-1.4257,-1.4265,-1.4335,-1.4346,-1.4034,-1.3755,-1.3723,-1.4225,-1.5041,-1.6008,-1.7055,-1.8127,-1.9102,-1.9876,-2.0462,-2.091,-2.1043,-2.1046,-2.1165,-2.1343,-2.1384,-2.1514,-2.1871,-2.2082,-2.2253,-2.2448,-2.2172,-2.1806,-2.1425,-2.0929,-2.0547,-2.0385,-2.0848,-2.1222,-2.1384,-2.1996,-2.2543,-2.3073,-2.3872,-2.4486,-2.4837,-2.508,-2.5374,-2.5816,-2.6305,-2.7172,-2.8404,-2.9766,-3.1135,-3.2492,-3.4739,-3.6018,-3.6562,-3.6597,-3.6246,-3.5709,-3.5694,-3.5328,-3.471,-3.471,-3.43,-3.3684,-3.3684,-3.3274,-3.2719,0.0,0.0,0.0,0.0,0.0,0.0,0.0,0.0,0.0,0.0,0.0,0.0,0.0,0.0,0.0,0.0,-1.2142,-1.2865,-1.3793,-1.5171,-1.6404,-1.7473,-1.8485,-1.9354,-2.0014,-2.0206,-2.045,-2.0694,-2.0929,-2.0986,-2.0864,-2.0986,-2.0978,-2.0872,-2.1108,-2.1222,-2.1213,-2.1203,-2.1007,-2.0629,-2.0036,-1.9411,-1.8615,-1.7664,-1.656,-1.5398,0.0,-1.3896,-1.3571,-1.3157,-1.2978,-1.2978,-1.3214,-1.3293,-1.3358,-1.3514,-1.3839,-1.4298,-1.5114,-1.6146,-1.7274,-1.8363,-1.9524,-2.0499,-2.0856,-2.136,-2.166,-2.136,-2.1205,-2.1035,-2.0734,-2.0677,-2.0759,-2.101,-2.1295,-2.1595,-2.1896,-2.162,-2.1254,-2.0905,-2.0385,-1.9987,-1.98,-2.0271,-2.082,-2.1383,-2.221,-2.3005,-2.3665,-2.4431,-2.5176,-2.5851,-2.5829,-2.622,-2.7115,-2.7569,-2.836,-2.9576,-3.1837,-3.3703,-3.5042,-3.5942,-3.6449,-3.6597,-3.6597,-3.6246,-3.5694,-3.5694,-3.5313,-3.471,-3.471,-3.4432,-3.3976,-3.3771,-3.3406,-3.3012,0.0,0.0,0.0,0.0,0.0,0.0,0.0,0.0,0.0,0.0,0.0,0.0,0.0,0.0,0.0,0.0,0.0,-1.2247,-1.3069,-1.4131,-1.5204,-1.6193,-1.712,-1.7875,-1.8476,-1.8777,-1.9053,-1.9297,-1.9524,-1.9646,-1.9654,-1.9776,-1.98,-1.976,-1.9995,-2.0093,-2.0093,-2.0071,-1.9784,-1.9402,-1.8753,-1.8062,-1.7307,-1.6292,-1.5325,0.0,-1.3222,-1.2726,-1.258,-1.2311,-1.2158,-1.2166,-1.2426,-1.2694,-1.3027,-1.3514,-1.4253,-1.513,-1.6162,-1.7404,-1.8655,-1.967,-2.0726,-2.153,-2.1636,-2.1855,-2.1806,-2.114,-2.0661,-2.0198,-1.9654,-1.9557,-1.9695,-2.0141,-2.0621,-2.1108,-2.1651,-2.1408,-2.1083,-2.0734,-2.0214,-1.9808,-1.963,-1.993,-2.0438,-2.1262,-2.2264,-2.3134,-2.3937,-2.5037,-2.5882,-2.6407,-2.6482,-2.6924,-2.7786,-2.8371,-2.9551,-3.131,-3.3369,-3.4991,-3.6106,-3.6452,-3.6597,-3.6597,-3.6597,-3.6305,-3.5855,-3.5738,-3.5386,-3.4856,-3.4753,-3.4505,-3.4183,-3.3801,-3.3479,-3.3114,0.0,0.0,0.0,0.0,0.0,0.0,0.0,0.0,0.0,0.0,0.0,0.0,0.0,0.0,0.0,0.0,0.0,0.0,-1.2466,-1.3036,-1.3839,-1.5011,-1.5578,-1.6185,-1.6917,-1.7128,-1.7404,-1.7737,-1.7778,-1.7973,-1.8353,-1.8369,-1.842,-1.8542,-1.8551,-1.8598,-1.859,-1.8459,-1.8127,-1.7746,-1.721,-1.656,-1.5788,-1.4935,-1.4136,-1.3415,-1.2564,-1.2036,-1.1749,-1.1541,-1.163,-1.1833,-1.1997,-1.258,-1.3303,-1.4042,-1.5033,-1.6154,-1.7368,-1.8793,-2.0093,-2.0962,-2.1701,-2.2212,-2.2172,-2.1871,-2.1398,-2.0418,-1.9508,-1.872,-1.8168,-1.8117,-1.8371,-1.9272,-2.0044,-2.0783,-2.1569,-2.149,-2.1254,-2.0958,-2.0454,-2.0071,-1.9833,-1.9876,-2.0278,-2.1197,-2.2082,-2.3045,-2.4037,-2.5555,-2.6463,-2.6548,-2.7039,-2.7528,-2.7906,-2.889,-3.074,-3.351,-3.4294,-3.5054,-3.5855,-3.635,-3.6597,-3.6597,-3.6597,-3.6422,-3.61,-3.5826,-3.5504,-3.5181,-3.4827,-3.4519,-3.4197,-3.3815,-3.3494,-3.3128,0.0,0.0,0.0,0.0,0.0,0.0,0.0,0.0,0.0,0.0,0.0,0.0,0.0,0.0,0.0,0.0,0.0,0.0,-1.1541,-1.2069,-1.2629,-1.3256,-1.3766,-1.4205,-1.4484,-1.4921,-1.5228,-1.5278,-1.5821,-1.6178,-1.6267,-1.6535,-1.6639,-1.6696,-1.686,-1.6917,-1.6917,-1.6868,-1.6568,-1.6081,-1.5536,-1.4857,-1.4136,-1.3401,-1.2832,-1.2329,-1.1697,-1.1443,-1.1354,-1.1284,-1.1687,-1.2247,-1.2686,-1.3409,-1.4261,-1.5114,-1.6316,-1.7648,-1.8899,-2.019,-2.1357,-2.179,-2.2253,-2.2407,-2.1741,-2.1213,-2.0499,-1.9199,-1.8217,-1.738,-1.6671,-1.669,-1.7071,-1.7927,-1.8948,-1.999,-2.0975,-2.1246,-2.1295,-2.1083,-2.0815,-2.0576,-2.0214,-2.0729,-2.1316,-2.1986,-2.2372,-2.343,-2.5244,-2.5997,-2.6956,-2.8245,-2.8073,-2.842,-2.9349,-3.0737,-3.2506,-3.4693,-3.5055,-3.5656,-3.64,-3.6548,-3.6597,-3.6597,-3.6597,-3.6422,-3.61,-3.5826,-3.5504,-3.5181,-3.4827,-3.4651,-3.4505,-3.3949,-3.364,-3.3464,0.0,0.0,0.0,0.0,0.0,0.0,0.0,0.0,0.0,0.0,0.0,0.0,0.0,0.0,0.0,0.0,0.0,0.0,0.0,-1.1395,-1.1719,-1.2108,-1.2499,-1.2751,-1.2896,-1.3269,-1.3539,-1.3612,-1.4018,-1.4302,-1.4456,-1.4659,-1.4751,-1.4879,-1.4976,-1.5017,-1.5009,-1.4927,-1.4684,0.0,0.0,-1.3368,-1.284,-1.2312,-1.1971,-1.1705,-1.1273,-1.1265,-1.1549,-1.207,-1.2605,-1.3116,-1.3725,-1.4586,-1.5536,-1.6349,-1.7616,-1.898,-2.0076,-2.123,-2.2188,-2.2464,-2.2513,-2.2253,-2.136,-2.0377,-1.9248,-1.7848,-1.6665,-1.5723,-1.5164,-1.5374,-1.5975,-1.7068,-1.833,-1.9591,-2.0747,-2.1284,-2.1465,-2.1384,-2.1278,-2.1208,-2.1189,-2.1576,-2.2171,-2.3028,-2.318,-2.4026,-2.5834,-2.6541,-2.7534,-2.8864,-2.8694,-2.9294,-3.0711,-3.1594,-3.3162,-3.5475,-3.5335,-3.5728,-3.6597,-3.6597,-3.6597,-3.6597,-3.6597,-3.6495,-3.6305,-3.5983,-3.5709,-3.5386,-3.5079,-3.4827,-3.4651,-3.4139,-3.3801,-3.3611,0.0,0.0,0.0,0.0,0.0,0.0,0.0,0.0,0.0,0.0,0.0,0.0,0.0,0.0,0.0,0.0,0.0,0.0,0.0,0.0,-1.1098,-1.1378,-1.1549,-1.1703,-1.1819,-1.2021,-1.2239,-1.2417,-1.249,-1.267,-1.2921,-1.2946,-1.3027,-1.3191,-1.3191,-1.3191,-1.3182,-1.2986,-1.2816,-1.2597,-1.2296,-1.2052,-1.1819,0.0,-1.1395,-1.1354,-1.1094,-1.1383,-1.2004,-1.322,-1.382,-1.4213,-1.5,-1.5991,-1.7006,-1.77,-1.8931,-2.019,-2.1067,-2.2042,-2.283,-2.2935,-2.2513,-2.1831,-2.0885,-1.9411,-1.7832,-1.6324,-1.5019,-1.4079,-1.3782,-1.4164,-1.4992,-1.6363,-1.7859,-1.9248,-2.0584,-2.1292,-2.1699,-2.174,-2.1837,-2.1985,-2.2346,-2.2502,-2.3051,-2.4083,-2.4339,-2.4971,-2.6214,-2.7109,-2.7983,-2.8883,-2.9154,-3.0071,-3.1783,-3.197,-3.3356,-3.5898,-3.5411,-3.565,-3.6597,-3.6597,-3.6597,-3.6597,-3.6597,-3.6597,-3.6583,-3.6246,-3.5953,-3.5723,-3.5343,-3.5002,-3.4724,-3.4358,-3.4036,-3.3698,0.0,0.0,0.0,0.0,0.0,0.0,0.0,0.0,0.0,0.0,-1.0672,-1.0688,0.0,0.0,0.0,0.0,0.0,0.0,0.0,0.0,0.0,-1.0834,-1.0858,-1.0891,-1.0923,-1.124,-1.1427,-1.1451,-1.1906,-1.2085,-1.2043,-1.215,-1.2158,-1.2083,-1.2083,-1.2083,-1.2083,-1.2051,-1.1898,-1.1711,-1.1471,-1.1305,-1.1155,-1.0915,0.0,0.0,-1.1094,-1.1495,-1.2143,-1.3433,-1.4367,-1.5173,-1.6373,-1.7486,-1.8525,-1.9394,-2.0344,-2.1278,-2.2026,-2.2742,-2.3106,-2.283,-2.2147,-2.1132,-1.9646,-1.8062,-1.6496,-1.4871,-1.3782,-1.3018,-1.2865,-1.3272,-1.4026,-1.527,-1.6801,-1.8363,-1.9776,-2.0815,-2.1555,-2.1847,-2.2469,-2.2808,-2.2743,-2.362,-2.428,-2.4512,-2.5618,-2.6485,-2.707,-2.7433,-2.8054,-2.9034,-2.9799,-3.0693,-3.1783,-3.2932,-3.4329,-3.5912,-3.6025,-3.6263,-3.6597,-3.6597,-3.6597,-3.6597,-3.6597,-3.6597,-3.6583,-3.6246,-3.6085,-3.5983,-3.543,-3.5167,-3.5064,-3.4432,-3.4183,-3.4051,0.0,0.0,0.0,0.0,0.0,0.0,0.0,0.0,-1.0777,-1.0948,-1.1053,-1.1045,-1.0886,-1.0753,0.0,0.0,0.0,0.0,0.0,0.0,0.0,-1.0688,-1.0688,-1.0688,-1.0688,-1.0858,-1.0948,-1.0948,0.0,-1.1289,-1.1245,-1.1297,-1.1289,-1.1245,-1.1245,-1.1245,-1.1245,-1.1245,-1.1159,-1.107,-1.098,-1.0899,-1.0846,-1.0756,0.0,0.0,-1.0997,-1.1435,-1.2077,-1.3238,-1.4343,-1.5448,-1.689,-1.8127,-1.9183,-2.0076,-2.097,-2.1806,-2.2424,-2.2911,-2.3206,-2.27,-2.1701,-2.0409,-1.8793,-1.6966,-1.5204,-1.3774,-1.2767,-1.2142,-1.2181,-1.267,-1.3474,-1.4597,-1.6137,-1.7684,-1.9167,-2.0421,-2.1319,-2.1815,-2.2684,-2.3331,-2.3552,-2.4403,-2.5196,-2.577,-2.6478,-2.7005,-2.7403,-2.8121,-2.8851,-2.9524,-3.0421,-3.1456,-3.2676,-3.3628,-3.4855,-3.6292,-3.6113,-3.6261,-3.6597,-3.6597,-3.6597,-3.6597,-3.6597,-3.6597,-3.6597,-3.6436,-3.6275,-3.6085,-3.5778,-3.5456,-3.5134,-3.4827,-3.4505,-3.4168,0.0,0.0,0.0,0.0,0.0,0.0,0.0,-1.0707,-1.1102,-1.1313,-1.15,-1.1492,-1.1204,-1.0935,-1.0764,0.0,0.0,0.0,0.0,0.0,0.0,0.0,0.0,0.0,-1.0688,0.0,0.0,-1.0753,-1.0785,0.0,0.0,0.0,0.0,0.0,-1.0688,-1.0688,-1.0688,-1.0688,-1.0688,0.0,0.0,-1.0688,-1.0688,0.0,0.0,0.0,0.0,-1.1318,-1.1896,-1.2898,-1.3977,-1.5164,-1.6623,-1.8054,-1.9329,-2.0263,-2.1148,-2.1953,-2.2553,-2.296,-2.3124,-2.2546,-2.1238,-1.9703,-1.8014,-1.5999,-1.4123,-1.284,-1.1955,-1.1427,-1.1603,-1.215,-1.2904,-1.3893,-1.5375,-1.689,-1.833,-1.9721,-2.0914,-2.177,-2.286,-2.3803,-2.4513,-2.5248,-2.6128,-2.7007,-2.7291,-2.7533,-2.7881,-2.8789,-2.9577,-3.0065,-3.0951,-3.2149,-3.3684,-3.4463,-3.5459,-3.6685,-3.635,-3.6346,-3.6597,-3.6597,-3.6597,-3.6597,-3.6597,-3.6597,-3.6597,-3.6597,-3.6451,-3.6217,-3.6144,-3.5822,-3.5368,-3.5269,-3.4888,-3.4402,0.0,0.0,0.0,0.0,0.0,0.0,0.0,-1.0831,-1.1321,-1.1709,-1.1874,-1.1906,-1.1749,-1.1277,-1.0903,0.0,0.0,0.0,0.0,0.0,0.0,0.0,0.0,0.0,0.0,0.0,0.0,-1.0968,-1.1094,0.0,0.0,0.0,0.0,0.0,0.0,-1.0688,-1.0688,-1.0688,0.0,0.0,0.0,0.0,0.0,0.0,0.0,0.0,0.0,-1.1236,-1.1638,-1.2417,-1.3254,-1.4188,-1.5116,-1.6939,-1.898,-2.0036,-2.0864,-2.162,-2.2489,-2.287,-2.2846,-2.2147,-2.0775,-1.9077,-1.7145,-1.5171,-1.335,-1.2134,-1.1448,-1.1049,-1.1065,-1.153,-1.2117,-1.2831,-1.4196,-1.5585,-1.6825,-1.8412,-2.0046,-2.1633,-2.3155,-2.4411,-2.5287,-2.6641,-2.7445,-2.7366,-2.8237,-2.875,-2.8776,-2.9005,-2.9646,-3.0692,-3.1384,-3.2541,-3.4201,-3.5846,-3.665,-3.6699,-3.72,-3.7132,-3.6597,-3.6597,-3.6597,-3.6597,-3.6597,-3.6597,-3.6597,-3.6597,-3.6583,-3.6524,-3.6231,-3.6085,-3.5953,-3.5416,-3.5167,-3.5035,0.0,0.0,0.0,0.0,0.0,0.0,-1.0353,-1.0855,-1.1365,-1.1866,-1.2085,-1.2094,-1.1947,-1.1549,-1.1204,0.0,0.0,0.0,0.0,0.0,0.0,0.0,0.0,0.0,0.0,0.0,-1.0829,-1.0829,-1.0867,0.0,0.0,0.0,0.0,0.0,0.0,-1.0688,-1.0688,-1.0688,0.0,0.0,0.0,0.0,0.0,0.0,0.0,0.0,0.0,0.0,-1.1285,-1.1752,-1.2377,-1.3059,-1.3734,-1.496,-1.6501,-1.8598,-1.99,-2.0853,-2.1806,-2.2294,-2.2359,-2.1766,-2.0312,-1.855,-1.6639,-1.4695,-1.2986,-1.1849,-1.1175,-1.0862,-1.0976,-1.135,-1.1869,-1.2664,-1.3877,-1.5228,-1.6689,-1.8265,-1.9802,-2.1302,-2.2885,-2.43,-2.5375,-2.6644,-2.7682,-2.8451,-2.9182,-2.9481,-2.9194,-2.9455,-3.012,-3.1264,-3.2263,-3.3631,-3.5322,-3.6273,-3.6942,-3.7259,-3.7082,-3.6861,-3.6597,-3.6597,-3.6597,-3.6597,-3.6597,-3.6597,-3.6597,-3.6597,-3.6597,-3.6597,-3.6466,-3.629,-3.6085,-3.5836,-3.5485,-3.5167,0.0,0.0,0.0,0.0,0.0,-1.0006,-1.0353,-1.0814,-1.1338,-1.1882,-1.2109,-1.2174,-1.2013,-1.1711,-1.1378,-1.107,0.0,0.0,0.0,0.0,0.0,0.0,0.0,0.0,0.0,0.0,-1.0688,-1.0688,-1.0688,-1.0688,0.0,0.0,-1.0688,-1.0688,0.0,0.0,0.0,0.0,0.0,0.0,0.0,0.0,0.0,0.0,0.0,0.0,0.0,0.0,0.0,0.0,0.0,-1.2069,-1.2548,-1.3246,-1.4399,-1.7083,-1.8622,-1.9713,-2.0853,-2.136,-2.149,-2.0905,-1.9532,-1.7859,-1.6015,-1.4245,-1.2645,-1.163,-1.1029,-1.0729,-1.0894,-1.1175,-1.1692,-1.2516,-1.3561,-1.4796,-1.6359,-1.7851,-1.9363,-2.0964,-2.2556,-2.4089,-2.5606,-2.7019,-2.8275,-2.9475,-2.9882,-2.9968,-2.9661,-3.0121,-3.0912,-3.198,-3.3299,-3.4795,-3.6478,-3.6894,-3.7258,-3.7563,-3.7007,-3.67,-3.6597,-3.6597,-3.6597,-3.6597,-3.6597,-3.6597,-3.6597,-3.6597,-3.6597,-3.6597,-3.6597,-3.6466,-3.6246,-3.6158,-3.5836,-3.5427,0.0,0.0,0.0,0.0,0.0,0.0,0.0,-1.0737,-1.1196,-1.1741,-1.1922,-1.1997,-1.1997,-1.1711,-1.1427,-1.1203,0.0,0.0,0.0,0.0,0.0,0.0,0.0,0.0,0.0,0.0,-1.0688,-1.0688,-1.0688,-1.0688,-1.0688,-1.0688,-1.0688,-1.0688,0.0,0.0,0.0,0.0,0.0,0.0,0.0,0.0,-1.0688,0.0,0.0,0.0,0.0,0.0,0.0,0.0,0.0,0.0,0.0,-1.2189,-1.3109,-1.5585,-1.7088,-1.8217,-1.9467,-2.0068,-2.0166,-1.9509,-1.8377,-1.6933,-1.513,-1.3604,-1.2344,-1.1411,-1.094,-1.0688,-1.0696,-1.0988,-1.1462,-1.2183,-1.3101,-1.4147,-1.5436,-1.6897,-1.854,-2.0572,-2.215,-2.3945,-2.6179,-2.8267,-2.9785,-3.0424,-3.0277,-3.0149,-3.0276,-3.1116,-3.2011,-3.2978,-3.441,-3.6006,-3.7643,-3.7963,-3.79,-3.7628,-3.7241,-3.6919,-3.6597,-3.6597,-3.6597,-3.6597,-3.6597,-3.6597,-3.6597,-3.6597,-3.6597,-3.6597,-3.6597,-3.6597,-3.6553,-3.6231,-3.6114,-3.6056,0.0,0.0,0.0,0.0,0.0,0.0,0.0,-1.0452,-1.0766,-1.133,-1.1557,-1.1671,-1.1671,-1.1451,-1.124,-1.109,0.0,0.0,0.0,0.0,0.0,0.0,0.0,0.0,0.0,0.0,-1.078,-1.0911,-1.0911,-1.094,-1.1025,-1.1025,-1.1025,-1.1045,-1.096,-1.0911,0.0,0.0,0.0,0.0,0.0,-1.0688,-1.0688,0.0,0.0,0.0,0.0,0.0,0.0,0.0,0.0,0.0,0.0,0.0,0.0,-1.3402,-1.4944,-1.6519,-1.7656,-1.8217,-1.8389,-1.8208,-1.721,-1.5943,-1.4643,-1.3327,-1.2166,-1.1386,-1.094,-1.0688,-1.0688,-1.098,-1.1512,-1.2483,-1.3363,-1.4494,-1.6168,-1.756,-1.9084,-2.0843,-2.3736,-2.6246,-2.7932,-2.936,-3.026,-3.0482,-3.08,-3.0863,-3.0641,-3.2354,-3.3426,-3.357,-3.4993,-3.6373,-3.7695,-3.7745,-3.7731,-3.7563,-3.7022,-3.67,-3.6597,-3.6597,-3.6597,-3.6597,-3.6597,-3.6597,-3.6597,-3.6597,-3.6597,-3.6597,-3.6597,-3.6597,-3.6597,-3.648,-3.6305,-3.61,0.0,0.0,0.0,0.0,0.0,0.0,0.0,-1.0257,-1.0526,-1.1053,-1.1224,-1.1321,-1.1386,-1.1232,-1.1086,-1.1008,0.0,0.0,0.0,0.0,0.0,0.0,0.0,0.0,-1.0688,-1.0688,-1.0813,-1.1,-1.1057,-1.1159,-1.13,-1.13,-1.13,-1.1321,-1.1143,-1.109,0.0,0.0,0.0,0.0,-1.0891,-1.085,-1.0794,0.0,0.0,0.0,0.0,0.0,0.0,0.0,0.0,0.0,0.0,0.0,0.0,0.0,-1.3027,-1.4399,-1.574,-1.6274,-1.6477,-1.6404,-1.5691,-1.4724,-1.3818,-1.2841,-1.1922,-1.1265,-1.0948,-1.0794,-1.0794,-1.1086,-1.1619,-1.2565,-1.3458,-1.4591,-1.6368,-1.7811,-1.9581,-2.2049,-2.4933,-2.7303,-2.878,-2.9793,-3.0342,-3.0342,-3.1091,-3.1546,-3.1452,-3.3386,-3.4674,-3.4966,-3.6049,-3.7068,-3.8008,-3.7863,-3.7746,-3.7563,-3.7036,-3.6714,-3.6597,-3.6597,-3.6597,-3.6597,-3.6597,-3.6597,0.0,-3.6597,-3.6597,-3.6597,-3.6597,-3.6597,-3.6597,-3.6597,-3.648,-3.6305,0.0,0.0,0.0,0.0,0.0,0.0,0.0,0.0,0.0,-1.0911,-1.0976,-1.1041,-1.1138,-1.1045,-1.0976,-1.0976,0.0,0.0,0.0,0.0,0.0,0.0,0.0,0.0,-1.0688,-1.0704,-1.0829,-1.1017,-1.1175,-1.1325,-1.1541,-1.1549,-1.1549,-1.1533,-1.1346,-1.1219,-1.1195,0.0,0.0,0.0,-1.1195,-1.1126,0.0,0.0,0.0,0.0,0.0,0.0,0.0,0.0,0.0,0.0,0.0,0.0,0.0,0.0,0.0,0.0,0.0,-1.4375,-1.4521,-1.4322,-1.3901,-1.335,-1.2718,-1.2157,0.0,-1.1106,-1.1,-1.1,-1.1,-1.1256,-1.1733,-1.2471,-1.3378,-1.4533,-1.6095,-1.7824,-2.0268,-2.3846,-2.5751,-2.7313,-2.8847,-2.9655,-3.0137,-3.0137,-3.1259,-3.2164,-3.2592,-3.4232,-3.5711,-3.6925,-3.7472,-3.7994,-3.8491,-3.8207,-3.7936,-3.7628,-3.7226,-3.689,-3.6597,-3.6597,-3.6597,-3.6597,-3.6597,-3.6597,-3.6597,-3.6597,-3.6597,-3.6597,-3.6597,-3.6597,-3.6597,-3.6597,-3.6597,-3.6597,0.0,0.0,0.0,0.0,0.0,0.0,0.0,0.0,0.0,0.0,-1.0761,-1.0769,-1.081,-1.0777,-1.0761,0.0,0.0,0.0,0.0,0.0,0.0,0.0,0.0,0.0,-1.0688,-1.0862,-1.0988,-1.1159,-1.1484,-1.1736,-1.1876,-1.2052,-1.2044,-1.1868,-1.1727,-1.1492,-1.1195,-1.1195,0.0,0.0,-1.1195,-1.1171,0.0,0.0,0.0,0.0,-1.0772,-1.0688,0.0,0.0,0.0,0.0,0.0,0.0,0.0,0.0,-1.1122,-1.131,-1.1795,0.0,-1.3126,-1.3156,-1.3011,-1.2702,0.0,-1.1849,-1.1451,-1.1082,-1.1,-1.1,-1.1,-1.1256,-1.1733,-1.2471,-1.3378,-1.4578,-1.6296,-1.9151,-2.2067,-2.4799,-2.6195,-2.7653,-2.9402,-2.9872,-3.0298,-3.0756,-3.1704,-3.2749,-3.3738,-3.5254,-3.6509,-3.7501,-3.7829,-3.8191,-3.8477,-3.7973,-3.7651,-3.7563,-3.6992,-3.6685,-3.6597,-3.6597,-3.6597,-3.6597,-3.6597,-3.6597,-3.6597,-3.6597,-3.6597,-3.6597,-3.6597,-3.6597,-3.6597,-3.6597,-3.6597,-3.6597,0.0,0.0,0.0,0.0,0.0,0.0,0.0,0.0,0.0,0.0,0.0,0.0,0.0,0.0,0.0,0.0,0.0,0.0,0.0,0.0,0.0,0.0,0.0,-1.0688,-1.0688,-1.0903,-1.1082,-1.1195,-1.1671,-1.2028,-1.228,-1.2377,-1.2418,-1.2354,-1.2044,-1.1736,-1.1476,-1.1476,-1.1476,-1.1476,-1.1476,0.0,0.0,0.0,0.0,0.0,-1.0761,-1.0688,0.0,-1.0688,-1.0688,-1.0688,0.0,0.0,0.0,0.0,-1.087,-1.0911,-1.1053,-1.1516,-1.1996,-1.2143,-1.215,-1.2004,-1.1689,-1.1479,-1.1273,-1.0943,-1.0972,-1.1086,-1.1086,-1.1443,-1.1918,-1.2505,-1.3447,-1.4973,-1.7481,-2.0376,-2.3049,-2.5264,-2.6482,-2.7787,-2.9443,-2.9825,-3.0252,-3.0992,-3.2037,-3.3273,-3.4741,-3.6072,-3.7111,-3.7858,-3.7994,-3.8148,-3.8324,-3.7826,-3.7504,-3.7358,-3.6992,-3.6744,-3.6597,-3.6597,-3.6597,-3.6597,-3.6597,-3.6597,-3.6597,-3.6597,-3.6597,-3.6597,-3.6597,-3.6597,-3.6597,-3.6597,-3.6597,-3.6597,0.0,0.0,0.0,0.0,0.0,0.0,0.0,0.0,0.0,0.0,0.0,0.0,0.0,0.0,0.0,0.0,0.0,0.0,0.0,0.0,0.0,0.0,-1.0704,-1.0704,-1.0764,-1.0968,-1.1151,-1.1317,-1.1884,-1.2361,-1.2718,-1.2751,-1.2751,-1.2742,-1.2224,-1.1939,-1.1806,-1.1806,-1.1806,-1.1806,-1.1806,0.0,0.0,0.0,0.0,0.0,0.0,0.0,0.0,-1.0688,-1.0688,-1.0688,-1.0688,0.0,0.0,0.0,0.0,0.0,-1.0943,-1.1094,-1.1236,-1.1451,-1.1524,-1.1492,-1.1276,-1.1236,-1.1175,-1.0842,-1.1037,-1.1273,-1.1297,-1.1714,-1.2247,-1.2694,-1.3905,-1.5885,-1.897,-2.1328,-2.3531,-2.5567,-2.6704,-2.789,-2.9325,-2.9765,-3.0294,-3.1157,-3.2333,-3.3741,-3.5405,-3.6481,-3.731,-3.7921,-3.787,-3.7863,-3.7965,-3.7687,-3.7358,-3.7095,-3.7036,-3.6875,-3.6597,-3.6597,-3.6597,-3.6597,-3.6597,-3.6597,-3.6597,-3.6597,-3.6597,-3.6597,-3.6597,-3.6597,-3.6597,-3.6597,-3.6597,-3.6597,0.0,0.0,0.0,0.0,0.0,0.0,0.0,0.0,0.0,0.0,0.0,0.0,0.0,0.0,0.0,0.0,0.0,0.0,0.0,0.0,0.0,-1.0951,-1.0805,-1.0769,-1.0951,-1.1248,-1.1581,-1.1876,-1.2596,-1.3035,-1.328,-1.3409,-1.3165,-1.2621,-1.2199,-1.1939,-1.1806,-1.1806,-1.1806,-1.1806,-1.1806,0.0,0.0,0.0,0.0,0.0,0.0,0.0,0.0,-1.0688,-1.0688,-1.0688,-1.0688,0.0,0.0,0.0,0.0,0.0,-1.0943,-1.1094,-1.1236,-1.1451,-1.1614,-1.1717,-1.15,-1.1459,-1.1395,-1.1183,-1.1313,-1.1508,-1.1692,-1.2157,-1.2702,-1.3334,-1.5735,-1.8084,-1.9761,-2.172,-2.3801,-2.6011,-2.6877,-2.7951,-2.9561,-3.0258,-3.0902,-3.1825,-3.2748,-3.3977,-3.5485,-3.5729,-3.6301,-3.7326,-3.686,-3.6788,-3.7241,-3.7197,-3.7139,-3.7095,-3.6817,-3.6656,-3.6597,-3.6597,-3.6597,-3.6597,-3.6597,-3.6597,-3.6597,-3.6597,-3.6597,-3.6597,-3.6597,-3.6597,-3.6597,-3.6597,-3.6597,-3.6597,0.0,0.0,0.0,0.0,0.0,0.0,0.0,0.0,0.0,0.0,0.0,0.0,0.0,0.0,0.0,0.0,0.0,0.0,0.0,0.0,-1.0805,-1.0992,-1.0972,-1.1062,-1.1277,-1.1606,-1.1963,-1.232,-1.3035,-1.3482,-1.366,-1.3617,-1.3228,-1.2588,-1.2296,-1.2028,-1.1806,-1.1806,-1.1806,-1.1806,0.0,0.0,0.0,0.0,0.0,0.0,0.0,0.0,0.0,0.0,-1.0688,-1.0688,-1.0688,0.0,0.0,0.0,0.0,0.0,-1.1029,-1.1159,-1.1284,-1.1665,-1.1849,-1.1866,-1.1687,-1.1801,-1.1882,-1.1665,-1.1882,-1.2134,-1.2312,-1.2783,-1.3571,-1.4832,-1.7084,-1.9124,-2.0348,-2.2248,-2.4254,-2.6152,-2.7039,-2.7998,-2.9443,-3.042,-3.1426,-3.2608,-3.327,-3.4334,-3.5953,-3.5732,-3.5947,-3.6671,-3.6435,-3.6457,-3.6831,-3.6831,-3.6831,-3.6831,-3.667,-3.6597,-3.6597,-3.6597,-3.6597,-3.6597,-3.6597,-3.6597,-3.6597,-3.6597,-3.6597,-3.6597,-3.6597,-3.6597,-3.6597,-3.6597,-3.6597,-3.6597,0.0,0.0,0.0,0.0,0.0,0.0,0.0,0.0,0.0,0.0,0.0,0.0,0.0,0.0,0.0,0.0,0.0,0.0,0.0,-1.0729,-1.0842,-1.1049,-1.1232,-1.1435,-1.1622,-1.2052,-1.2499,-1.2979,-1.3669,-1.403,-1.4148,-1.3812,-1.3285,-1.2653,-1.2402,-1.2109,-1.1806,-1.1806,-1.1806,-1.1806,0.0,0.0,0.0,0.0,0.0,0.0,0.0,0.0,0.0,0.0,0.0,0.0,0.0,0.0,0.0,-1.0688,-1.0688,-1.0761,-1.1078,-1.1191,-1.1317,-1.1841,-1.1997,-1.2054,-1.2036,-1.2304,-1.2532,-1.2394,-1.2661,-1.2963,-1.3116,-1.3723,-1.4743,-1.6357,-1.8305,-1.9953,-2.0986,-2.2857,-2.4736,-2.6344,-2.715,-2.8065,-2.945,-3.0577,-3.1879,-3.3287,-3.3848,-3.4808,-3.6321,-3.5858,-3.5823,-3.6292,-3.6135,-3.6197,-3.6495,-3.6495,-3.6524,-3.6597,-3.6597,-3.6597,-3.6597,-3.6597,-3.6597,-3.6597,-3.6597,-3.6597,-3.6597,-3.6597,-3.6597,-3.6597,-3.6597,-3.6597,-3.6597,-3.6597,-3.6597,-3.6597,0.0,0.0,0.0,0.0,0.0,0.0,0.0,0.0,0.0,0.0,0.0,0.0,0.0,0.0,0.0,0.0,0.0,0.0,0.0,-1.0878,-1.1029,-1.1171,-1.1549,-1.1817,-1.1957,-1.267,-1.336,-1.4094,-1.4773,-1.5041,-1.4909,-1.4196,-1.3498,-1.2767,-1.2458,-1.2109,-1.1806,-1.1806,-1.1806,-1.1806,-1.1806,0.0,0.0,0.0,0.0,0.0,0.0,0.0,0.0,0.0,0.0,0.0,0.0,0.0,-1.0688,-1.0688,-1.0688,-1.0764,-1.096,-1.1102,-1.1313,-1.1703,-1.2044,-1.2369,-1.2653,-1.3035,-1.3336,-1.3463,-1.3677,-1.3863,-1.405,-1.5195,-1.6422,-1.7344,-1.9334,-2.1021,-2.1657,-2.3373,-2.5125,-2.6763,-2.7146,-2.8077,-3.0064,-3.1095,-3.2253,-3.3649,-3.4515,-3.5385,-3.6359,-3.5851,-3.5781,-3.6278,-3.5705,-3.5635,-3.6158,-3.6158,-3.6305,-3.6597,-3.6597,-3.6597,-3.6597,-3.6597,-3.6597,-3.6597,-3.6597,-3.6597,-3.6597,-3.6597,-3.6597,-3.6597,-3.6597,-3.6597,-3.6597,-3.6597,-3.6597,-3.6597,0.0,0.0,0.0,0.0,0.0,0.0,0.0,0.0,0.0,0.0,0.0,0.0,0.0,0.0,0.0,0.0,0.0,0.0,0.0,-1.0894,-1.1074,-1.1187,-1.1679,-1.2086,-1.2491,-1.3091,-1.3847,-1.4721,-1.5171,-1.5204,-1.4789,-1.418,-1.3522,-1.2791,-1.258,-1.2272,-1.1931,-1.1931,-1.1874,-1.1806,-1.1806,-1.1806,0.0,0.0,0.0,0.0,0.0,0.0,0.0,0.0,-1.0688,-1.0688,-1.0688,-1.0688,-1.0688,-1.0688,-1.0688,-1.0729,-1.0943,-1.1094,-1.1309,-1.1787,-1.2369,-1.2865,-1.3116,-1.3798,-1.4424,-1.4565,-1.4862,-1.5122,-1.5309,-1.6235,-1.7234,-1.7967,-1.9879,-2.1533,-2.2187,-2.3715,-2.5199,-2.631,-2.6935,-2.7873,-2.9401,-3.0996,-3.2517,-3.3957,-3.4847,-3.563,-3.6309,-3.5632,-3.5358,-3.5641,-3.5261,-3.5289,-3.587,-3.587,-3.5929,-3.6061,-3.6407,-3.6597,-3.6597,-3.6597,-3.6597,-3.6597,-3.6597,-3.6597,-3.6597,-3.6597,-3.6597,-3.6597,-3.6597,-3.6597,-3.6597,-3.6597,-3.6597,-3.6597,0.0,0.0,0.0,0.0,0.0,0.0,0.0,0.0,0.0,0.0,0.0,0.0,0.0,0.0,0.0,0.0,0.0,0.0,-1.0688,-1.0943,-1.1102,-1.1187,-1.1714,-1.2248,-1.2791,-1.3334,-1.4071,-1.5065,-1.5366,-1.5236,-1.4692,-1.4099,-1.3431,-1.2799,-1.2645,-1.2369,-1.1997,-1.1997,-1.1931,-1.1806,-1.1806,-1.1806,0.0,0.0,0.0,0.0,0.0,0.0,0.0,0.0,-1.0688,-1.0688,-1.0688,-1.0729,-1.0769,-1.0712,-1.0729,-1.0821,-1.0894,-1.1094,-1.1398,-1.1876,-1.2735,-1.353,-1.388,-1.4667,-1.5398,-1.5651,-1.6032,-1.6341,-1.6477,-1.7145,-1.7851,-1.8509,-2.0313,-2.1922,-2.2522,-2.3972,-2.5262,-2.601,-2.6704,-2.7691,-2.9207,-3.0966,-3.2708,-3.436,-3.529,-3.593,-3.6363,-3.5749,-3.5371,-3.5433,-3.5179,-3.515,-3.5533,-3.5533,-3.5533,-3.5548,-3.609,-3.6348,-3.6451,-3.6451,-3.6509,-3.6597,-3.6597,-3.6597,-3.6597,-3.6597,-3.6597,-3.6597,-3.6597,-3.6597,-3.6597,-3.6597,-3.6597,-3.6597,0.0,0.0,0.0,0.0,0.0,0.0,0.0,0.0,0.0,0.0,0.0,0.0,0.0,0.0,0.0,0.0,0.0,0.0,-1.0696,-1.0993,-1.1195,-1.1195,-1.1714,-1.2248,-1.2791,-1.3334,-1.4136,-1.5197,-1.5383,-1.5236,-1.4684,-1.3941,-1.3326,-1.2799,-1.2686,-1.2377,-1.2005,-1.2005,-1.1939,-1.1806,-1.1806,-1.1806,-1.1806,0.0,0.0,0.0,0.0,0.0,0.0,0.0,-1.0696,-1.0688,-1.0688,-1.0846,-1.096,-1.0772,-1.0854,-1.0951,-1.0772,-1.1086,-1.1589,-1.1916,-1.3116,-1.4367,-1.5043,-1.5626,-1.6169,-1.6712,-1.7109,-1.7453,-1.757,-1.794,-1.8363,-1.8899,-2.0747,-2.2222,-2.2557,-2.41,-2.5414,-2.601,-2.637,-2.7486,-2.978,-3.1106,-3.2724,-3.4949,-3.5843,-3.6385,-3.6562,-3.629,-3.5968,-3.5694,-3.5372,-3.5196,-3.5196,-3.5196,-3.5196,-3.5211,-3.5533,-3.5855,-3.6114,-3.6114,-3.629,-3.6597,-3.6597,-3.6597,-3.6597,-3.6597,-3.6597,-3.6597,-3.6597,-3.6597,-3.6597,-3.6597,-3.6597,-3.6597,0.0,0.0,0.0,0.0,0.0,0.0,0.0,0.0,0.0,0.0,0.0,0.0,0.0,0.0,0.0,0.0,0.0,0.0,-1.0903,-1.1094,-1.1252,-1.1411,-1.1778,-1.2223,-1.2637,-1.3417,-1.4229,-1.5049,-1.5098,-1.4854,-1.4326,-1.3828,-1.3455,-1.3214,-1.3191,-1.2929,-1.2556,-1.2458,-1.2231,-1.1947,-1.1825,-1.1806,-1.1806,0.0,0.0,0.0,0.0,0.0,0.0,0.0,0.0,0.0,-1.0688,-1.0729,-1.0789,-1.0712,-1.0729,-1.0821,-1.0894,-1.1183,-1.1646,-1.2255,-1.3392,-1.4573,-1.5545,-1.638,-1.7177,-1.7843,-1.8168,-1.8265,-1.8054,-1.8412,-1.8834,-1.9175,-2.0901,-2.2328,-2.2575,-2.3972,-2.4984,-2.5049,-2.6169,-2.745,-2.8754,-3.1006,-3.3008,-3.4649,-3.5469,-3.6053,-3.6226,-3.5749,-3.546,-3.5324,-3.5017,-3.4841,-3.4841,-3.4841,-3.4841,-3.4841,-3.4944,-3.5266,-3.5841,-3.6012,-3.6173,-3.6275,-3.6509,-3.6597,-3.6597,-3.6597,-3.6597,-3.6597,-3.6597,-3.6597,-3.6597,-3.6597,-3.6597,-3.6597,0.0,0.0,0.0,0.0,0.0,0.0,0.0,0.0,0.0,0.0,-1.0688,-1.0688,0.0,0.0,0.0,0.0,0.0,0.0,0.0,-1.1232,-1.1378,-1.1492,-1.1776,-1.2093,-1.245,-1.3197,-1.3758,-1.4123,-1.4335,-1.4278,-1.3961,-1.3669,-1.3514,-1.3482,-1.3482,-1.3279,-1.2921,-1.2702,-1.2402,-1.2086,-1.1904,-1.1817,-1.1866,0.0,0.0,0.0,0.0,0.0,0.0,0.0,0.0,0.0,-1.074,-1.0745,-1.0829,-1.0829,-1.085,-1.094,-1.1126,-1.157,-1.2093,-1.2816,-1.4006,-1.5408,-1.6841,-1.7632,-1.8184,-1.8801,-1.8964,-1.8972,-1.8744,-1.8972,-1.9256,-1.9493,-2.0815,-2.2021,-2.2416,-2.3519,-2.4374,-2.4476,-2.5872,-2.7281,-2.8428,-3.0869,-3.2973,-3.4459,-3.5309,-3.5778,-3.5749,-3.5416,-3.5152,-3.5002,-3.4812,-3.471,-3.471,-3.471,-3.471,-3.471,-3.471,-3.49,-3.5328,-3.5588,-3.588,-3.6129,-3.6466,-3.6597,-3.6597,-3.6597,-3.6597,-3.6597,-3.6597,-3.6597,-3.6597,-3.6597,-3.6597,-3.6597,0.0,0.0,0.0,0.0,0.0,0.0,0.0,0.0,0.0,0.0,-1.0688,-1.0688,0.0,0.0,0.0,0.0,0.0,0.0,0.0,-1.1403,-1.1508,-1.1524,-1.1719,-1.1971,-1.2272,-1.2783,-1.2962,-1.2759,-1.3293,-1.3569,-1.3585,-1.3465,-1.3498,-1.3658,-1.3658,-1.3455,-1.3116,-1.2775,-1.2515,-1.2272,-1.1922,-1.1866,-1.1957,-1.1833,0.0,0.0,0.0,0.0,0.0,0.0,0.0,0.0,-1.0805,-1.0862,-1.0992,-1.0976,-1.107,-1.1219,-1.1468,-1.2044,-1.2808,-1.3512,-1.4954,-1.6655,-1.8558,-1.9021,-1.9151,-1.9467,-1.9549,-1.9557,-1.954,-1.9549,-1.9622,-1.9784,-2.0625,-2.1499,-2.2205,-2.2919,-2.3612,-2.4292,-2.5583,-2.7096,-2.8643,-3.0863,-3.2811,-3.436,-3.5197,-3.5518,-3.5225,-3.5181,-3.4988,-3.471,-3.471,-3.471,-3.471,-3.471,-3.471,-3.471,-3.471,-3.471,-3.471,-3.5064,-3.5548,-3.6085,-3.6392,-3.6509,-3.6524,-3.6553,-3.6553,-3.6568,-3.6597,-3.6597,-3.6597,-3.6597,-3.6597,-3.6597,0.0,0.0,0.0,0.0,0.0,0.0,0.0,0.0,0.0,0.0,0.0,0.0,0.0,0.0,0.0,0.0,0.0,0.0,0.0,-1.1476,-1.1565,-1.1741,-1.202,-1.2158,-1.2062,-1.2475,-1.2629,-1.2418,-1.2954,-1.3287,-1.3433,-1.3539,-1.3758,-1.4066,-1.4066,-1.3863,-1.3455,-1.2961,-1.2596,-1.2272,-1.1922,-1.1831,-1.1825,-1.1823,-1.1806,0.0,0.0,0.0,0.0,0.0,0.0,0.0,-1.0992,-1.0968,-1.0968,-1.0821,-1.0911,-1.1126,-1.1619,-1.2239,-1.3018,-1.4196,-1.6008,-1.777,-1.8761,-1.9313,-1.9638,-1.9711,-1.9841,-1.9906,-1.976,-1.9849,-2.0014,-2.0055,-2.0825,-2.1653,-2.2223,-2.2919,-2.3725,-2.4566,-2.6056,-2.7535,-2.8774,-3.1188,-3.3112,-3.4102,-3.4866,-3.5284,-3.5211,-3.4929,-3.4768,-3.471,-3.471,-3.471,-3.471,-3.471,-3.471,-3.471,-3.471,-3.471,-3.471,-3.5064,-3.5416,-3.5797,-3.587,-3.5899,-3.5914,-3.6114,-3.6217,-3.6246,-3.6509,-3.6597,-3.6597,-3.6597,-3.6597,-3.6597,0.0,0.0,0.0,0.0,0.0,0.0,0.0,0.0,0.0,0.0,0.0,0.0,0.0,0.0,0.0,0.0,0.0,0.0,0.0,0.0,-1.1679,-1.1806,-1.2036,-1.2093,-1.1914,-1.2174,-1.2223,-1.2052,-1.2499,-1.2897,-1.3246,-1.348,-1.3844,-1.4294,-1.4213,-1.3977,-1.3569,-1.297,-1.2548,-1.2272,-1.1922,-1.1825,-1.189,-1.1809,-1.1806,-1.1806,-1.1806,0.0,0.0,0.0,0.0,0.0,0.0,0.0,-1.0992,-1.0948,-1.1013,-1.1208,-1.1752,-1.2483,-1.3514,-1.5254,-1.6901,-1.8233,-1.8996,-1.9394,-1.9687,-1.9768,-2.0003,-2.0158,-2.006,-2.0125,-2.019,-2.019,-2.0605,-2.1148,-2.1664,-2.2328,-2.3053,-2.3941,-2.5964,-2.7744,-2.8963,-3.1387,-3.3221,-3.418,-3.4692,-3.4944,-3.4944,-3.4797,-3.4636,-3.4475,-3.4475,-3.4475,-3.4475,-3.4475,-3.4549,-3.471,-3.471,-3.471,-3.471,-3.5064,-3.5299,-3.5489,-3.5636,-3.5694,-3.5709,-3.5983,-3.6114,-3.6144,-3.648,-3.6597,-3.6597,-3.6597,-3.6597,-3.6597,0.0,0.0,0.0,0.0,0.0,0.0,0.0,0.0,0.0,0.0,0.0,0.0,0.0,0.0,0.0,0.0,0.0,0.0,0.0,0.0,0.0,-1.1806,-1.1939,-1.1947,-1.1815,-1.1947,-1.1916,-1.1806,-1.2166,-1.2621,-1.3149,-1.3512,-1.3966,-1.4435,-1.4302,-1.401,-1.3561,-1.2873,-1.2442,-1.2231,-1.1906,-1.1857,-1.194,-1.1833,-1.1806,-1.1806,-1.1806,-1.1806,-1.1782,-1.1598,0.0,0.0,0.0,0.0,-1.1106,-1.1151,-1.1171,-1.1309,-1.1851,-1.2848,-1.4233,-1.6367,-1.7604,-1.8502,-1.9297,-1.9519,-1.9624,-1.9854,-2.0055,-2.0231,-2.0231,-2.0283,-2.0326,-2.0326,-2.043,-2.0689,-2.1311,-2.1828,-2.2539,-2.3559,-2.5852,-2.7904,-2.9234,-3.1438,-3.3181,-3.4107,-3.4468,-3.4622,-3.4622,-3.4563,-3.4417,-3.4139,-3.4139,-3.4139,-3.4139,-3.4139,-3.4271,-3.4534,-3.4592,-3.4651,-3.471,-3.5006,-3.509,-3.5119,-3.5416,-3.5533,-3.5562,-3.588,-3.6041,-3.607,-3.6451,-3.6597,-3.6597,-3.6597,-3.6597,-3.6597,0.0,0.0,0.0,0.0,0.0,0.0,0.0,0.0,0.0,0.0,-1.0688,-1.078,0.0,0.0,0.0,0.0,0.0,0.0,0.0,0.0,0.0,-1.1806,-1.1939,-1.1947,-1.1815,-1.1947,-1.1916,-1.1806,-1.2311,-1.2841,-1.3378,-1.3863,-1.431,-1.4667,-1.4481,-1.4079,-1.3561,-1.2873,-1.2369,-1.2021,-1.1857,-1.1823,-1.1809,-1.1815,-1.1806,-1.1806,-1.1806,-1.1806,-1.1806,-1.1782,-1.1774,0.0,0.0,0.0,-1.137,-1.1114,-1.111,-1.1309,-1.1851,-1.3447,-1.5331,-1.6843,-1.7947,-1.8883,-1.985,-2.0021,-1.9982,-2.0175,-2.0023,-1.9857,-1.9857,-2.0265,-2.057,-2.057,-2.0968,-2.1425,-2.1983,-2.254,-2.344,-2.492,-2.6671,-2.8259,-2.9506,-3.1575,-3.2941,-3.3341,-3.3948,-3.4285,-3.4285,-3.3976,-3.3801,-3.3757,-3.3757,-3.3757,-3.3757,-3.3757,-3.3771,-3.3815,-3.4154,-3.4432,-3.471,-3.4753,-3.4768,-3.4768,-3.4812,-3.4827,-3.4871,-3.5518,-3.5753,-3.5811,-3.6363,-3.6597,-3.6597,-3.6597,-3.6597,-3.6597,0.0,0.0,0.0,0.0,0.0,0.0,0.0,0.0,0.0,0.0,0.0,-1.1021,0.0,0.0,0.0,0.0,0.0,0.0,0.0,0.0,0.0,-1.1806,-1.1849,-1.1849,-1.1806,-1.1849,-1.1849,-1.1806,-1.2336,-1.2922,-1.3539,-1.4383,-1.4797,-1.4838,-1.4554,-1.4103,-1.3569,-1.2945,-1.245,-1.1989,-1.1947,-1.1857,-1.1806,-1.1806,-1.1806,-1.1806,-1.1806,-1.1806,-1.1806,-1.1806,-1.1806,-1.179,-1.1709,0.0,0.0,0.0,-1.1159,-1.1386,-1.2125,-1.3457,-1.4977,-1.6362,-1.7459,-1.8465,-1.9445,-1.9833,-2.0009,-2.0208,-2.0115,-2.0047,-2.0216,-2.0443,-2.0697,-2.1001,-2.1254,-2.1498,-2.17,-2.2457,-2.3516,-2.4993,-2.6606,-2.8322,-3.0187,-3.1468,-3.249,-3.3327,-3.3651,-3.3816,-3.3917,-3.3757,-3.3596,-3.3421,-3.3421,-3.3421,-3.3421,-3.3421,-3.3508,-3.3684,-3.383,-3.4124,-3.4432,-3.4241,-3.4358,-3.4695,-3.4367,-3.4259,-3.4255,-3.4651,-3.4812,-3.4884,-3.5463,-3.5706,-3.5706,-3.5706,-3.5706,-3.5706,0.0,0.0,0.0,0.0,0.0,0.0,0.0,0.0,0.0,0.0,0.0,0.0,0.0,0.0,0.0,0.0,0.0,0.0,0.0,0.0,0.0,-1.1806,-1.1806,-1.1806,-1.1806,-1.1806,-1.1806,-1.1806,-1.2385,-1.3003,-1.3698,-1.4719,-1.5236,-1.5228,-1.4862,-1.4322,-1.3706,-1.3115,-1.2556,-1.2062,-1.2021,-1.1955,-1.1841,-1.1841,-1.1841,-1.1841,-1.1841,-1.1839,-1.1806,-1.1806,-1.1806,-1.1806,-1.1806,-1.1709,0.0,0.0,0.0,-1.1516,-1.2262,-1.3283,-1.4455,-1.5812,-1.7039,-1.8269,-1.9571,-2.0025,-2.0321,-2.0848,-2.0751,-2.0703,-2.1138,-2.1136,-2.1256,-2.1754,-2.1953,-2.2053,-2.2053,-2.2888,-2.3918,-2.5165,-2.6603,-2.8272,-3.0316,-3.1106,-3.1873,-3.2909,-3.3147,-3.3329,-3.3464,-3.3407,-3.3172,-3.2836,-3.2909,-3.2953,-3.2953,-3.3085,-3.3245,-3.3567,-3.3431,-3.3545,-3.3896,-3.3599,-3.3649,-3.4017,-3.3707,-3.3563,-3.3535,-3.3643,-3.3699,-3.3754,-3.4363,-3.4612,-3.4612,-3.4612,-3.4612,-3.4612,0.0,0.0,0.0,0.0,0.0,0.0,0.0,0.0,0.0,0.0,0.0,0.0,-1.1468,-1.1492,-1.1573,-1.1774,-1.1798,0.0,0.0,0.0,0.0,-1.1806,-1.1806,0.0,-1.1806,-1.1806,-1.1806,-1.1806,-1.2443,-1.3156,-1.3904,-1.4776,-1.5464,-1.5934,-1.5578,-1.4976,-1.4107,-1.3384,-1.2775,-1.228,-1.207,-1.1989,-1.1989,-1.1989,-1.1989,-1.1989,-1.1989,-1.1914,-1.1806,-1.1806,-1.1806,-1.1806,-1.1806,-1.1798,-1.1727,0.0,0.0,0.0,-1.1973,-1.2947,-1.4241,-1.5642,-1.7195,-1.8899,-2.0922,-2.1194,-2.1409,-2.2683,-2.2222,-2.1918,-2.279,-2.2685,-2.2545,-2.3011,-2.3544,-2.3877,-2.3877,-2.4351,-2.5108,-2.6113,-2.7157,-2.8187,-2.9305,-3.028,-3.1066,-3.1592,-3.2197,-3.2621,-3.2837,-3.2573,-3.2207,-3.1885,-3.2178,-3.2339,-3.2339,-3.2646,-3.2954,-3.3216,-3.2781,-3.2758,-3.3059,-3.2838,-3.2515,-3.2184,-3.2589,-3.2663,-3.2463,-3.2533,-3.2581,-3.2648,-3.3236,-3.3464,-3.3464,-3.3464,-3.3464,-3.3464,0.0,0.0,0.0,0.0,0.0,0.0,0.0,0.0,0.0,0.0,0.0,0.0,0.0,-1.1679,-1.1733,-1.1798,-1.1806,0.0,0.0,0.0,0.0,-1.1806,-1.1806,-1.1806,-1.1806,-1.1806,-1.1806,-1.1806,-1.2401,-1.297,-1.3587,-1.467,-1.5367,-1.5667,-1.5691,-1.5348,-1.4681,-1.4042,-1.3409,-1.28,-1.2588,-1.2443,-1.2401,-1.2401,-1.2442,-1.2499,-1.2418,-1.2368,-1.2295,-1.2158,-1.2036,-1.1939,-1.1939,-1.1866,-1.1774,-1.1557,-1.1549,-1.1638,-1.1817,-1.2729,-1.3806,-1.4865,-1.636,-1.8009,-1.9715,-2.0744,-2.1702,-2.291,-2.3245,-2.3574,-2.4442,-2.3908,-2.3489,-2.3999,-2.4241,-2.4434,-2.4642,-2.5084,-2.5886,-2.7133,-2.7858,-2.879,-3.0135,-3.0287,-3.0589,-3.1301,-3.1612,-3.185,-3.2135,-3.2032,-3.1915,-3.1798,-3.1915,-3.2076,-3.228,-3.2398,-3.2441,-3.2405,-3.1944,-3.1741,-3.1732,-3.1007,-3.0617,-3.0507,-2.9977,-3.0192,-3.0869,-3.0438,-3.0362,-3.0563,-3.0939,-3.119,-3.1353,-3.1353,-3.1353,-3.1353,0.0,0.0,0.0,0.0,0.0,0.0,0.0,0.0,0.0,-1.179,0.0,0.0,0.0,0.0,-1.189,-1.1947,-1.1955,-1.1931,-1.1866,-1.1857,-1.1833,-1.1806,-1.1806,-1.1806,-1.1806,-1.1806,-1.1806,-1.1806,-1.2279,-1.2784,-1.3337,-1.4375,-1.5041,-1.5342,-1.5512,-1.5397,-1.4966,-1.4436,-1.3798,-1.3173,-1.2994,-1.2848,-1.2784,-1.2841,-1.2913,-1.3003,-1.2914,-1.2824,-1.2735,-1.2475,-1.2312,-1.219,-1.2038,-1.1914,-1.1782,-1.163,-1.1589,-1.1622,-1.1774,-1.2509,-1.3464,-1.4268,-1.574,-1.7404,-1.8998,-2.0394,-2.1724,-2.3067,-2.3802,-2.4531,-2.5388,-2.5194,-2.4989,-2.5341,-2.5376,-2.5444,-2.5616,-2.5958,-2.6563,-2.7622,-2.8012,-2.865,-2.9832,-2.9663,-2.9718,-3.0489,-3.0668,-3.0972,-3.1366,-3.138,-3.1466,-3.1637,-3.1637,-3.1841,-3.228,-3.215,-3.1959,-3.1788,-3.0973,-3.0487,-3.0194,-2.9331,-2.8888,-2.8783,-2.8056,-2.8379,-2.9292,-2.874,-2.8614,-2.8816,-2.911,-2.9347,-2.9564,-2.9647,-2.9631,-2.9631,0.0,0.0,0.0,0.0,0.0,0.0,0.0,0.0,-1.1806,-1.1806,0.0,0.0,0.0,0.0,0.0,-1.2296,-1.2312,-1.2231,-1.2021,-1.2005,-1.1963,-1.1831,0.0,0.0,-1.1823,-1.1823,-1.1823,-1.1815,-1.2134,-1.2572,-1.3084,-1.3815,-1.4469,-1.4974,-1.5122,-1.5106,-1.4941,-1.4445,-1.3923,-1.341,-1.3197,-1.3124,-1.3157,-1.337,-1.3443,-1.3451,-1.3443,-1.3329,0.0,-1.2759,0.0,0.0,0.0,0.0,0.0,0.0,0.0,-1.1806,0.0,0.0,0.0,-1.3957,-1.5426,-1.7124,-1.8997,-2.0199,-2.1441,-2.3181,-2.3967,-2.4644,-2.5694,-2.6491,-2.6955,-2.6922,-2.6884,-2.6909,-2.6921,-2.6921,-2.7097,-2.7566,-2.7635,-2.781,-2.8278,-2.8321,-2.8496,-2.8948,-2.9439,-2.9964,-3.0552,-3.058,-3.0792,-3.1258,-3.13,-3.1607,-3.2266,-3.183,-3.1461,-3.1226,-2.9855,-2.8912,-2.8417,-2.7928,-2.7426,-2.6935,-2.703,-2.7308,-2.7718,-2.7536,-2.7455,-2.7501,-2.7942,-2.8136,-2.817,-2.8433,-2.8535,-2.8535,0.0,0.0,0.0,0.0,0.0,0.0,-1.1798,-1.1806,-1.1806,0.0,0.0,0.0,-1.1997,-1.2119,-1.2304,-1.2507,-1.2377,-1.2288,-1.2231,-1.2231,-1.2207,-1.2166,-1.2158,-1.2158,-1.2158,-1.2158,-1.2093,-1.1932,-1.219,-1.2385,-1.254,-1.3288,-1.3742,-1.399,-1.4335,-1.4367,-1.4213,-1.4456,-1.4326,-1.3989,-1.3932,-1.3953,-1.4066,-1.4115,-1.4302,-1.4542,-1.4383,-1.4221,-1.401,0.0,-1.3271,-1.2865,0.0,0.0,0.0,0.0,0.0,0.0,-1.1806,0.0,0.0,0.0,0.0,0.0,-1.677,-1.848,-2.038,-2.2214,-2.3605,-2.4817,-2.578,-2.6453,-2.6863,-2.6813,-2.7094,-2.7401,-2.7607,-2.7633,-2.7753,-2.8077,-2.8422,-2.8653,-2.877,-2.8814,-2.8895,-2.9197,-2.9355,-2.9517,-2.9804,-3.0126,-3.0392,-3.0518,-3.0796,-3.1271,-3.1929,-3.1455,-3.0942,-3.0289,-2.9214,-2.8043,-2.6903,-2.6353,-2.6079,-2.5913,-2.5939,-2.6003,-2.6148,-2.608,-2.6163,-2.6349,-2.6655,-2.6885,-2.7061,-2.7261,-2.736,-2.736,0.0,0.0,0.0,0.0,0.0,-1.1906,-1.1987,-1.1996,-1.1996,0.0,0.0,0.0,-1.2564,-1.2751,-1.2873,-1.293,-1.2735,-1.2572,-1.2426,-1.245,-1.2385,-1.2312,-1.2304,-1.2304,-1.2304,-1.2304,-1.2255,-1.2142,-1.2255,-1.2345,-1.2426,-1.2913,-1.3246,-1.3425,-1.3717,-1.3818,-1.3709,-1.4172,-1.4253,-1.4075,-1.4221,-1.4391,-1.4533,-1.4759,-1.5009,-1.5195,-1.5163,0.0,-1.4911,-1.4408,-1.3725,0.0,0.0,0.0,0.0,0.0,0.0,0.0,0.0,0.0,0.0,-1.2787,0.0,0.0,-1.5463,-1.7043,-1.8784,-2.0408,-2.1984,-2.3432,-2.4418,-2.5084,-2.5635,-2.6123,-2.6555,-2.7022,-2.7714,-2.7836,-2.7941,-2.8231,-2.8486,-2.8671,-2.8671,-2.8671,-2.8719,-2.8842,-2.8829,-2.8959,-2.9202,-2.9663,-2.9914,-2.9914,-3.0332,-3.0703,-3.1023,-3.0694,-3.0046,-2.912,-2.8083,-2.6924,-2.5662,-2.5275,-2.5133,-2.5206,-2.5349,-2.5432,-2.5518,-2.5518,-2.5604,-2.5755,-2.6099,-2.6315,-2.6476,-2.677,-2.6899,-2.6899,0.0,0.0,-1.1833,-1.1973,-1.2013,-1.2094,-1.2304,-1.2353,-1.2369,0.0,-1.2613,-1.2946,-1.3467,-1.3561,-1.3569,-1.3417,-1.3214,-1.2954,-1.2645,-1.2629,-1.2523,-1.2369,-1.2369,-1.2369,-1.2369,-1.2369,-1.2353,-1.2337,-1.2337,-1.2402,-1.2572,-1.2718,-1.2856,-1.3043,-1.3264,-1.3345,-1.337,-1.3693,-1.3863,-1.3937,-1.4298,-1.4627,-1.4887,-1.5407,-1.5618,-1.5658,-1.5853,-1.5926,-1.5764,-1.4984,-1.4058,0.0,0.0,0.0,0.0,0.0,-1.2337,0.0,0.0,0.0,0.0,0.0,-1.3272,0.0,-1.4721,-1.577,-1.6953,-1.8195,-1.9624,-2.0966,-2.2041,-2.2817,-2.3614,-2.4752,-2.5231,-2.5963,-2.7386,-2.7629,-2.7791,-2.8058,-2.8085,-2.8098,-2.8138,-2.8138,-2.8152,-2.8179,-2.8179,-2.8361,-2.8697,-2.9146,-2.9398,-2.9398,-2.9872,-3.007,-2.9901,-2.9662,-2.8947,-2.7763,-2.6656,-2.556,-2.4555,-2.4391,-2.443,-2.4634,-2.4938,-2.5201,-2.5346,-2.5416,-2.5496,-2.5572,-2.5996,-2.6189,-2.6243,-2.6727,-2.6899,-2.6899,0.0,0.0,-1.1833,-1.1973,-1.2119,-1.2312,-1.2515,-1.2637,-1.275,-1.2921,-1.3352,-1.379,-1.4144,-1.4002,-1.3782,-1.3569,-1.3287,-1.3003,-1.2767,-1.275,-1.2734,-1.2702,-1.2702,-1.2702,-1.2702,-1.2702,-1.2661,-1.2547,-1.2547,-1.249,-1.2361,-1.2532,-1.267,-1.271,-1.2856,-1.2904,-1.2929,-1.3319,-1.3644,-1.3953,-1.4603,-1.5186,-1.565,-1.5999,-1.6243,-1.6414,-1.6738,-1.6568,-1.6064,-1.5243,-1.4534,-1.3912,0.0,0.0,0.0,-1.2702,0.0,0.0,0.0,0.0,0.0,0.0,-1.2714,0.0,-1.3682,-1.4521,-1.5524,-1.668,-1.7714,-1.8626,-1.934,-2.0345,-2.1253,-2.1989,-2.2729,-2.4111,-2.6613,-2.7201,-2.7416,-2.7469,-2.7483,-2.7563,-2.7762,-2.7789,-2.7924,-2.8165,-2.8179,-2.8221,-2.8305,-2.8697,-2.895,-2.895,-2.9411,-2.9551,-2.9446,-2.8885,-2.7806,-2.6292,-2.5479,-2.4372,-2.3051,-2.3195,-2.3318,-2.3369,-2.402,-2.4335,-2.4435,-2.5019,-2.5356,-2.5572,-2.5996,-2.6189,-2.6243,-2.6727,-2.6899,-2.6899,-1.1806,-1.1841,-1.1987,-1.2247,-1.245,-1.2661,-1.3051,-1.3147,-1.3301,-1.3604,-1.418,-1.4638,-1.4905,-1.4695,-1.4387,-1.403,-1.3701,-1.3344,-1.2953,-1.2962,-1.2896,-1.2807,-1.2807,-1.2807,-1.2807,-1.2807,-1.2759,-1.2702,-1.2702,-1.2653,-1.254,-1.2661,-1.2702,-1.2702,-1.2767,-1.2848,-1.2986,-1.3254,-1.3663,-1.4091,-1.4754,-1.5332,-1.5861,-1.6267,-1.6609,-1.6877,-1.7153,-1.6901,-1.6349,-1.5715,-1.5033,0.0,-1.4087,-1.369,-1.3318,0.0,-1.3083,-1.2921,0.0,0.0,0.0,-1.2816,0.0,0.0,0.0,-1.364,-1.4147,-1.5012,-1.5753,-1.6392,-1.6956,-1.7761,-1.8652,-1.9496,-2.0402,-2.169,-2.3694,-2.5218,-2.6348,-2.68,-2.6961,-2.7094,-2.7241,-2.7402,-2.759,-2.7737,-2.7884,-2.7965,-2.7965,-2.8322,-2.8487,-2.8487,-2.8684,-2.8541,-2.8066,-2.7396,-2.6353,-2.4933,-2.4247,-2.3487,-2.259,-2.2758,-2.2859,-2.3017,-2.3645,-2.3994,-2.4167,-2.4886,-2.5249,-2.541,-2.6002,-2.6189,-2.6243,-2.6727,-2.6899,-2.6899,-1.1806,-1.1914,-1.2102,-1.249,-1.2718,-1.3026,-1.3528,-1.3698,-1.3925,-1.4424,-1.5017,-1.5416,-1.5561,-1.5416,-1.5067,-1.45,-1.4164,-1.3742,-1.323,-1.3133,-1.3035,-1.2856,-1.2823,-1.2807,-1.2807,-1.2807,-1.2807,-1.2807,-1.2807,-1.2807,-1.2807,-1.2807,-1.2807,-1.2807,-1.284,-1.2962,-1.3108,-1.3368,-1.3785,-1.4265,-1.4827,-1.5342,-1.5886,-1.6462,-1.6885,-1.7185,-1.7331,-1.7088,-1.6625,-1.6185,-1.5505,-1.483,-1.4606,-1.4306,0.0,0.0,0.0,0.0,0.0,0.0,0.0,0.0,0.0,-1.2841,0.0,0.0,0.0,-1.3637,-1.4026,-1.4401,-1.4796,-1.5368,-1.6127,-1.7248,-1.8128,-1.9152,-2.0356,-2.2398,-2.4262,-2.5595,-2.6069,-2.6308,-2.6441,-2.6854,-2.7135,-2.7135,-2.7362,-2.7535,-2.7535,-2.7827,-2.7972,-2.7972,-2.7815,-2.7292,-2.6401,-2.5632,-2.4663,-2.3453,-2.2813,-2.2368,-2.2037,-2.2129,-2.2265,-2.2526,-2.3086,-2.3515,-2.3842,-2.4552,-2.4918,-2.503,-2.5835,-2.6196,-2.6232,-2.6673,-2.6856,-2.6899,-1.1806,-1.1914,-1.2062,-1.2304,-1.2743,-1.3197,-1.3552,-1.4006,-1.4606,-1.548,-1.5804,-1.5926,-1.5942,-1.5821,-1.5431,-1.4741,-1.4351,-1.3985,-1.3569,-1.3279,-1.3084,-1.3068,-1.2888,-1.2807,-1.2807,-1.2807,-1.2807,-1.2807,-1.2807,-1.2807,-1.2807,-1.2807,-1.2807,-1.2807,-1.2994,-1.3076,-1.3124,-1.3628,-1.3969,-1.4274,-1.4927,-1.5489,-1.6047,-1.6787,-1.7177,-1.7364,-1.738,-1.7242,-1.6974,0.0,-1.5894,-1.5351,0.0,-1.4865,-1.4578,-1.4354,0.0,0.0,0.0,0.0,0.0,0.0,-1.3441,0.0,0.0,0.0,-1.3014,-1.3084,0.0,-1.3154,-1.3023,0.0,0.0,-1.5188,-1.5831,-1.6753,-1.8316,-1.8946,-2.0274,-2.3067,-2.3946,-2.4558,-2.5138,-2.6002,-2.6493,-2.6493,-2.676,-2.688,-2.688,-2.7043,-2.7137,-2.7137,-2.6614,-2.5878,-2.494,-2.3858,-2.2698,-2.1502,-2.0769,-2.0299,-2.0046,-2.0455,-2.0649,-2.077,-2.1706,-2.2374,-2.2794,-2.3293,-2.3751,-2.4251,-2.5479,-2.6046,-2.6222,-2.653,-2.6767,-2.6899,-1.1823,-1.2004,0.0,-1.2426,-1.2808,-1.3254,-1.3725,-1.4476,-1.5268,-1.5853,-1.6357,-1.6623,-1.6623,-1.6592,-1.63,-1.5683,-1.5309,-1.4822,-1.4111,-1.3863,-1.3579,-1.3305,-1.3181,0.0,-1.2986,-1.2986,-1.2904,-1.2807,-1.2807,-1.2807,-1.2807,-1.2807,-1.2856,-1.2994,-1.3173,-1.3467,-1.3742,-1.4075,-1.4497,-1.5,-1.5464,-1.5991,-1.6501,-1.6801,-1.7222,-1.7681,-1.7575,-1.7421,-1.7201,0.0,-1.629,0.0,0.0,0.0,0.0,-1.4946,0.0,0.0,0.0,0.0,0.0,0.0,0.0,0.0,-1.3375,0.0,-1.278,0.0,0.0,0.0,0.0,0.0,0.0,0.0,-1.4176,-1.4833,-1.5746,-1.6287,-1.7751,-2.0896,-2.2102,-2.3151,-2.4357,-2.4997,-2.5257,-2.5066,-2.545,-2.5662,-2.5635,-2.6148,-2.6377,-2.6238,-2.5616,-2.4854,-2.3966,-2.2372,-2.1271,-2.0613,-1.9879,-1.9533,-1.9545,-1.9844,-2.013,-2.0455,-2.1195,-2.1828,-2.243,-2.3021,-2.346,-2.3861,-2.4525,-2.5204,-2.5811,-2.6044,-2.648,-2.6847,-1.1947,0.0,-1.2418,-1.2572,-1.2889,-1.3327,-1.4018,-1.4911,-1.5659,-1.6161,-1.676,-1.7226,-1.7323,-1.7372,-1.7201,-1.6714,-1.6341,-1.578,-1.4889,-1.457,-1.4208,0.0,0.0,0.0,0.0,0.0,0.0,-1.2872,-1.2823,-1.2807,-1.2807,-1.2807,-1.2896,-1.3108,-1.3427,-1.379,-1.427,-1.4557,-1.5051,-1.5651,-1.6007,-1.6534,-1.7101,-1.7101,-1.7449,-1.7965,-1.7732,-1.7575,-1.7339,-1.6987,-1.6682,0.0,-1.6193,-1.6064,-1.5853,0.0,0.0,0.0,-1.5163,0.0,0.0,0.0,0.0,0.0,0.0,0.0,0.0,0.0,0.0,0.0,0.0,0.0,0.0,0.0,0.0,-1.3402,-1.3721,-1.4317,-1.5794,-1.8596,-2.0211,-2.1719,-2.3342,-2.3793,-2.3902,-2.3648,-2.4147,-2.4402,-2.4342,-2.5077,-2.537,-2.5126,-2.4402,-2.3587,-2.2632,-2.0892,-1.9874,-1.9603,-1.8945,-1.8776,-1.9009,-1.9294,-1.9622,-2.0037,-2.0686,-2.1356,-2.2043,-2.2635,-2.3091,-2.3407,-2.353,-2.4185,-2.51,-2.5567,-2.602,-2.6437,-1.2288,-1.2466,-1.2588,-1.2596,-1.2889,-1.3449,-1.4521,-1.5155,-1.5788,-1.6671,-1.7145,-1.751,-1.7851,-1.8038,-1.7989,-1.7587,-1.723,-1.6763,-1.5999,-1.5333,-1.4781,0.0,0.0,-1.3807,0.0,0.0,0.0,-1.3084,-1.2888,-1.2807,-1.2807,-1.2807,-1.2896,-1.3116,-1.3652,-1.4083,-1.4435,-1.514,-1.5651,-1.6023,-1.6422,-1.7096,-1.7838,-1.7838,-1.7997,-1.8144,-1.7973,0.0,0.0,-1.7169,-1.6868,0.0,0.0,0.0,0.0,0.0,0.0,0.0,0.0,0.0,0.0,-1.508,0.0,0.0,0.0,0.0,-1.3076,0.0,0.0,0.0,0.0,0.0,0.0,0.0,0.0,0.0,0.0,-1.3222,-1.422,-1.6,-1.8216,-2.0178,-2.1725,-2.2238,-2.2479,-2.2444,-2.2958,-2.3222,-2.3166,-2.3781,-2.3986,-2.3587,-2.2796,-2.183,-2.0718,-1.9292,-1.8435,-1.8182,-1.77,-1.762,-1.7962,-1.8467,-1.8799,-1.9023,-1.9991,-2.0853,-2.1536,-2.1754,-2.224,-2.278,-2.2556,-2.3038,-2.3966,-2.5089,-2.5428,-2.5398,0.0,0.0,-1.271,-1.2621,-1.2889,-1.3457,-1.4546,-1.5327,-1.6145,-1.7088,-1.7827,-1.8412,-1.8769,-1.9069,-1.9142,-1.8899,-1.8452,-1.7875,-1.7109,-1.643,0.0,0.0,0.0,-1.4614,0.0,0.0,0.0,-1.3423,-1.3279,-1.3189,-1.3189,-1.3189,-1.3344,-1.3644,-1.4066,-1.4549,-1.5187,-1.578,-1.6381,-1.6982,-1.7628,-1.807,-1.8428,-1.8176,-1.82,-1.8369,-1.8022,-1.7843,0.0,-1.7481,-1.7307,-1.7096,-1.6974,-1.6812,-1.6566,-1.6266,-1.617,-1.6113,0.0,0.0,-1.5626,-1.539,0.0,0.0,0.0,0.0,0.0,0.0,0.0,0.0,0.0,0.0,0.0,0.0,0.0,0.0,0.0,-1.246,-1.3148,-1.4541,-1.6615,-1.8446,-1.977,-2.0233,-2.0402,-2.0156,-2.0703,-2.0938,-2.078,-2.2048,-2.2651,-2.2457,-2.2332,-2.1755,-2.0598,-1.9214,-1.8287,-1.7915,-1.7554,-1.7453,-1.7567,-1.7862,-1.8247,-1.879,-1.9104,-1.9774,-2.0634,-2.0697,-2.1018,-2.1512,-2.1771,-2.2246,-2.286,-2.3966,-2.4759,-2.5244,-1.2702,-1.2808,-1.2873,-1.2694,-1.3011,-1.3628,-1.4643,-1.5561,-1.6503,-1.7534,-1.8444,-1.9191,-1.9729,-2.0052,-2.0214,-2.0093,-1.9662,-1.9086,-1.8308,-1.764,0.0,-1.6462,-1.5999,0.0,0.0,0.0,0.0,0.0,-1.3709,-1.353,-1.3465,-1.3435,-1.3598,-1.392,-1.4343,-1.4935,-1.5642,-1.6243,-1.6917,-1.764,-1.8402,-1.8712,-1.8793,-1.855,-1.8508,-1.8467,0.0,-1.803,-1.79,-1.7732,-1.7624,-1.7445,-1.7266,-1.7088,-1.6841,-1.6542,-1.6454,-1.6397,-1.6397,-1.6235,0.0,-1.5764,-1.5213,0.0,-1.4513,0.0,-1.3917,0.0,0.0,0.0,0.0,0.0,0.0,0.0,0.0,0.0,0.0,-1.2225,-1.2717,-1.3794,-1.5294,-1.6679,-1.788,-1.8457,-1.8652,-1.8448,-1.9069,-1.9409,-1.9324,-2.0688,-2.1376,-2.1155,-2.1417,-2.0952,-1.9755,-1.8741,-1.8042,-1.7559,-1.7367,-1.7323,-1.7396,-1.7559,-1.7874,-1.8421,-1.8673,-1.921,-1.9958,-2.015,-2.0426,-2.0826,-2.1161,-2.1659,-2.2305,-2.3413,-2.4191,-2.4564,-1.2864,-1.3011,-1.3092,-1.2921,-1.3318,-1.3957,-1.4925,-1.5788,-1.682,-1.8109,-1.9013,-1.9841,-2.0572,-2.097,-2.1127,-2.1127,-2.0856,-2.0344,-1.9622,-1.8972,0.0,0.0,-1.7173,-1.6712,-1.6381,0.0,0.0,0.0,-1.4213,-1.3855,-1.3633,-1.349,-1.3595,-1.3953,-1.4481,-1.5114,-1.5837,-1.6517,-1.7246,-1.8014,-1.8712,-1.8996,-1.8996,-1.8988,-1.8817,-1.8516,-1.8499,-1.8225,-1.7932,-1.7932,-1.7765,-1.7578,-1.7461,-1.7283,-1.7088,-1.6874,-1.6738,-1.6592,-1.6592,-1.6627,-1.6503,-1.6112,-1.5764,0.0,0.0,0.0,-1.4444,0.0,0.0,0.0,0.0,0.0,0.0,0.0,0.0,0.0,0.0,0.0,-1.2823,-1.3653,-1.4221,-1.5003,-1.6229,-1.6909,-1.7299,-1.7299,-1.8041,-1.8541,-1.8675,-1.9653,-2.0084,-1.9779,-2.0059,-1.9584,-1.8268,-1.7991,-1.7603,-1.7112,-1.7112,-1.7201,-1.738,-1.7551,-1.7684,-1.7916,-1.8559,-1.9086,-1.9471,-1.9958,-2.0369,-2.071,-2.0776,-2.137,-2.2324,-2.3341,-2.3651,-2.3479,-1.3246,-1.3482,-1.3807,-1.4164,-1.4343,-1.4732,-1.5594,-1.6598,-1.7705,-1.8882,-1.976,-2.0588,-2.1357,-2.1701,-2.1912,-2.1912,-2.1595,-2.1195,-2.06,0.0,0.0,-1.8866,-1.833,-1.7811,-1.7263,-1.6649,0.0,-1.5309,0.0,-1.451,-1.4042,-1.3993,-1.4083,-1.4273,-1.4716,-1.5301,-1.5983,-1.6738,-1.757,-1.8558,-1.9004,-1.924,-1.9224,0.0,-1.8842,-1.8639,-1.8548,-1.8353,-1.8111,-1.8111,-1.7989,-1.7843,-1.7794,-1.7567,-1.7283,-1.7096,-1.6874,-1.6744,-1.6744,-1.6682,-1.656,-1.647,-1.6178,-1.5804,0.0,0.0,0.0,0.0,0.0,0.0,0.0,0.0,0.0,0.0,0.0,0.0,0.0,0.0,0.0,-1.3326,-1.3416,-1.3952,-1.5288,-1.5535,-1.5738,-1.5982,-1.654,-1.6954,-1.7075,-1.84,-1.9281,-1.9416,-1.9988,-1.9839,-1.8949,-1.8532,-1.7902,-1.7112,-1.7112,-1.7136,-1.7185,-1.7372,-1.7551,-1.7676,-1.8,-1.8379,-1.8771,-1.8998,-1.9237,-1.9518,-2.0189,-2.0981,-2.1949,-2.2751,-2.3025,-2.2858,-1.3522,-1.3904,-1.4448,-1.5065,-1.5496,-1.5926,-1.6388,-1.7356,-1.8387,-1.9517,-2.0385,-2.1181,-2.1831,-2.2212,-2.2448,-2.2529,-2.2294,-2.1936,-2.1528,0.0,0.0,-2.003,-1.9485,-1.8907,-1.8241,-1.7526,0.0,-1.5861,0.0,-1.4895,-1.4286,-1.4213,-1.427,-1.4411,-1.4806,-1.5366,-1.6064,-1.7063,-1.7908,-1.8639,-1.9045,-1.9232,0.0,-1.9102,-1.8874,-1.8704,-1.8565,-1.8377,-1.8223,-1.8223,-1.8111,-1.8014,-1.794,-1.7778,-1.7567,-1.7307,-1.7161,-1.7028,-1.6947,-1.6893,-1.6795,-1.6722,-1.6509,-1.629,-1.6064,-1.5869,-1.5659,0.0,-1.5204,-1.4917,0.0,0.0,0.0,0.0,0.0,0.0,0.0,0.0,0.0,0.0,-1.3078,-1.3388,-1.4335,-1.4568,-1.4781,-1.5083,-1.5719,-1.616,-1.6327,-1.7433,-1.816,-1.8288,-1.8941,-1.9011,-1.8461,-1.8296,-1.7856,-1.7226,-1.7153,-1.7153,-1.7242,-1.7413,-1.7591,-1.7724,-1.7949,-1.8233,-1.8582,-1.868,-1.8874,-1.9241,-2.01,-2.0773,-2.1301,-2.188,-2.208,-2.2029,-1.3941,-1.4419,-1.5139,-1.5861,-1.6722,-1.7372,-1.751,-1.8223,-1.9086,-2.012,-2.0954,-2.1684,-2.2212,-2.257,-2.2846,-2.3016,-2.2895,-2.2635,-2.2253,-2.1993,-2.1569,-2.0999,-2.0478,-1.9867,-1.9102,-1.8363,-1.7461,0.0,-1.5821,-1.5163,-1.4387,-1.4261,-1.4253,-1.4379,-1.4773,-1.5374,-1.6153,-1.7335,-1.8087,-1.8491,-1.885,-1.9045,-1.9216,-1.9029,-1.8818,-1.8671,-1.8556,-1.8377,-1.8223,-1.8223,-1.8223,-1.8152,-1.7997,-1.7932,-1.7859,-1.7551,-1.7421,-1.7348,-1.7193,-1.7128,-1.7071,-1.6882,-1.6841,-1.6752,-1.6454,-1.6218,-1.6047,-1.5853,-1.5471,-1.5033,0.0,0.0,0.0,0.0,0.0,0.0,0.0,0.0,0.0,0.0,0.0,0.0,-1.357,-1.3896,-1.4261,-1.459,-1.5309,-1.5857,-1.6075,-1.6716,-1.7054,-1.6964,-1.7542,-1.7785,-1.7526,-1.7694,-1.7651,-1.7388,-1.7201,-1.721,-1.7396,-1.7559,-1.77,-1.7924,-1.8103,-1.8371,-1.8688,-1.8664,-1.8964,-1.9461,-2.0217,-2.0528,-2.0604,-2.0932,-2.1101,-2.1101,-1.535,-1.574,-1.6251,-1.6974,-1.7843,-1.8736,-1.9622,-1.9776,-2.0112,-2.084,-2.1595,-2.2188,-2.2594,-2.296,-2.323,-2.3211,-2.3195,-2.296,-2.2506,0.0,0.0,-2.1319,-2.0975,-2.0429,-1.9662,-1.885,-1.7835,-1.6712,-1.6064,-1.5285,-1.4387,-1.4261,-1.4196,-1.4237,-1.4594,-1.5398,-1.6535,-1.7303,-1.79,-1.8304,-1.8623,-1.8785,-1.8801,-1.8662,-1.8573,-1.854,-1.8508,-1.8377,-1.8223,-1.8223,-1.8223,-1.8168,-1.8135,-1.803,-1.7908,-1.7843,-1.7616,-1.738,-1.7348,-1.7226,-1.7104,-1.7071,-1.7063,-1.6971,-1.676,-1.6696,-1.6534,-1.6056,-1.5885,-1.5666,-1.508,0.0,0.0,0.0,0.0,0.0,0.0,0.0,0.0,0.0,0.0,-1.3176,-1.357,-1.3621,-1.3932,-1.4721,-1.5204,-1.5605,-1.5915,-1.6282,-1.6573,0.0,-1.7092,-1.7424,0.0,0.0,-1.7651,-1.7388,-1.7201,-1.721,-1.7396,-1.7559,-1.77,-1.7924,-1.8103,-1.8345,-1.8556,-1.8663,-1.911,-1.9753,-1.9869,-2.0125,-2.0335,-2.0452,-2.0476,-2.0476,-1.6381,-1.6755,-1.7226,-1.7957,-1.8826,-1.9752,-2.0718,-2.1197,-2.1514,-2.166,-2.2147,-2.257,-2.283,-2.3106,-2.336,-2.3382,-2.3406,-2.3211,-2.2765,-2.274,-2.2424,-2.1701,-2.1319,-2.0804,-1.9955,-1.9053,-1.8062,-1.6947,-1.617,-1.5358,-1.4533,-1.4302,-1.4217,-1.4241,-1.4741,-1.5528,-1.6479,-1.7104,-1.7624,-1.807,-1.8436,-1.8639,-1.8704,-1.8573,-1.8556,-1.8582,-1.8532,-1.8499,-1.8444,-1.8402,-1.8361,-1.8353,-1.8255,-1.8119,-1.803,-1.794,-1.7794,-1.7624,-1.7437,-1.7323,-1.7234,-1.7136,-1.7112,-1.7088,-1.6963,-1.6874,-1.6736,-1.6477,-1.6274,-1.5934,-1.5153,-1.4529,0.0,0.0,0.0,0.0,0.0,0.0,0.0,0.0,0.0,0.0,0.0,-1.3233,-1.3595,-1.4473,-1.4978,-1.5316,-1.5493,-1.5629,-1.5798,0.0,0.0,0.0,-1.7181,0.0,-1.743,-1.7388,-1.7201,-1.7258,-1.7526,-1.7554,-1.7786,-1.8054,-1.8135,-1.833,-1.8615,-1.8891,-1.9256,-1.9654,-1.9752,-1.9955,-2.0198,-2.0288,-2.032,-2.032,-1.7307,-1.7713,-1.82,-1.8891,-1.9752,-2.0645,-2.153,-2.2342,-2.2724,-2.2407,-2.2675,-2.2935,-2.3041,-2.3211,-2.3382,-2.3512,-2.3528,-2.3382,-2.3016,-2.296,-2.2635,-2.1953,-2.1555,-2.097,-2.0198,-1.9256,-1.8265,-1.7226,-1.6292,-1.5463,-1.4757,-1.4399,-1.4253,-1.4318,-1.4913,-1.5578,-1.6284,-1.6868,-1.7421,-1.7949,-1.8312,-1.8548,-1.8647,-1.8508,-1.8485,-1.8598,-1.8533,-1.8606,-1.8704,-1.8558,-1.8532,-1.8467,-1.828,-1.8223,-1.8152,-1.8014,-1.7949,-1.7859,-1.7575,-1.7469,-1.7396,-1.7218,-1.7169,-1.7161,-1.712,-1.6963,-1.6858,-1.6817,-1.6517,-1.6064,-1.5324,-1.4879,0.0,0.0,0.0,0.0,0.0,0.0,0.0,0.0,0.0,0.0,-1.2823,-1.2963,-1.3369,-1.4047,-1.4585,-1.4926,-1.4933,0.0,0.0,0.0,0.0,-1.5959,-1.6576,0.0,-1.7169,-1.7388,-1.7201,-1.7299,-1.7595,-1.7595,-1.7835,-1.8176,-1.8263,-1.8444,-1.8801,-1.9126,-1.9378,-1.9581,-1.9735,-1.9922,-2.0133,-2.0271,-2.032,-2.032,-1.8328,-1.8801,-1.9338,-1.9892,-2.0669,-2.1555,-2.2464,-2.2935,-2.3189,-2.296,-2.3236,-2.3398,-2.3252,-2.3406,-2.3512,-2.3528,-2.3528,-2.3382,-2.3016,-2.2846,-2.2505,-2.1896,-2.1425,-2.0962,-2.0556,-1.95,-1.8509,0.0,-1.6493,-1.565,-1.4974,-1.4578,-1.4497,-1.4676,-1.5027,-1.5513,0.0,-1.6768,-1.7421,-1.7932,-1.8127,-1.8361,-1.8508,-1.832,-1.8255,-1.8265,-1.8582,-1.8712,-1.872,-1.8704,-1.859,-1.8467,-1.828,-1.8223,-1.8223,-1.8198,-1.8038,-1.7908,-1.7875,-1.77,-1.753,-1.7404,-1.7364,-1.7315,-1.7153,-1.7096,-1.7039,-1.6841,-1.6517,-1.6178,-1.5812,-1.5545,-1.5236,0.0,0.0,0.0,0.0,0.0,0.0,0.0,0.0,0.0,-1.2823,-1.3153,-1.3399,-1.348,-1.3917,-1.4254,-1.446,0.0,0.0,-1.4745,-1.5094,-1.5707,-1.6568,-1.6736,-1.7003,-1.7388,-1.7201,-1.7299,-1.7595,-1.7595,-1.7835,-1.8231,-1.8402,-1.8679,-1.8972,-1.9224,-1.9509,-1.9768,-1.9784,-1.9995,-2.0296,-2.0312,-2.032,-2.032,-1.9411,-1.99,-2.0437,-2.0983,-2.1634,-2.2237,-2.2805,-2.3276,-2.3528,-2.3341,-2.3447,-2.3552,-2.3577,-2.3552,-2.3569,-2.3682,-2.3487,-2.3252,-2.3016,-2.2724,-2.2383,-2.1896,-2.1514,-2.1067,-2.0604,-1.9743,-1.8915,0.0,0.0,0.0,-1.5601,-1.5025,-1.4854,-1.5002,0.0,-1.5764,-1.6405,-1.7015,-1.7583,-1.8095,-1.8387,-1.855,-1.8606,-1.8533,-1.8566,-1.868,-1.8826,-1.8956,-1.9029,-1.8915,-1.8761,-1.8566,-1.8265,-1.8223,-1.8223,-1.8223,-1.8127,-1.8046,-1.7949,-1.7822,-1.7716,-1.7538,-1.7543,-1.7518,-1.74,-1.7348,-1.7258,-1.7185,-1.6841,-1.6517,-1.63,-1.6024,-1.5651,-1.526,0.0,0.0,0.0,0.0,0.0,0.0,0.0,0.0,0.0,-1.2939,-1.3038,-1.3038,-1.3617,-1.4024,0.0,0.0,0.0,-1.4504,0.0,-1.5529,-1.6209,-1.6615,-1.693,-1.7218,-1.7258,-1.7404,-1.7603,-1.7708,-1.7997,-1.8402,-1.8695,-1.8898,-1.8996,-1.9232,-1.9517,-1.9792,-1.9792,-2.0003,-2.032,-2.032,-2.032,-2.032,-2.032,-2.0807,-2.1357,-2.1749,-2.231,-2.274,-2.3106,-2.3487,-2.3699,-2.3617,-2.3508,-2.3569,-2.3723,-2.3617,-2.3569,-2.3723,-2.3447,-2.3187,-2.3016,-2.2618,-2.2253,-2.1896,-2.153,0.0,-2.0759,-2.0044,-1.9354,-1.8736,-1.7579,0.0,0.0,0.0,0.0,0.0,-1.5748,-1.6194,-1.6852,-1.7339,-1.7851,-1.8363,-1.8623,-1.8753,-1.8793,-1.8696,-1.8801,-1.8915,-1.8964,-1.9069,-1.9208,-1.9029,-1.8899,-1.8744,-1.8436,-1.8298,-1.8304,-1.8304,-1.8263,-1.8152,-1.803,-1.7989,-1.7949,-1.7724,-1.7676,-1.766,-1.7611,-1.7551,-1.7445,-1.7396,-1.7185,-1.6898,-1.6706,-1.6412,-1.6104,-1.5699,0.0,0.0,0.0,0.0,0.0,0.0,-1.3353,-1.3173,-1.2831,-1.2807,-1.2823,-1.288,-1.3368,-1.364,0.0,0.0,0.0,0.0,0.0,0.0,-1.6072,-1.6566,-1.6922,-1.7193,-1.7323,-1.7502,-1.7684,-1.7965,-1.8273,-1.867,-1.8923,-1.9013,-1.9126,-1.9257,-1.9435,-1.9711,-1.9768,-1.9979,-2.0255,-2.0304,-2.032,-2.032,-2.1075,-2.1499,-2.1977,-2.2147,-2.2635,-2.3106,-2.3463,-2.3528,-2.3593,-2.3788,-2.3634,-2.3528,-2.3528,-2.3528,-2.3528,-2.3528,-2.3358,-2.3187,-2.3016,-2.2489,-2.2123,0.0,0.0,-2.1124,-2.107,-2.0426,-1.9843,-1.9297,0.0,0.0,-1.7088,0.0,-1.6292,-1.63,-1.6487,-1.6868,-1.7396,-1.7762,-1.8178,-1.8672,-1.872,-1.8826,-1.8964,-1.8793,-1.868,-1.8753,-1.8923,-1.8988,-1.8988,-1.898,-1.898,-1.8948,-1.8777,-1.8598,-1.8491,-1.8491,-1.8361,-1.8223,-1.8223,-1.8223,-1.8127,-1.7957,-1.7916,-1.7822,-1.7635,-1.7595,-1.7546,-1.7421,-1.738,-1.7274,-1.6874,-1.6801,-1.6623,-1.6088,0.0,0.0,0.0,0.0,0.0,0.0,-1.3206,-1.3027,-1.2823,-1.2807,-1.2872,-1.3076,-1.3092,0.0,0.0,0.0,0.0,-1.4192,-1.4871,0.0,-1.6292,-1.6623,-1.6987,-1.738,-1.7388,-1.7575,-1.7924,-1.8328,-1.8687,-1.8972,-1.898,-1.9086,-1.9306,-1.9306,-1.9362,-1.9532,-1.9719,-1.9906,-2.0144,-2.0255,-2.032,-2.032,-2.179,-2.2188,-2.257,-2.287,-2.3171,-2.3398,-2.3504,-2.3528,-2.3552,-2.3617,-2.3508,-2.3528,-2.3528,-2.3528,-2.3569,-2.3699,-2.3317,-2.3065,-2.3,-2.2489,-2.2107,-2.1936,-2.166,-2.1384,-2.1132,-2.0783,-2.0397,-1.9859,0.0,0.0,0.0,-1.7311,-1.7173,-1.7182,-1.7413,-1.7656,-1.8003,-1.8436,-1.8818,-1.911,-1.9354,-1.941,-1.9337,-1.9281,-1.9191,-1.9094,-1.92,-1.9224,-1.9224,-1.9224,-1.9224,-1.9208,-1.911,-1.8883,-1.8615,-1.8532,-1.8459,-1.8385,-1.8255,-1.8223,-1.816,-1.8103,-1.8095,-1.8079,-1.8022,-1.7916,-1.7732,-1.7554,-1.7559,-1.7494,-1.7258,-1.7112,-1.6849,-1.6479,-1.6048,0.0,0.0,0.0,0.0,0.0,-1.3206,-1.3076,-1.3019,-1.3011,0.0,-1.3305,-1.3287,0.0,0.0,0.0,0.0,0.0,-1.5011,0.0,-1.63,-1.6787,-1.7153,-1.7388,-1.7632,-1.7932,-1.8345,-1.8695,-1.8874,-1.8988,-1.9118,-1.9257,-1.9306,-1.9306,-1.9485,-1.9703,-1.9768,-1.9971,-2.0247,-2.0304,-2.032,-2.032,-2.2342,-2.2683,-2.3,-2.3271,-2.3406,-2.3528,-2.3528,-2.3528,-2.3528,-2.3528,-2.3528,-2.3528,-2.3528,-2.3528,-2.3569,-2.3699,-2.3276,-2.3,-2.3,-2.2489,-2.2107,-2.1936,-2.1766,-2.153,-2.123,-2.1051,0.0,-2.0413,-1.981,-1.9069,-1.8314,-1.82,-1.8144,-1.8152,-1.8265,-1.8452,-1.8696,-1.9037,-1.9289,-1.9525,-1.9703,-1.9719,-1.9613,-1.9613,-1.9549,-1.9509,-1.9509,-1.9509,-1.9501,-1.9378,-1.9403,-1.9395,-1.933,-1.9102,-1.8891,-1.8752,-1.8654,-1.8533,-1.8412,-1.8379,-1.8379,-1.8379,-1.8379,-1.8363,-1.8345,-1.8239,-1.8046,-1.7749,-1.77,-1.7672,-1.7429,-1.7291,-1.7071,-1.6649,-1.6186,-1.5658,-1.5088,0.0,0.0,0.0,0.0,0.0,0.0,-1.3303,-1.3401,0.0,0.0,0.0,0.0,0.0,-1.4229,-1.4678,-1.5335,-1.5958,-1.66,-1.7015,-1.7339,-1.7591,-1.7949,-1.8306,-1.8703,-1.8883,-1.9021,-1.9143,-1.9257,-1.9306,-1.9306,-1.9306,-1.9427,-1.9695,-1.976,-1.9971,-2.0231,-2.0296,-2.032,-2.032,-2.27,-2.3016,-2.3312,-2.3336,-2.3422,-2.3528,-2.3528,-2.3528,-2.3528,-2.3528,-2.3528,-2.3528,-2.3528,-2.3528,-2.3528,-2.3528,-2.3211,-2.3016,-2.3,-2.2513,-2.2147,-2.1953,-2.179,-2.1651,-2.1408,-2.1246,-2.1067,-2.0926,-2.0174,-1.9565,-1.9069,-1.9053,-1.9037,-1.9037,-1.9037,-1.9224,-1.9532,-1.954,-1.9654,-1.9808,-1.9825,-1.9817,-1.9808,-1.9808,-1.98,-1.9792,-1.9792,-1.9792,-1.976,-1.9589,-1.9532,-1.9508,-1.9345,-1.9346,-1.9306,-1.9094,-1.8866,-1.8736,-1.868,-1.868,-1.868,-1.868,-1.868,-1.868,-1.8556,-1.8516,-1.8418,-1.803,-1.7957,-1.7843,-1.7486,-1.7413,-1.7226,-1.6674,-1.6267,-1.5732,-1.5088,0.0,0.0,0.0,0.0,0.0,-1.3666,-1.3674,-1.3828,0.0,0.0,0.0,0.0,0.0,-1.4594,-1.5213,-1.5772,-1.6388,-1.7104,-1.7331,-1.7624,-1.7981,-1.8369,-1.8711,-1.898,-1.8996,-1.9143,-1.9306,-1.9306,-1.9306,-1.9306,-1.9322,-1.9378,-1.9549,-1.9735,-1.9922,-2.0152,-2.0263,-2.032,-2.032,-2.2895,-2.3106,-2.336,-2.3447,-2.3504,-2.3528,-2.3528,-2.3528,-2.3528,-2.3528,-2.3528,-2.3528,-2.3528,-2.3528,-2.3528,-2.3528,-2.3317,-2.3146,-2.3,-2.274,-2.2464,-2.2147,-2.2082,-2.1912,-2.1651,-2.1555,-2.1384,-2.1059,-2.0483,-2.0125,-1.9995,-1.9727,-1.9597,-1.9597,-1.9597,-1.9646,-1.9735,-1.9873,-2.0006,-2.0047,-2.0141,-2.0117,-2.0055,-2.0055,-1.9914,-1.9792,-1.9792,-1.9792,-1.9784,-1.9735,-1.9727,-1.9719,-1.9678,-1.9662,-1.9573,-1.9118,-1.8956,-1.8891,-1.8761,-1.868,-1.868,-1.868,-1.868,-1.8664,-1.8671,-1.8663,-1.8598,-1.8418,-1.8369,-1.8217,-1.7859,-1.7672,-1.7364,-1.669,-1.6162,-1.5585,-1.4871,-1.4432,0.0,0.0,-1.3961,-1.4099,-1.4192,-1.4338,-1.4546,0.0,0.0,-1.4895,-1.5301,-1.5374,-1.5472,-1.5642,-1.6266,-1.676,-1.7112,-1.7697,-1.8168,-1.8486,-1.8753,-1.8899,-1.8988,-1.9175,-1.9265,-1.9306,-1.9306,-1.9306,-1.9322,-1.9402,-1.9557,-1.9743,-1.993,-2.0109,-2.0263,-2.0304,-2.032,-2.032,-2.3081,-2.3252,-2.3406,-2.3512,-2.3528,-2.3528,-2.3528,-2.3528,-2.3528,-2.3528,-2.3528,-2.3528,-2.3528,-2.3528,-2.3528,-2.3528,-2.3358,-2.3187,-2.3016,-2.283,-2.257,-2.2212,-2.2188,-2.2026,-2.1716,-2.1716,-2.149,-2.1124,-2.0832,-2.0645,-2.0556,-2.0288,-2.0158,-2.0158,-2.0068,-2.0028,-2.0036,-2.0141,-2.0182,-2.0182,-2.0279,-2.0263,-2.0182,-2.0182,-2.0117,-2.0028,-2.0028,-2.0028,-2.002,-1.9946,-1.9914,-1.9898,-1.9817,-1.9792,-1.9735,-1.9435,-1.9289,-1.9191,-1.9013,-1.8972,-1.8972,-1.8972,-1.8972,-1.8948,-1.8858,-1.8842,-1.8793,-1.8615,-1.8556,-1.841,-1.8087,-1.7754,-1.7315,-1.6682,-1.6056,-1.5463,-1.4903,-1.4594,-1.4416,-1.4391,-1.4627,-1.4854,-1.5025,-1.5139,-1.5268,-1.5447,-1.5382,0.0,-1.5853,-1.6121,-1.6267,-1.6267,-1.6679,-1.7169,-1.7591,-1.8152,-1.8566,-1.8842,-1.8939,-1.9029,-1.9159,-1.9265,-1.9306,-1.9306,-1.9306,-1.9354,-1.9378,-1.9475,-1.967,-1.9922,-2.0079,-2.0174,-2.032,-2.032,-2.032,-2.032,-2.3398,-2.3655,-2.3761,-2.3657,-2.3717,-2.3761,-2.3657,-2.3657,-2.3597,-2.3528,-2.3528,-2.3528,-2.3528,-2.3528,-2.3528,-2.3528,-2.3382,-2.3211,-2.3016,-2.2846,-2.2594,-2.2253,-2.2212,-2.2042,-2.1756,-2.1699,-2.1465,-2.1165,-2.1086,-2.1051,-2.0942,-2.0718,-2.0637,-2.0629,-2.0442,-2.0361,-2.0361,-2.0328,-2.032,-2.032,-2.032,-2.032,-2.032,-2.032,-2.032,-2.032,-2.032,-2.032,-2.0296,-2.015,-2.0101,-2.0076,-1.9922,-1.9873,-1.9865,-1.9841,-1.9719,-1.9557,-1.9386,-1.9387,-1.9387,-1.9354,-1.9346,-1.9297,-1.911,-1.9078,-1.8972,-1.8801,-1.8623,-1.8483,-1.8296,-1.7786,-1.725,-1.6706,-1.6024,-1.5415,-1.5055,0.0,-1.4814,-1.5023,-1.5382,-1.5707,-1.5918,-1.5983,-1.604,-1.6153,-1.6064,-1.6121,-1.6446,-1.6744,-1.6955,-1.7011,-1.7193,-1.7599,-1.829,-1.8606,-1.885,-1.9078,-1.9053,-1.9142,-1.9346,-1.9379,-1.9387,-1.9387,-1.9387,-1.9419,-1.9557,-1.9581,-1.9784,-2.012,-2.0144,-2.019,-2.032,-2.032,-2.032,-2.032,-2.4146,-2.4657,-2.4984,-2.4433,-2.4794,-2.4984,-2.4433,-2.4373,-2.414,-2.3588,-2.3528,-2.3528,-2.3528,-2.3528,-2.3528,-2.3528,-2.3504,-2.3341,-2.3016,-2.2976,-2.2805,-2.2448,-2.2277,-2.2107,-2.1896,-2.1595,-2.1408,-2.1343,-2.1197,-2.1116,-2.1083,-2.0897,-2.0869,-2.0861,-2.0629,-2.0556,-2.0539,-2.0385,-2.032,-2.032,-2.032,-2.032,-2.032,-2.032,-2.032,-2.032,-2.032,-2.032,-2.0312,-2.0288,-2.0279,-2.0271,-2.0247,-2.0239,-2.0206,-2.0068,-2.0055,-1.999,-1.976,-1.9703,-1.967,-1.9516,-1.9475,-1.9427,-1.9306,-1.9265,-1.9216,-1.898,-1.8801,-1.8623,-1.8491,-1.7965,-1.7384,-1.6849,-1.6202,-1.5593,-1.508,0.0,-1.4992,-1.514,-1.578,-1.6251,-1.648,-1.6722,-1.6917,-1.6942,-1.6917,-1.6998,-1.721,-1.7413,-1.7611,-1.7957,-1.7997,-1.8282,-1.885,-1.8915,-1.9037,-1.9265,-1.9362,-1.9443,-1.9475,-1.9638,-1.9703,-1.9703,-1.9703,-1.9719,-1.976,-1.9914,-2.0011,-2.0136,-2.0223,-2.0296,-2.032,-2.032,-2.032,-2.032,-2.5537,-2.5686,-2.5757,-2.5173,-2.5276,-2.5276,-2.4622,-2.4493,-2.4244,-2.3597,-2.3528,-2.3528,-2.3528,-2.3528,-2.3528,-2.3528,-2.3528,-2.3382,-2.3016,-2.3,-2.2846,-2.2489,-2.2302,-2.2066,-2.179,-2.153,-2.1384,-2.1384,-2.1295,-2.1254,-2.1254,-2.1083,-2.1002,-2.0994,-2.0815,-2.0734,-2.0779,-2.0547,-2.0466,-2.0458,-2.0361,-2.032,-2.032,-2.032,-2.032,-2.032,-2.032,-2.032,-2.032,-2.032,-2.032,-2.032,-2.032,-2.032,-2.0304,-2.0231,-2.0068,-1.9898,-1.9817,-1.9792,-1.9768,-1.9687,-1.9662,-1.9638,-1.9565,-1.9549,-1.9492,-1.9305,-1.9134,-1.8931,-1.8647,-1.807,-1.7425,-1.6898,-1.6243,0.0,-1.5309,-1.5342,-1.5545,-1.5918,-1.6422,-1.6885,-1.7266,-1.7445,-1.7583,-1.7672,-1.7681,-1.7721,-1.7856,-1.7981,-1.8152,-1.8369,-1.8556,-1.8728,-1.898,-1.9135,-1.9224,-1.9394,-1.9475,-1.9565,-1.9662,-1.9752,-1.9792,-1.9792,-1.9792,-1.9849,-1.9946,-2.0079,-2.0125,-2.0206,-2.0288,-2.032,-2.032,-2.032,-2.032,-2.032,-2.6902,-2.6768,-2.6598,-2.5826,-2.5826,-2.5697,-2.4855,-2.4751,-2.4433,-2.3597,-2.3528,-2.3528,-2.3528,-2.3528,-2.3528,-2.3528,-2.3528,-2.3382,-2.3016,-2.3,-2.2846,-2.2489,-2.2253,-2.1961,-2.1651,-2.1504,-2.1384,-2.1384,-2.1384,-2.1384,-2.1384,-2.1246,-2.1189,-2.1181,-2.0994,-2.0975,-2.0905,-2.0734,-2.0637,-2.0588,-2.0442,-2.0361,-2.032,-2.032,-2.032,-2.032,-2.032,-2.032,-2.032,-2.032,-2.032,-2.032,-2.032,-2.032,-2.032,-2.032,-2.0125,-1.9914,-1.9914,-1.9914,-1.9906,-1.9865,-1.9857,-1.9841,-1.98,-1.9792,-1.9752,-1.9605,-1.941,-1.9224,-1.8899,-1.8257,-1.757,-1.7125,0.0,-1.5967,-1.5788,-1.5878,-1.6129,-1.6592,-1.7031,-1.7478,-1.7932,-1.8054,-1.816,-1.829,-1.8306,-1.8306,-1.8306,-1.8524,-1.8646,-1.8687,-1.8907,-1.9021,-1.9102,-1.9248,-1.9402,-1.9573,-1.9622,-1.9711,-1.9857,-1.9898,-1.9914,-1.9914,-1.9914,-1.9995,-2.0125,-2.0125,-2.0198,-2.032,-2.032,-2.032,-2.032,-2.032,-2.032,-2.032,-2.7667,-2.7796,-2.7796,-2.6538,-2.6828,-2.6828,-2.5594,-2.5405,-2.4984,-2.3657,-2.3528,-2.3528,-2.3528,-2.3528,-2.3528,-2.3528,-2.3528,-2.3382,-2.3016,-2.3,-2.2846,-2.2489,-2.2147,-2.179,-2.1408,-2.1384,-2.1384,-2.1384,-2.1384,-2.1384,-2.1384,-2.136,-2.136,-2.136,-2.1181,-2.1108,-2.1092,-2.0967,-2.0796,-2.0596,-2.058,-2.0474,-2.032,-2.032,-2.032,-2.032,-2.032,-2.032,-2.032,-2.032,-2.032,-2.032,-2.032,-2.032,-2.032,-2.032,-2.0304,-2.0279,-2.0279,-2.0279,-2.0247,-2.0085,-2.0095,-2.0055,-1.9825,-1.9792,-1.9784,-1.9776,-1.95,-1.9297,-1.9273,-1.867,-1.807,-1.7867,0.0,0.0,-1.6527,-1.6511,-1.66,-1.6768,-1.7392,-1.794,-1.8182,-1.8468,-1.8671,-1.868,-1.864,-1.864,-1.864,-1.885,-1.9069,-1.924,-1.9061,-1.9142,-1.9467,-1.9484,-1.9589,-1.9768,-1.9998,-2.0087,-2.0104,-2.0206,-2.0279,-2.0279,-2.0279,-2.0288,-2.0304,-2.0304,-2.0312,-2.032,-2.032,-2.032,-2.032,-2.032,-2.032,-2.032,-2.8274,-2.8155,-2.8054,-2.7188,-2.6888,-2.6478,-2.5654,-2.5173,-2.4562,-2.3597,-2.3528,-2.3528,-2.3528,-2.3528,-2.3528,-2.3528,-2.3528,-2.3422,-2.323,-2.3065,-2.2789,-2.2318,-2.2172,-2.1977,-2.1725,-2.1725,-2.166,-2.161,-2.161,-2.1545,-2.1384,-2.1384,-2.1384,-2.1384,-2.1319,-2.1278,-2.1278,-2.11,-2.0986,-2.0913,-2.0799,-2.0653,-2.0491,-2.0491,-2.0418,-2.032,-2.032,-2.032,-2.032,-2.032,-2.032,-2.032,-2.032,-2.032,-2.032,-2.032,-2.032,-2.032,-2.032,-2.032,-2.0304,-2.0239,-2.0223,-2.0206,-2.0133,-2.0117,-2.0093,-1.9987,-1.9908,-1.9737,-1.9459,-1.9013,-1.8582,-1.8345,0.0,-1.7271,-1.725,-1.7234,-1.7348,-1.764,-1.8014,-1.8363,-1.8647,-1.8801,-1.898,-1.9199,-1.9216,-1.9264,-1.9378,-1.9443,-1.9516,-1.9589,-1.9516,-1.9492,-1.9516,-1.963,-1.9776,-2.0014,-2.0087,-2.0125,-2.0223,-2.0288,-2.032,-2.032,-2.032,-2.032,-2.032,-2.032,-2.032,-2.032,-2.032,-2.032,-2.032,-2.032,-2.032,-2.032,-2.8573,-2.8284,-2.8095,-2.7506,-2.6828,-2.6177,-2.5594,-2.4915,-2.4244,-2.3597,-2.3528,-2.3528,-2.3528,-2.3528,-2.3528,-2.3528,-2.3528,-2.3447,-2.3336,-2.3041,-2.27,-2.2212,-2.2188,-2.2107,-2.188,-2.188,-2.1847,-2.1716,-2.1716,-2.1579,-2.1384,-2.1384,-2.1384,-2.1384,-2.1384,-2.1384,-2.1384,-2.1254,-2.1173,-2.1116,-2.0994,-2.0832,-2.0677,-2.0677,-2.0596,-2.0483,-2.0426,-2.0409,-2.0409,-2.0409,-2.0409,-2.0418,-2.0474,-2.045,-2.0409,-2.0409,-2.0361,-2.032,-2.032,-2.032,-2.032,-2.032,-2.032,-2.032,-2.032,-2.032,-2.0288,-2.0174,-2.0101,-2.0038,-1.9735,-1.9394,-1.9069,-1.8874,-1.8379,-1.8046,-1.7943,-1.7935,-1.8054,-1.8288,-1.8524,-1.876,-1.8956,-1.9086,-1.9248,-1.9492,-1.9565,-1.9654,-1.9784,-1.9792,-1.9792,-1.9792,-1.9849,-1.9817,-1.9687,-1.9817,-1.9971,-2.015,-2.015,-2.0206,-2.032,-2.032,-2.032,-2.032,-2.032,-2.032,-2.032,-2.032,-2.032,-2.032,-2.032,-2.032,-2.032,-2.032,-2.032,-2.032,-2.8573,-2.8344,-2.8095,-2.7506,-2.6828,-2.6177,-2.5594,-2.4915,-2.4244,-2.3597,-2.3528,-2.3528,-2.3528,-2.3528,-2.3528,-2.3528,-2.3528,-2.3447,-2.332,-2.2911,-2.257,-2.2212,-2.2188,-2.2107,-2.1936,-2.188,-2.1847,-2.1716,-2.1716,-2.1579,-2.1384,-2.1384,-2.1384,-2.1384,-2.1384,-2.1384,-2.1384,-2.1384,-2.1278,-2.1078,-2.1078,-2.1019,-2.091,-2.091,-2.091,-2.0885,-2.0661,-2.0596,-2.0596,-2.0596,-2.0596,-2.0629,-2.0853,-2.0734,-2.0596,-2.0596,-2.0466,-2.032,-2.032,-2.032,-2.032,-2.032,-2.032,-2.032,-2.032,-2.032,-2.032,-2.032,-2.019,-2.012,-2.012,-1.9768,-1.9516,-1.9516,-1.9216,-1.8923,-1.8761,-1.8728,-1.8663,-1.8532,-1.8825,-1.8988,-1.8988,-1.9305,-1.9516,-1.9516,-1.9687,-1.9792,-1.9792,-1.9792,-1.9792,-1.9792,-2.0022,-2.012,-2.012,-2.012,-2.015,-2.032,-2.032,-2.032,-2.032,-2.032,-2.032,-2.032,-2.032,-2.032,-2.032,-2.032,-2.032,-2.032,-2.032,-2.032,-2.032,-2.032,-2.032,-2.032,-3.0389,-2.9934,-2.9447,-2.8861,-2.7856,-2.6727,-2.5654,-2.4915,-2.4244,-2.3597,-2.3528,-2.3528,-2.3528,-2.3528,-2.3528,-2.3528,-2.3528,-2.3398,-2.3106,-2.2976,-2.2765,-2.2407,-2.2383,-2.2359,-2.2318,-2.2318,-2.2212,-2.2042,-2.2042,-2.1871,-2.1634,-2.1634,-2.1569,-2.1384,-2.1384,-2.1384,-2.1384,-2.1384,-2.136,-2.1295,-2.1295,-2.1205,-2.1043,-2.1043,-2.0962,-2.0901,-2.0853,-2.0828,-2.0828,-2.0828,-2.0828,-2.0836,-2.0893,-2.0877,-2.0804,-2.0637,-2.0556,-2.0483,-2.0353,-2.032,-2.032,-2.032,-2.032,-2.032,-2.032,-2.032,-2.032,-2.032,-2.0279,-2.0247,-2.0247,-2.006,-1.9898,-1.9898,-1.9597,-1.9378,-1.9459,-1.9362,-1.9305,-1.9378,-1.9484,-1.9549,-1.9549,-1.9646,-1.976,-1.989,-2.006,-2.0158,-2.0158,-2.0158,-2.0158,-2.0158,-2.0214,-2.0247,-2.0247,-2.0247,-2.0271,-2.032,-2.032,-2.032,-2.032,-2.032,-2.032,-2.032,-2.032,-2.032,-2.032,-2.032,-2.032,-2.032,-2.032,-2.032,-2.032,-2.032,-2.032,-2.032,-3.1881,-3.1585,-3.1111,-3.0518,-2.9328,-2.8085,-2.6828,-2.5826,-2.4915,-2.4011,-2.389,-2.3761,-2.3528,-2.3528,-2.3528,-2.3528,-2.3528,-2.3398,-2.313,-2.3106,-2.2976,-2.2683,-2.2683,-2.2618,-2.253,-2.253,-2.2383,-2.2188,-2.2188,-2.2058,-2.1716,-2.1716,-2.161,-2.1384,-2.1384,-2.1384,-2.1384,-2.1384,-2.1384,-2.1384,-2.1384,-2.1319,-2.123,-2.123,-2.1157,-2.1113,-2.0986,-2.0962,-2.0962,-2.0962,-2.101,-2.1105,-2.0986,-2.0967,-2.0877,-2.0645,-2.0596,-2.0572,-2.0458,-2.0426,-2.0426,-2.0426,-2.0377,-2.032,-2.032,-2.032,-2.032,-2.032,-2.032,-2.032,-2.032,-2.0239,-2.0166,-2.0166,-1.9979,-1.9849,-1.989,-1.98,-1.9743,-1.9784,-1.9792,-1.9792,-1.9792,-1.9857,-1.9971,-2.015,-2.0263,-2.032,-2.032,-2.032,-2.032,-2.032,-2.032,-2.032,-2.032,-2.032,-2.032,-2.032,-2.032,-2.032,-2.032,-2.032,-2.032,-2.032,-2.032,-2.032,-2.032,-2.032,-2.032,-2.032,-2.032,-2.032,-2.032,-2.032,-2.032,-2.032,-3.3346,-3.3276,-3.3052,-3.2462,-3.1268,-3.0032,-2.8673,-2.7418,-2.6117,-2.4855,-2.4562,-2.4244,-2.3657,-2.3528,-2.3528,-2.3528,-2.3528,-2.3447,-2.3336,-2.3312,-2.323,-2.3,-2.3,-2.2854,-2.2529,-2.2546,-2.2407,-2.2212,-2.2212,-2.2042,-2.1756,-2.1756,-2.1651,-2.1408,-2.1408,-2.1408,-2.1384,-2.1384,-2.1384,-2.1384,-2.1384,-2.1384,-2.1384,-2.1384,-2.1384,-2.136,-2.1205,-2.1148,-2.1148,-2.1148,-2.1254,-2.136,-2.1181,-2.101,-2.0901,-2.0669,-2.0621,-2.0621,-2.0621,-2.0621,-2.0621,-2.0621,-2.0491,-2.0361,-2.0328,-2.032,-2.032,-2.032,-2.032,-2.032,-2.032,-2.032,-2.032,-2.032,-2.032,-2.0263,-2.0161,-2.0144,-2.0028,-1.9857,-1.9833,-1.9833,-1.9833,-1.9987,-2.015,-2.0304,-2.032,-2.032,-2.032,-2.032,-2.032,-2.032,-2.032,-2.032,-2.032,-2.032,-2.032,-2.032,-2.032,-2.032,-2.032,-2.032,-2.032,-2.032,-2.032,-2.032,-2.032,-2.032,-2.032,-2.032,-2.032,-2.032,-2.032,-2.032,-2.032,-2.032,-3.6,-3.5615,-3.5063,-3.4405,-3.331,-3.1881,-3.0042,-2.8732,-2.7418,-2.6177,-2.5147,-2.4433,-2.4304,-2.3822,-2.3528,-2.3528,-2.3528,-2.3447,-2.3336,-2.3312,-2.323,-2.3,-2.3,-2.296,-2.2895,-2.274,-2.257,-2.2407,-2.2407,-2.2302,-2.2082,-2.2082,-2.1912,-2.1651,-2.1651,-2.1569,-2.1384,-2.1384,-2.1384,-2.1384,-2.1384,-2.1384,-2.1384,-2.1384,-2.1384,-2.1384,-2.1343,-2.1319,-2.1319,-2.1319,-2.136,-2.136,-2.1181,-2.11,-2.1035,-2.0901,-2.0853,-2.0853,-2.0853,-2.0853,-2.0853,-2.0853,-2.082,-2.0661,-2.0385,-2.032,-2.032,-2.032,-2.032,-2.032,-2.032,-2.032,-2.032,-2.032,-2.032,-2.0304,-2.0271,-2.0263,-2.0247,-2.0206,-2.0206,-2.0206,-2.0206,-2.0239,-2.0279,-2.032,-2.032,-2.032,-2.032,-2.032,-2.032,-2.032,-2.032,-2.032,-2.032,-2.032,-2.032,-2.032,-2.032,-2.032,-2.032,-2.032,-2.032,-2.032,-2.032,-2.032,-2.032,-2.032,-2.032,-2.032,-2.032,-2.032,-2.032,-2.032,-2.032,-2.032,-3.7717,-3.7426,-3.7005,-3.6421,-3.5485,-3.4311,-3.2698,-3.1111,-2.9556,-2.7966,-2.6408,-2.5147,-2.4562,-2.389,-2.3528,-2.3528,-2.3528,-2.3487,-2.3406,-2.3382,-2.3341,-2.3252,-2.3252,-2.3211,-2.313,-2.3025,-2.2854,-2.2594,-2.2513,-2.2383,-2.2188,-2.2188,-2.2001,-2.1716,-2.1716,-2.161,-2.1384,-2.1384,-2.1384,-2.1384,-2.1384,-2.1384,-2.1384,-2.1384,-2.1384,-2.1384,-2.1384,-2.1384,-2.1384,-2.1384,-2.1384,-2.136,-2.1181,-2.1124,-2.1092,-2.0958,-2.0967,-2.0986,-2.0986,-2.0986,-2.0986,-2.0986,-2.0975,-2.0861,-2.0612,-2.0515,-2.045,-2.045,-2.0385,-2.032,-2.032,-2.032,-2.032,-2.032,-2.032,-2.032,-2.032,-2.032,-2.032,-2.032,-2.032,-2.032,-2.032,-2.032,-2.032,-2.032,-2.032,-2.032,-2.032,-2.032,-2.032,-2.032,-2.032,-2.032,-2.032,-2.032,-2.032,-2.032,-2.032,-2.032,-2.032,-2.032,-2.032,-2.032,-2.032,-2.032,-2.032,-2.032,-2.032,-2.032,-2.032,-2.032,-2.032,-2.032,-2.032,-2.032,-3.8718,-3.8718,-3.8557,-3.8021,-3.7426,-3.6551,-3.5414,-3.3629,-3.1811,-3.0032,-2.8025,-2.6279,-2.5147,-2.4304,-2.3822,-2.3657,-2.3657,-2.3597,-2.3528,-2.3528,-2.3528,-2.3528,-2.3528,-2.3463,-2.336,-2.3336,-2.3081,-2.2724,-2.2578,-2.2424,-2.2237,-2.2237,-2.2066,-2.1805,-2.1805,-2.1636,-2.1425,-2.1425,-2.1408,-2.1384,-2.1384,-2.1384,-2.1384,-2.1384,-2.1384,-2.1384,-2.1384,-2.1384,-2.1384,-2.1384,-2.1384,-2.136,-2.1181,-2.1124,-2.11,-2.0945,-2.101,-2.1132,-2.1165,-2.1173,-2.1173,-2.1173,-2.1059,-2.0999,-2.0999,-2.0767,-2.0596,-2.0596,-2.045,-2.032,-2.032,-2.032,-2.032,-2.032,-2.032,-2.032,-2.032,-2.032,-2.032,-2.032,-2.032,-2.032,-2.032,-2.032,-2.032,-2.032,-2.032,-2.032,-2.032,-2.032,-2.032,-2.032,-2.032,-2.032,-2.032,-2.032,-2.032,-2.032,-2.032,-2.032,-2.032,-2.032,-2.032,-2.032,-2.032,-2.032,-2.032,-2.032,-2.032,-2.032,-2.032,-2.032,-2.032,-2.032,-2.032,-2.032,-3.8718,-3.8718,-3.866,-3.8588,-3.8079,-3.7426,-3.6655,-3.4957,-3.324,-3.1881,-2.9556,-2.7796,-2.7087,-2.5946,-2.4984,-2.4433,-2.4373,-2.414,-2.3528,-2.3528,-2.3528,-2.3528,-2.3528,-2.3512,-2.3487,-2.3341,-2.3081,-2.2724,-2.27,-2.2594,-2.2481,-2.2481,-2.2318,-2.2131,-2.2131,-2.1936,-2.1675,-2.1675,-2.153,-2.1384,-2.1384,-2.1384,-2.1384,-2.1384,-2.1384,-2.1384,-2.1384,-2.1384,-2.1384,-2.1384,-2.1384,-2.136,-2.1181,-2.1124,-2.1124,-2.11,-2.1108,-2.1157,-2.1295,-2.1343,-2.1343,-2.1343,-2.1374,-2.1319,-2.1319,-2.0945,-2.0596,-2.0596,-2.045,-2.032,-2.032,-2.032,-2.032,-2.032,-2.032,-2.032,-2.032,-2.032,-2.032,-2.032,-2.032,-2.032,-2.032,-2.032,-2.032,-2.032,-2.032,-2.032,-2.032,-2.032,-2.032,-2.032,-2.032,-2.032,-2.032,-2.032,-2.032,-2.032,-2.032,-2.032,-2.032,-2.032,-2.032,-2.032,-2.032,-2.032,-2.032,-2.032,-2.032,-2.032,-2.032,-2.032,-2.032,-2.032,-2.032,-2.032,-3.8718,-3.8718,-3.8718,-3.8718,-3.8499,-3.8208,-3.7917,-3.6551,-3.5121,-3.3829,-3.1752,-3.0032,-2.909,-2.7537,-2.6279,-2.5628,-2.5276,-2.4794,-2.4079,-2.4079,-2.389,-2.3528,-2.3528,-2.3528,-2.3528,-2.3447,-2.3276,-2.3025,-2.283,-2.2675,-2.2618,-2.2571,-2.2359,-2.2188,-2.2188,-2.2001,-2.1716,-2.1716,-2.1675,-2.153,-2.1425,-2.1449,-2.153,-2.1425,-2.1384,-2.1384,-2.1384,-2.1384,-2.1384,-2.1384,-2.1384,-2.136,-2.1295,-2.1278,-2.1278,-2.1278,-2.1278,-2.1278,-2.136,-2.1384,-2.1384,-2.1384,-2.1384,-2.1384,-2.1384,-2.1132,-2.0864,-2.0759,-2.0596,-2.0442,-2.0336,-2.032,-2.032,-2.032,-2.032,-2.032,-2.032,-2.032,-2.032,-2.032,-2.032,-2.032,-2.032,-2.032,-2.032,-2.032,-2.032,-2.032,-2.032,-2.032,-2.032,-2.032,-2.032,-2.032,-2.032,-2.032,-2.032,-2.032,-2.032,-2.032,-2.032,-2.032,-2.032,-2.032,-2.032,-2.032,-2.032,-2.032,-2.032,-2.032,-2.032,-2.032,-2.032,-2.032,-2.032,-2.032]},{"header":{"parameterUnit":"m.s-1","parameterCategory":1,"la1":30.6,"la2":28.766,"lo1":-90.7593,"lo2":-88.6598,"dy":0.0162,"dx":0.0183,"nx":116,"ny":114,"refTime":"2023-10-23T18:00:00:Z","depth":0,"parameterNumber":3,"parameterNumberName":"V-component_of_WINDS"},"data":[0.0,0.0,0.0,0.0,0.0,0.0,0.0,0.0,0.0,0.0,0.0,0.0,0.0,0.0,0.0,0.0,0.0,0.0,0.0,0.0,0.0,0.0,0.0,0.0,0.0,0.0,0.0,0.0,0.0,0.0,0.0,0.0,0.0,0.0,0.0,0.0,0.0,0.0,0.0,0.0,0.0,0.0,0.0,0.0,0.0,0.0,0.0,0.0,0.0,0.0,0.0,0.0,0.0,0.0,0.0,0.0,0.0,0.0,0.0,0.0,0.0,0.0,0.0,0.0,0.0,0.0,0.0,0.0,0.0,0.0,0.0,0.0,0.0,0.0,0.0,0.0,0.0,0.0,0.0,0.0,0.0,0.0,0.0,0.0,0.0,0.0,0.0,0.0,0.0,0.0,0.0,0.0,0.0,0.0,0.0,0.0,0.0,0.0,0.0,0.0,0.0,0.0,0.0,0.0,0.0,0.0,0.0,0.0,0.0,0.0,0.0,0.0,0.0,0.0,0.0,0.0,0.0,0.0,0.0,0.0,0.0,0.0,0.0,0.0,0.0,0.0,0.0,0.0,0.0,0.0,0.0,0.0,0.0,0.0,0.0,0.0,0.0,0.0,0.0,0.0,0.0,0.0,0.0,0.0,0.0,0.0,0.0,0.0,0.0,0.0,0.0,0.0,0.0,0.0,0.0,0.0,0.0,0.0,0.0,0.0,0.0,0.0,0.0,0.0,0.0,0.0,0.0,0.0,0.0,0.0,0.0,0.0,0.0,0.0,0.0,0.0,0.0,0.0,0.0,0.0,0.0,0.0,0.0,0.0,0.0,0.0,0.0,0.0,0.0,0.0,0.0,0.0,0.0,0.0,0.0,0.0,0.0,0.0,0.0,0.0,0.0,0.0,0.0,0.0,0.0,0.0,0.0,0.0,0.0,0.0,0.0,0.0,0.0,0.0,0.0,0.0,0.0,0.0,0.0,0.0,0.0,0.0,0.0,0.0,0.0,0.0,0.0,0.0,0.0,0.0,0.0,0.0,0.0,0.0,0.0,0.0,0.0,0.0,0.0,0.0,0.0,0.0,0.0,0.0,0.0,0.0,0.0,0.0,0.0,0.0,0.0,0.0,0.0,0.0,0.0,0.0,0.0,0.0,0.0,0.0,0.0,0.0,0.0,0.0,0.0,0.0,0.0,0.0,0.0,0.0,0.0,0.0,0.0,0.0,0.0,0.0,0.0,0.0,0.0,0.0,0.0,0.0,0.0,0.0,0.0,0.0,0.0,0.0,0.0,0.0,0.0,0.0,0.0,0.0,0.0,0.0,0.0,0.0,0.0,0.0,0.0,0.0,0.0,0.0,0.0,0.0,0.0,0.0,0.0,0.0,0.0,0.0,0.0,0.0,0.0,0.0,0.0,0.0,0.0,0.0,0.0,0.0,0.0,0.0,0.0,0.0,0.0,0.0,0.0,0.0,0.0,0.0,0.0,0.0,0.0,0.0,0.0,0.0,0.0,0.0,0.0,0.0,0.0,0.0,0.0,0.0,0.0,0.0,0.0,0.0,0.0,0.0,0.0,0.0,0.0,0.0,0.0,0.0,0.0,0.0,0.0,0.0,0.0,0.0,0.0,0.0,0.0,0.0,0.0,0.0,0.0,0.0,0.0,0.0,0.0,0.0,0.0,0.0,0.0,0.0,0.0,0.0,0.0,0.0,0.0,0.0,0.0,0.0,0.0,0.0,0.0,0.0,0.0,0.0,0.0,0.0,0.0,0.0,0.0,0.0,0.0,0.0,0.0,0.0,0.0,0.0,0.0,0.0,0.0,0.0,0.0,0.0,0.0,0.0,0.0,0.0,0.0,0.0,0.0,0.0,0.0,0.0,0.0,0.0,0.0,0.0,0.0,0.0,0.0,0.0,0.0,0.0,0.0,0.0,0.0,0.0,0.0,0.0,0.0,0.0,0.0,0.0,0.0,0.0,0.0,0.0,0.0,0.0,0.0,0.0,0.0,0.0,0.0,0.0,0.0,0.0,0.0,0.0,0.0,0.0,0.0,0.0,0.0,0.0,0.0,0.0,0.0,0.0,0.0,0.0,0.0,0.0,0.0,0.0,0.0,0.0,0.0,0.0,0.0,0.0,0.0,0.0,0.0,0.0,0.0,0.0,0.0,0.0,0.0,0.0,0.0,0.0,0.0,0.0,0.0,0.0,0.0,0.0,0.0,0.0,0.0,0.0,0.0,0.0,0.0,0.0,0.0,0.0,0.0,0.0,0.0,0.0,0.0,0.0,0.0,0.0,0.0,0.0,0.0,0.0,0.0,0.0,0.0,0.0,0.0,0.0,0.0,0.0,0.0,0.0,0.0,0.0,0.0,0.0,0.0,0.0,0.0,0.0,0.0,0.0,0.0,0.0,0.0,0.0,0.0,0.0,0.0,0.0,0.0,0.0,0.0,0.0,0.0,0.0,0.0,0.0,0.0,0.0,0.0,0.0,0.0,0.0,0.0,0.0,0.0,0.0,0.0,0.0,0.0,0.0,0.0,0.0,0.0,0.0,0.0,0.0,0.0,0.0,0.0,0.0,0.0,0.0,0.0,0.0,0.0,0.0,0.0,0.0,0.0,0.0,0.0,0.0,0.0,0.0,0.0,0.0,0.0,0.0,0.0,0.0,0.0,0.0,0.0,0.0,0.0,0.0,0.0,0.0,0.0,0.0,0.0,0.0,0.0,0.0,0.0,0.0,0.0,0.0,0.0,0.0,0.0,0.0,0.0,0.0,0.0,0.0,0.0,0.0,0.0,0.0,0.0,0.0,0.0,0.0,0.0,0.0,0.0,0.0,0.0,0.0,0.0,0.0,0.0,0.0,0.0,0.0,0.0,0.0,0.0,0.0,0.0,0.0,0.0,0.0,0.0,0.0,0.0,0.0,0.0,0.0,0.0,0.0,0.0,0.0,0.0,0.0,0.0,0.0,0.0,0.0,0.0,0.0,0.0,0.0,0.0,0.0,0.0,0.0,0.0,0.0,0.0,0.0,0.0,0.0,0.0,0.0,0.0,0.0,0.0,0.0,0.0,0.0,0.0,0.0,0.0,0.0,0.0,0.0,0.0,0.0,0.0,0.0,0.0,0.0,0.0,0.0,0.0,0.0,0.0,0.0,0.0,0.0,0.0,0.0,0.0,0.0,0.0,0.0,0.0,0.0,0.0,0.0,0.0,0.0,0.0,0.0,0.0,0.0,0.0,0.0,0.0,0.0,0.0,0.0,0.0,0.0,0.0,0.0,0.0,0.0,0.0,0.0,0.0,0.0,0.0,0.0,0.0,0.0,0.0,0.0,0.0,0.0,0.0,0.0,0.0,0.0,0.0,0.0,0.0,0.0,0.0,0.0,0.0,0.0,0.0,0.0,0.0,0.0,0.0,0.0,0.0,0.0,0.0,0.0,0.0,0.0,0.0,0.0,0.0,0.0,0.0,0.0,0.0,0.0,0.0,0.0,0.0,0.0,0.0,0.0,0.0,0.0,0.0,0.0,0.0,0.0,0.0,0.0,0.0,0.0,0.0,0.0,0.0,0.0,0.0,0.0,0.0,0.0,0.0,0.0,0.0,0.0,0.0,0.0,0.0,0.0,0.0,0.0,0.0,0.0,0.0,0.0,0.0,0.0,0.0,0.0,0.0,0.0,0.0,0.0,0.0,0.0,0.0,0.0,0.0,0.0,0.0,0.0,0.0,0.0,0.0,0.0,0.0,0.0,0.0,0.0,0.0,0.0,0.0,0.0,0.0,0.0,0.0,0.0,0.0,0.0,0.0,0.0,0.0,0.0,0.0,0.0,0.0,0.0,0.0,0.0,0.0,0.0,0.0,0.0,0.0,0.0,0.0,0.0,0.0,0.0,0.0,0.0,0.0,0.0,0.0,0.0,0.0,0.0,0.0,0.0,0.0,0.0,0.0,0.0,0.0,0.0,0.0,0.0,0.0,0.0,0.0,0.0,0.0,0.0,0.0,0.0,0.0,0.0,0.0,0.0,0.0,0.0,0.0,0.0,0.0,0.0,0.0,0.0,0.0,0.0,0.0,0.0,0.0,0.0,0.0,0.0,0.0,0.0,0.0,0.0,0.0,0.0,0.0,0.0,0.0,0.0,0.0,0.0,0.0,0.0,0.0,0.0,0.0,0.0,0.0,0.0,0.0,0.0,0.0,0.0,0.0,0.0,0.0,0.0,0.0,0.0,0.0,0.0,0.0,0.0,0.0,0.0,0.0,0.0,0.0,0.0,0.0,0.0,0.0,0.0,0.0,0.0,0.0,0.0,0.0,0.0,0.0,0.0,0.0,0.0,0.0,0.0,0.0,0.0,0.0,0.0,0.0,0.0,0.0,0.0,0.0,0.0,0.0,0.0,0.0,0.0,0.0,0.0,0.0,0.0,0.0,0.0,0.0,0.0,0.0,0.0,0.0,0.0,0.0,0.0,0.0,0.0,0.0,0.0,0.0,0.0,0.0,0.0,0.0,0.0,0.0,0.0,0.0,0.0,0.0,0.0,0.0,0.0,0.0,0.0,0.0,0.0,0.0,0.0,0.0,0.0,0.0,0.0,0.0,0.0,0.0,0.0,0.0,0.0,0.0,0.0,0.0,0.0,0.0,0.0,0.0,0.0,0.0,0.0,0.0,0.0,0.0,0.0,0.0,0.0,0.0,0.0,0.0,0.0,0.0,0.0,0.0,0.0,0.0,0.0,0.0,0.0,0.0,0.0,0.0,0.0,0.0,0.0,0.0,0.0,0.0,0.0,0.0,0.0,0.0,0.0,0.0,0.0,0.0,0.0,0.0,0.0,0.0,0.0,0.0,0.0,0.0,0.0,0.0,0.0,0.0,0.0,0.0,0.0,0.0,0.0,0.0,0.0,0.0,0.0,0.0,0.0,0.0,0.0,0.0,0.0,0.0,0.0,0.0,0.0,0.0,0.0,0.0,0.0,0.0,0.0,0.0,0.0,0.0,0.0,0.0,0.0,0.0,0.0,0.0,0.0,0.0,0.0,0.0,0.0,0.0,0.0,0.0,0.0,0.0,0.0,0.0,0.0,0.0,0.0,0.0,0.0,0.0,0.0,0.0,0.0,0.0,0.0,0.0,0.0,0.0,0.0,0.0,0.0,0.0,0.0,0.0,0.0,0.0,0.0,0.0,0.0,0.0,0.0,0.0,0.0,0.0,0.0,0.0,0.0,0.0,0.0,0.0,0.0,0.0,0.0,0.0,0.0,0.0,0.0,0.0,0.0,0.0,0.0,0.0,0.0,0.0,0.0,0.0,0.0,0.0,0.0,0.0,0.0,0.0,0.0,0.0,0.0,0.0,0.0,0.0,0.0,0.0,0.0,0.0,0.0,0.0,0.0,0.0,0.0,0.0,0.0,0.0,0.0,0.0,0.0,0.0,0.0,0.0,0.0,0.0,0.0,0.0,0.0,0.0,0.0,0.0,0.0,0.0,0.0,0.0,0.0,0.0,0.0,0.0,0.0,0.0,0.0,0.0,0.0,0.0,0.0,0.0,0.0,0.0,0.0,0.0,0.0,0.0,0.0,0.0,0.0,0.0,0.0,0.0,0.0,0.0,0.0,0.0,0.0,0.0,0.0,0.0,0.0,0.0,0.0,0.0,0.0,0.0,0.0,0.0,0.0,0.0,0.0,0.0,0.0,0.0,0.0,0.0,0.0,0.0,0.0,0.0,0.0,0.0,0.0,0.0,0.0,0.0,0.0,0.0,0.0,0.0,0.0,0.0,0.0,0.0,0.0,0.0,0.0,0.0,0.0,0.0,0.0,0.0,0.0,0.0,0.0,0.0,0.0,0.0,0.0,0.0,0.0,0.0,0.0,0.0,0.0,0.0,0.0,0.0,0.0,0.0,0.0,0.0,0.0,0.0,0.0,0.0,0.0,0.0,0.0,0.0,0.0,0.0,0.0,0.0,0.0,0.0,0.0,0.0,0.0,0.0,0.0,0.0,0.0,0.0,0.0,0.0,0.0,0.0,0.0,0.0,0.0,0.0,0.0,0.0,0.0,0.0,0.0,0.0,0.0,0.0,0.0,0.0,0.0,0.0,0.0,0.0,0.0,0.0,0.0,0.0,0.0,4.3989,4.2618,0.0,0.0,0.0,0.0,0.0,0.0,0.0,0.0,0.0,0.0,0.0,0.0,0.0,0.0,0.0,0.0,0.0,0.0,0.0,0.0,0.0,0.0,0.0,0.0,0.0,0.0,0.0,0.0,0.0,0.0,0.0,0.0,0.0,0.0,0.0,0.0,0.0,5.5288,5.5847,5.6556,5.742,5.7022,5.5972,5.4434,0.0,0.0,0.0,0.0,0.0,0.0,0.0,0.0,0.0,0.0,0.0,0.0,0.0,0.0,0.0,0.0,0.0,0.0,0.0,0.0,0.0,0.0,0.0,0.0,0.0,0.0,0.0,0.0,0.0,0.0,0.0,0.0,0.0,0.0,0.0,0.0,0.0,0.0,0.0,0.0,0.0,0.0,0.0,0.0,0.0,0.0,0.0,0.0,0.0,0.0,0.0,0.0,0.0,0.0,0.0,0.0,0.0,0.0,0.0,0.0,0.0,0.0,0.0,0.0,0.0,0.0,0.0,0.0,0.0,0.0,4.8372,4.5812,0.0,0.0,0.0,0.0,0.0,0.0,0.0,0.0,0.0,0.0,0.0,0.0,0.0,0.0,0.0,0.0,0.0,0.0,0.0,0.0,0.0,0.0,0.0,5.4289,5.4665,5.5141,5.515,5.5199,0.0,0.0,0.0,0.0,0.0,0.0,5.519,5.5485,5.6014,5.6823,5.7366,5.8608,6.0373,6.1251,6.0136,5.7494,5.8352,0.0,0.0,0.0,0.0,0.0,0.0,0.0,0.0,0.0,0.0,0.0,0.0,0.0,0.0,0.0,0.0,0.0,0.0,0.0,0.0,0.0,0.0,0.0,0.0,0.0,0.0,0.0,0.0,0.0,0.0,0.0,0.0,0.0,0.0,0.0,0.0,0.0,0.0,0.0,0.0,0.0,0.0,0.0,0.0,0.0,0.0,0.0,0.0,0.0,0.0,0.0,0.0,0.0,0.0,0.0,0.0,0.0,0.0,0.0,0.0,0.0,0.0,0.0,5.9001,5.9606,6.1051,6.037,6.0446,6.0745,5.4906,5.12,4.9207,4.7532,0.0,0.0,0.0,0.0,0.0,0.0,0.0,0.0,0.0,0.0,0.0,0.0,0.0,0.0,0.0,0.0,0.0,0.0,0.0,5.4988,5.5072,5.6041,5.7042,5.7883,5.7429,5.7476,5.828,0.0,0.0,0.0,0.0,5.519,5.519,5.6026,5.6855,5.7734,5.9955,6.2015,6.3879,6.4607,6.4767,6.4251,6.1636,5.9858,5.8819,0.0,0.0,0.0,0.0,0.0,0.0,0.0,0.0,0.0,0.0,0.0,0.0,0.0,0.0,0.0,0.0,0.0,0.0,0.0,0.0,0.0,0.0,0.0,0.0,0.0,0.0,0.0,0.0,0.0,0.0,0.0,0.0,0.0,0.0,0.0,0.0,0.0,0.0,0.0,0.0,0.0,4.7641,4.8645,0.0,0.0,0.0,0.0,0.0,0.0,0.0,0.0,0.0,0.0,0.0,0.0,0.0,5.7695,5.9383,6.1714,6.3778,6.5566,6.6904,6.8012,6.8921,6.8806,6.8806,6.8768,6.6445,0.0,5.5295,5.3645,0.0,0.0,0.0,0.0,0.0,0.0,0.0,0.0,0.0,0.0,0.0,0.0,0.0,0.0,0.0,0.0,0.0,0.0,0.0,0.0,0.0,5.7674,5.9033,6.009,6.0358,6.0471,6.043,5.9324,0.0,0.0,5.7138,5.6738,5.6738,5.7567,5.9359,6.2185,6.5204,6.7606,6.9426,7.0693,7.1306,7.1229,6.9309,6.5875,6.146,6.0622,0.0,0.0,0.0,0.0,0.0,0.0,0.0,0.0,0.0,0.0,0.0,0.0,0.0,0.0,0.0,0.0,0.0,0.0,0.0,0.0,0.0,0.0,0.0,0.0,0.0,0.0,0.0,0.0,0.0,0.0,0.0,0.0,0.0,0.0,0.0,0.0,0.0,0.0,0.0,4.8558,5.0239,5.1091,5.0779,5.0512,0.0,0.0,0.0,0.0,0.0,0.0,0.0,0.0,0.0,6.0293,6.2892,6.5077,6.672,6.8776,7.0648,7.2329,7.3055,7.3858,7.4651,7.4651,7.4651,7.4613,7.3361,7.0419,6.6025,6.0102,5.6434,5.4371,0.0,0.0,0.0,0.0,5.2231,5.276,0.0,0.0,0.0,0.0,0.0,0.0,0.0,0.0,0.0,0.0,0.0,0.0,5.8279,6.0307,6.2157,6.3604,6.4169,6.4169,6.3572,6.2173,6.0874,5.979,5.8765,5.823,5.823,6.0057,6.3028,6.7095,7.0507,7.3188,7.513,7.656,7.7411,7.7581,7.6454,7.1904,6.4967,6.367,6.1147,5.7965,0.0,0.0,0.0,0.0,0.0,0.0,0.0,0.0,0.0,0.0,0.0,0.0,0.0,0.0,0.0,0.0,0.0,0.0,0.0,0.0,0.0,0.0,0.0,0.0,0.0,0.0,0.0,0.0,0.0,0.0,0.0,0.0,0.0,0.0,0.0,0.0,0.0,5.1156,5.3339,5.4607,5.4218,5.4104,0.0,0.0,0.0,0.0,0.0,0.0,5.9345,6.2135,6.4771,6.7332,7.0236,7.2597,7.4287,7.573,7.7182,7.8634,7.8863,7.9283,7.9933,7.9933,7.9933,7.9847,7.8787,7.7487,7.5462,6.6598,6.186,5.9911,5.7351,5.6205,5.6046,5.6217,5.6707,5.7412,0.0,0.0,0.0,0.0,0.0,0.0,0.0,0.0,0.0,0.0,0.0,5.9248,6.1865,6.4612,6.7235,6.9654,6.9262,6.8852,6.8814,6.5803,6.3243,6.1554,5.9904,5.9026,5.9026,6.3801,6.7973,7.1391,7.4745,7.7732,8.0252,8.1088,8.1976,8.2748,8.0982,7.6514,7.0141,6.7695,6.4674,6.1255,5.7947,0.0,0.0,0.0,0.0,0.0,0.0,0.0,0.0,0.0,0.0,0.0,0.0,0.0,0.0,0.0,0.0,0.0,0.0,0.0,0.0,0.0,0.0,0.0,0.0,0.0,0.0,0.0,0.0,0.0,0.0,0.0,0.0,0.0,0.0,0.0,0.0,0.0,0.0,5.9727,5.9995,0.0,0.0,0.0,0.0,5.988,6.2249,6.4695,6.7217,7.0542,7.3514,7.5997,7.784,7.9598,8.127,8.2111,8.3037,8.3945,8.4709,8.5081,8.5119,8.5119,8.5119,8.5043,8.3381,8.2187,8.0812,7.3085,6.8462,6.5979,6.3457,6.1929,6.1311,6.2025,6.23,6.2536,0.0,0.0,0.0,0.0,0.0,0.0,0.0,0.0,5.4035,5.523,5.7603,6.0467,6.3823,6.8015,7.1434,7.3471,7.4375,7.3934,7.1794,6.9005,6.6407,6.4153,6.2426,6.2541,6.4726,6.8699,7.2673,7.6579,7.9942,8.2627,8.4595,8.5445,8.6028,8.6287,8.5101,8.233,7.8265,7.3024,6.8549,6.4716,6.1826,5.9028,0.0,0.0,0.0,0.0,0.0,0.0,0.0,0.0,0.0,0.0,0.0,0.0,0.0,0.0,0.0,0.0,0.0,0.0,0.0,0.0,0.0,0.0,0.0,0.0,0.0,0.0,0.0,0.0,0.0,0.0,0.0,0.0,0.0,0.0,0.0,0.0,0.0,6.565,6.5574,0.0,6.7523,6.5918,6.5566,6.7523,6.9502,7.1489,7.3476,7.68,7.9551,8.1538,8.3802,8.5254,8.5855,8.6658,8.6963,8.6734,8.704,8.7154,8.7154,8.7154,8.7154,8.7116,8.597,8.5282,8.4699,8.0278,7.605,7.2176,7.019,6.8812,6.7992,6.8264,6.8278,6.8244,0.0,0.0,0.0,0.0,0.0,0.0,0.0,5.3632,5.441,5.6142,5.8844,6.2345,6.6852,7.1658,7.5371,7.7449,7.8634,7.787,7.4469,7.1612,6.8776,6.5948,6.5031,6.6025,6.9128,7.3102,7.6923,8.0553,8.3916,8.6275,8.7641,8.853,8.895,8.8912,8.8023,8.6581,8.4375,7.936,7.3972,6.8585,6.5719,6.2586,5.9376,0.0,0.0,0.0,0.0,0.0,0.0,0.0,0.0,0.0,0.0,0.0,0.0,0.0,0.0,0.0,0.0,0.0,0.0,0.0,0.0,0.0,0.0,0.0,0.0,0.0,0.0,0.0,0.0,0.0,0.0,0.0,0.0,0.0,0.0,6.3045,6.7553,7.2062,7.2338,7.3025,7.528,7.3752,7.3514,7.5777,7.722,7.8748,8.0468,8.3219,8.5397,8.6772,8.8759,8.9791,8.9791,8.9978,8.9853,8.9318,8.8971,8.8829,8.886,8.8818,8.8829,8.8822,8.793,8.7506,8.7273,8.5294,8.216,7.8389,7.5939,7.4377,7.3515,7.3402,7.305,7.2545,0.0,0.0,0.0,0.0,0.0,0.0,5.3641,5.3963,5.5139,5.7749,6.0787,6.4967,7.0952,7.5526,7.9169,8.1652,8.1881,8.0391,7.6914,7.356,7.0228,6.6942,6.7591,6.9281,7.1879,7.6885,8.0706,8.319,8.6591,8.8644,8.9447,9.0277,9.0697,9.0621,8.9791,8.8988,8.812,8.639,8.0926,7.3132,6.9586,6.6178,6.2884,0.0,0.0,0.0,0.0,0.0,0.0,0.0,0.0,0.0,0.0,0.0,0.0,0.0,0.0,0.0,0.0,0.0,0.0,0.0,0.0,0.0,0.0,0.0,0.0,0.0,0.0,0.0,0.0,0.0,0.0,0.0,0.0,0.0,6.4428,6.8784,7.3866,7.8987,8.0286,8.1423,8.3152,8.2569,8.276,8.4403,8.5244,8.6428,8.811,8.9791,9.1041,9.1854,9.2695,9.3153,9.3153,9.2242,9.1756,9.1718,9.073,9.0311,9.0422,9.0262,9.0273,9.0334,8.944,8.8897,8.8679,8.7858,8.6449,8.4472,8.0604,7.8496,7.7614,7.7295,7.6448,7.5246,0.0,0.0,0.0,0.0,0.0,0.0,5.3952,5.4239,5.5363,5.8027,6.1939,6.6763,7.2747,7.8311,8.2158,8.3486,8.3601,8.1652,7.6991,7.356,7.0771,6.8623,7.0495,7.3369,7.7114,8.1538,8.5015,8.7575,9.0364,9.1854,9.2045,9.2312,9.2427,9.2389,9.216,9.1586,9.0708,8.9638,8.68,8.2483,7.6647,7.2253,6.8929,0.0,0.0,0.0,0.0,0.0,0.0,0.0,0.0,0.0,0.0,0.0,0.0,0.0,0.0,0.0,0.0,0.0,0.0,0.0,0.0,0.0,0.0,0.0,0.0,0.0,0.0,0.0,0.0,0.0,0.0,0.0,6.7209,7.103,6.9816,7.4516,7.9971,8.5063,8.639,8.7804,9.0096,8.9027,8.8596,8.9676,8.9944,9.0287,9.0746,9.1816,9.2809,9.365,9.3917,9.4021,9.4021,9.3681,9.3206,9.2557,9.1595,9.1142,9.1176,9.0403,9.009,9.0075,8.9623,8.9388,8.925,8.8039,8.6954,8.5775,8.3793,8.2074,8.0586,7.9686,7.8179,7.6497,0.0,0.0,0.0,0.0,0.0,0.0,5.3845,5.4339,5.5782,5.8732,6.2707,6.7507,7.343,7.9122,8.2837,8.3687,8.3763,8.1738,7.6991,7.356,7.1726,7.1841,7.4584,7.7946,8.1805,8.6008,8.9027,9.0899,9.3077,9.4146,9.4146,9.4146,9.4146,9.4146,9.4146,9.3879,9.3344,9.2542,9.1117,8.9016,8.4403,7.9436,7.4554,7.1527,6.889,6.6636,6.5261,6.3274,6.1211,6.1096,0.0,0.0,0.0,0.0,0.0,0.0,0.0,0.0,0.0,0.0,0.0,0.0,0.0,0.0,0.0,0.0,0.0,0.0,0.0,0.0,0.0,0.0,0.0,0.0,7.3514,7.8175,7.8939,8.2034,8.5932,9.0669,9.1969,9.3191,9.5025,9.4288,9.3945,9.4414,9.4452,9.4452,9.4452,9.4911,9.5446,9.5931,9.5931,9.5756,9.5367,9.4872,9.417,9.3273,9.2319,9.1865,9.1912,9.1201,9.0851,9.0739,9.0027,8.9584,8.9302,8.8112,8.7078,8.6219,0.0,0.0,0.0,0.0,7.8866,7.7618,0.0,0.0,0.0,0.0,0.0,0.0,5.3512,5.432,5.6092,5.9437,6.297,6.7381,7.3181,7.8253,8.1538,8.2388,8.235,8.0592,7.6532,7.3752,7.3408,7.5968,7.936,8.2798,8.6161,9.0173,9.2695,9.365,9.5255,9.6057,9.6172,9.6172,9.6172,9.6172,9.6172,9.6095,9.5981,9.5255,9.4338,9.3268,9.1778,8.6734,7.9866,7.742,7.4354,7.1298,7.0381,6.8012,6.5383,6.5834,0.0,0.0,0.0,0.0,0.0,0.0,0.0,0.0,0.0,0.0,0.0,0.0,0.0,0.0,0.0,0.0,0.0,0.0,0.0,0.0,0.0,0.0,0.0,0.0,7.9827,8.5588,8.9714,9.0555,9.2045,9.5598,9.6898,9.7776,9.8605,9.8605,9.8491,9.8376,9.83,9.8185,9.8109,9.8109,0.0,0.0,0.0,9.7658,9.684,9.5822,9.4903,9.4084,9.2948,9.2481,9.2592,9.219,9.1878,9.1614,9.044,8.963,8.9087,8.8042,8.7013,8.5976,8.4949,8.3547,8.1849,7.9919,7.9037,7.8532,0.0,0.0,0.0,0.0,0.0,0.0,5.3629,5.4009,5.541,5.8733,6.2253,6.6391,7.1587,7.5454,7.8022,7.8901,7.8328,7.6723,7.3896,7.4966,7.6876,7.9398,8.341,8.7144,9.0517,9.3382,9.5598,9.7115,9.8158,9.8999,9.9649,9.9649,9.9649,9.9649,9.9649,9.9266,9.8667,9.8502,9.7127,9.5102,9.4758,9.0899,8.5167,8.3295,8.0515,7.7382,7.5806,7.3972,7.1985,7.0067,6.8661,6.7324,6.4917,6.2089,0.0,0.0,0.0,0.0,0.0,0.0,0.0,0.0,0.0,0.0,0.0,0.0,0.0,0.0,0.0,0.0,0.0,0.0,0.0,8.127,8.7192,9.2389,9.5893,9.8147,9.9266,9.8732,9.9992,10.1292,10.2094,10.1597,10.0898,10.0222,9.9534,9.8846,9.8147,9.8109,9.8109,9.8109,9.7978,9.7844,9.7668,9.6601,9.6008,9.5793,9.4022,0.0,9.3199,9.2042,9.1352,9.1059,9.0419,8.9909,8.9396,8.8313,8.6894,8.5271,8.4154,8.305,8.1971,8.0919,7.9717,7.8599,0.0,0.0,0.0,0.0,0.0,0.0,5.2616,5.3493,5.4931,5.7457,6.0776,6.4344,6.8134,7.1527,7.3896,7.4775,7.4851,7.466,7.4287,7.6991,8.0315,8.4136,8.7918,9.1499,9.4872,9.7012,9.8732,9.9981,10.0909,10.1483,10.1903,10.1903,10.1903,10.1903,10.1903,10.1712,10.1177,10.0413,9.9266,9.8006,9.6745,9.4223,9.0899,8.7918,8.5244,8.276,8.0621,7.8519,7.6494,7.4775,7.3085,7.1412,6.9731,6.6873,6.3663,0.0,0.0,0.0,0.0,0.0,0.0,0.0,0.0,0.0,0.0,0.0,0.0,0.0,0.0,7.0886,7.424,0.0,8.2913,8.8453,9.2886,9.6619,9.9599,10.1815,10.2705,10.1406,10.2018,10.2705,10.3214,10.2782,10.2209,10.1292,10.0909,10.0298,9.9408,9.9273,9.9238,9.9238,9.9119,9.8843,9.835,9.7807,9.7059,9.6082,9.5104,9.4352,9.3787,9.2917,9.2248,9.1694,9.0775,9.0128,8.9532,8.807,8.6901,8.5973,8.4623,8.341,8.2361,8.1676,8.0646,7.9542,0.0,0.0,0.0,0.0,0.0,0.0,5.1576,5.276,5.4295,5.6135,5.8842,6.1593,6.4153,6.698,6.912,7.0159,7.1497,7.3093,7.5127,7.9025,8.3448,8.8377,9.1969,9.5331,9.8529,10.0107,10.1406,10.2388,10.3087,10.3508,10.3699,10.3699,10.3699,10.3699,10.3699,10.3596,10.3278,10.1788,10.0909,10.0413,9.8235,9.6783,9.5446,9.1701,8.9054,8.6915,8.4212,8.1662,7.9369,7.8137,7.6379,7.4545,7.3743,7.1268,6.802,6.4802,6.1853,0.0,0.0,0.0,0.0,0.0,0.0,0.0,0.0,6.7553,7.0381,7.2244,7.531,7.8939,8.299,8.5779,8.9256,9.472,9.7574,9.9866,10.2094,10.3699,10.431,10.3508,10.3596,10.3699,10.3699,10.3699,10.3278,10.2209,10.2209,10.17,10.0607,10.05,10.0389,10.0415,10.0202,9.9784,9.9022,9.8818,9.7928,9.6361,9.6128,9.5418,9.4305,9.3897,9.3253,9.2385,9.1123,9.0152,8.9313,8.7814,8.7049,8.6651,8.5402,8.4101,8.2877,8.2248,8.1456,8.0499,0.0,0.0,0.0,0.0,0.0,0.0,0.0,0.0,5.276,5.5205,5.6473,5.8122,6.0683,6.1936,6.3236,6.4886,6.7867,7.0954,7.4125,8.0315,8.5817,9.0124,9.4261,9.77,10.0298,10.1292,10.2502,10.4119,10.4195,10.4692,10.5418,10.5418,10.5418,10.5418,10.5418,10.4998,10.4195,10.3278,10.1979,10.0489,9.9534,9.8158,9.6554,9.4567,9.1843,8.8606,8.532,8.2531,8.0009,7.764,7.6647,7.6265,7.5471,7.3408,7.0771,6.8096,6.4496,6.0905,5.9064,5.9713,6.1478,6.3962,6.6407,6.9043,0.0,7.4957,7.7564,8.0009,8.3209,8.6571,9.0058,9.2771,9.5675,9.9305,10.1406,10.3011,10.4004,10.4909,10.5189,10.4386,10.4921,10.5418,10.5418,10.5418,10.4807,10.3202,10.3099,10.2314,10.0514,10.0413,10.0314,10.0202,10.0113,9.9947,9.9858,9.8935,9.8331,9.81,9.6896,9.5811,9.4789,9.4102,9.3087,9.1821,9.0963,8.9738,8.8355,8.8135,8.7266,8.6018,8.5837,8.4824,8.3357,8.2756,8.1658,8.0392,0.0,0.0,0.0,0.0,0.0,0.0,0.0,0.0,5.1996,5.3066,5.4333,5.5562,5.6625,5.8345,6.0141,6.1829,6.5528,6.9387,7.3246,8.0277,8.639,9.109,9.5331,9.9037,10.2018,10.2514,10.3508,10.5189,10.5189,10.5112,10.4909,10.4909,10.4692,10.431,10.4692,10.4692,10.431,10.3508,10.2794,10.1903,9.9572,9.7929,9.6554,9.3371,8.9791,8.6123,8.4212,8.127,0.0,7.5921,7.4927,7.4584,7.4698,7.3323,7.1306,6.9281,6.6032,6.2861,6.1624,6.2204,6.4084,6.8058,7.1718,7.5195,7.8557,8.2455,8.5922,8.7957,9.0669,9.3535,9.6401,9.7776,9.9458,10.2285,10.3393,10.4195,10.4986,10.4616,10.389,10.2999,10.24,10.2591,10.4081,10.4195,10.3699,10.2514,10.2416,10.1809,10.049,10.0304,10.0114,10.01,9.9957,9.985,9.9755,9.9328,9.8773,9.8111,9.7298,9.6066,9.443,9.3778,9.2702,9.1263,9.0799,8.9966,8.8879,8.8389,8.7556,8.6525,8.6054,8.4895,8.3483,8.3302,8.2264,8.0859,0.0,0.0,0.0,0.0,0.0,0.0,0.0,0.0,0.0,0.0,5.2646,5.3492,5.3722,5.5403,5.716,5.8887,6.2662,6.6942,7.1642,7.8834,8.5368,9.0861,9.4938,9.877,10.24,10.2476,10.3317,10.4998,10.4998,10.4692,10.4081,10.4081,10.3813,10.3202,10.3813,10.4081,10.4004,10.3202,10.2705,10.2209,9.9266,9.7192,9.5407,9.1434,8.6849,8.2416,8.1318,7.8222,7.4354,7.2406,7.1565,7.1374,7.1947,7.145,7.0312,6.8623,6.63,6.4198,6.4267,6.5605,6.8172,7.3217,7.7831,8.1996,8.5358,8.9523,9.3066,9.4529,9.6324,9.8197,10.0222,10.0604,10.1406,10.3699,10.431,10.4692,10.5609,10.431,10.2782,10.1712,9.9878,9.9343,10.0909,10.1712,10.1979,10.1597,10.1402,10.1011,10.039,10.0405,10.0186,9.9957,10.0116,9.9979,9.9599,9.9571,9.9097,9.8185,9.7502,9.6173,9.4265,9.314,9.1945,9.0799,9.0641,9.0002,8.9024,8.8425,8.7592,8.6651,8.6126,8.4895,8.3519,8.3611,8.2648,8.1141,0.0,0.0,0.0,0.0,0.0,0.0,0.0,0.0,0.0,0.0,0.0,5.1964,5.2734,5.2925,5.3651,5.5396,5.8651,6.309,6.8929,7.5662,8.2426,8.9103,9.2684,9.6428,10.0604,10.0718,10.1483,10.329,10.329,10.329,10.3202,10.3202,10.3202,10.3214,10.3202,10.3202,10.3214,10.2285,10.1521,10.0489,9.8796,9.6122,9.2847,8.9447,8.4021,7.7984,7.6312,7.3025,6.9043,6.6522,6.6216,6.6896,6.6934,6.7439,6.7676,6.6025,6.4886,6.4733,6.7102,7.0763,7.511,8.0238,8.5282,8.9867,9.3257,9.6008,9.8109,9.8999,9.9278,9.9572,10.0413,10.0604,10.1215,10.2896,10.389,10.4692,10.5609,10.431,10.2591,10.0795,9.8464,9.6668,9.5904,9.8082,9.984,10.0604,10.0512,10.039,10.019,10.0886,10.0779,9.9848,10.0592,10.0599,9.9599,9.9471,9.9238,9.8852,9.7552,9.618,9.4698,9.2146,9.0855,9.0637,9.0581,8.9712,8.8244,8.8208,8.7302,8.5909,8.5909,8.4895,8.3501,8.3501,8.2487,8.0984,0.0,0.0,0.0,0.0,0.0,0.0,0.0,0.0,0.0,0.0,0.0,0.0,0.0,0.0,0.0,0.0,5.7122,6.0523,6.4718,7.1374,7.7382,8.2426,8.6963,9.0812,9.3906,9.5064,9.621,9.7356,9.8464,9.8732,9.8158,9.8732,9.8693,9.8197,9.9305,9.984,9.9801,9.9484,9.8567,9.705,9.4261,9.1079,8.7575,8.3104,7.7908,7.2444,0.0,6.5375,6.3847,6.1898,6.1058,6.1058,6.2166,6.2708,6.3014,6.3579,6.5108,6.7446,7.1107,7.5959,8.127,8.639,9.1854,9.6439,9.812,10.0489,10.1903,10.0489,9.9763,9.8961,9.7547,9.728,9.7662,9.8846,10.0183,10.1597,10.3011,10.1712,9.9992,9.8349,9.5904,9.4032,9.3153,9.5369,9.7169,9.7967,9.8904,9.9644,10.0012,10.0792,10.1212,10.1324,10.1008,10.0705,10.0103,9.9412,9.8905,9.8466,9.6196,9.4356,9.295,9.1389,9.0641,9.0581,9.0581,8.9712,8.8208,8.8208,8.7266,8.5909,8.5909,8.5221,8.4225,8.3718,8.2813,8.1708,0.0,0.0,0.0,0.0,0.0,0.0,0.0,0.0,0.0,0.0,0.0,0.0,0.0,0.0,0.0,0.0,0.0,5.7619,6.1318,6.6483,7.1527,7.6388,8.0544,8.4098,8.6925,8.8339,8.9638,9.0784,9.1854,9.2427,9.2465,9.3038,9.3153,9.2962,9.407,9.4529,9.4529,9.4174,9.3077,9.1281,8.8224,8.4976,8.1423,7.6647,7.21,0.0,6.2204,5.9873,5.9185,5.7765,5.7199,5.7237,5.8619,5.988,6.1287,6.3579,6.7056,7.1183,7.6036,8.1881,8.7766,9.2542,9.7509,10.1292,10.1788,10.282,10.2591,9.9458,9.7203,9.5025,9.2465,9.2007,9.2656,9.4758,9.7012,9.9305,10.1585,10.0718,9.919,9.7547,9.5102,9.3191,9.2351,9.3764,9.5134,9.6154,9.765,9.8973,9.9947,10.0885,10.1679,10.2109,10.1484,10.0923,10.0406,9.9349,9.8188,9.6903,9.4724,9.2969,9.166,9.0935,9.0581,9.0581,9.0581,8.9857,8.8606,8.8316,8.7447,8.6271,8.6018,8.5402,8.4605,8.3791,8.2994,8.2088,0.0,0.0,0.0,0.0,0.0,0.0,0.0,0.0,0.0,0.0,0.0,0.0,0.0,0.0,0.0,0.0,0.0,0.0,5.8491,6.1165,6.5108,7.0809,7.3484,7.635,7.9589,8.0582,8.1881,8.3448,8.3639,8.4556,8.6113,8.6189,8.6658,8.747,8.7508,8.7498,8.746,8.6609,8.5282,8.3486,8.0964,7.7908,7.4478,7.0266,6.6682,6.3281,5.9109,5.6625,5.5129,5.4295,5.4715,5.567,5.6594,5.9185,6.2586,6.6063,7.0724,7.5997,8.1929,8.8415,9.4529,9.8617,10.2094,10.4501,10.431,10.2896,10.0401,9.6057,9.1778,8.8071,8.5473,8.5005,8.6428,9.0669,9.4299,9.7776,10.1203,10.11,9.9992,9.8338,9.5969,9.4174,9.3306,9.3257,9.389,9.5368,9.685,9.8351,9.9882,10.1319,10.2095,10.2194,10.2024,10.1408,10.0413,9.9117,9.7126,9.4467,9.327,9.2068,9.0878,9.0681,9.0581,9.0581,9.0581,9.0147,8.935,8.8534,8.7737,8.694,8.6199,8.5438,8.4642,8.3827,8.303,8.2124,0.0,0.0,0.0,0.0,0.0,0.0,0.0,0.0,0.0,0.0,0.0,0.0,0.0,0.0,0.0,0.0,0.0,0.0,5.4295,5.6778,5.9415,6.2197,6.4764,6.6827,6.8325,7.0389,7.1642,7.207,7.463,7.6112,7.6532,7.7793,7.849,7.8757,7.9321,7.9589,7.9589,7.936,7.7946,7.5653,7.3093,7.0083,6.6682,6.3045,6.037,5.8161,5.518,5.3836,5.3416,5.3231,5.4982,5.7619,5.9682,6.3083,6.7095,7.1107,7.6761,8.3028,8.8912,9.4987,10.021,10.2514,10.4692,10.5418,10.2285,9.9801,9.6439,9.0326,8.5702,8.1767,7.8643,7.8519,8.0315,8.4566,8.9141,9.3792,9.8414,9.9954,10.0183,9.919,9.7929,9.6542,9.5102,9.5471,9.5902,9.6191,9.7145,9.8301,9.9625,10.1206,10.2612,10.3601,10.2312,10.1405,10.0896,9.8233,9.5931,9.4039,9.2986,9.1837,9.0661,9.0601,9.0581,9.0581,9.0581,9.0147,8.935,8.8534,8.7737,8.694,8.6199,8.5764,8.5402,8.4026,8.3392,8.2958,0.0,0.0,0.0,0.0,0.0,0.0,0.0,0.0,0.0,0.0,0.0,0.0,0.0,0.0,0.0,0.0,0.0,0.0,0.0,5.3607,5.5135,5.681,5.8644,5.9988,6.0835,6.2593,6.3694,6.4038,6.5948,6.7286,6.8012,6.8967,6.9586,6.9999,7.0457,7.0648,7.061,7.0228,6.9082,0.0,0.0,6.2892,6.0568,5.7925,5.632,5.5218,5.3034,5.2996,5.4333,5.6938,5.93,6.1707,6.4573,6.8623,7.3093,7.6914,8.2875,8.9294,9.4452,9.9878,10.4386,10.5686,10.5915,10.4692,10.0489,9.5866,9.0555,8.3744,7.8404,7.4172,7.1535,7.2329,7.5157,8.0515,8.6237,9.192,9.7345,9.9866,10.0986,10.0604,10.0107,9.9243,9.7849,9.8084,9.8232,9.8035,9.844,9.9122,10.0119,10.1711,10.2984,10.4079,10.2383,10.0912,9.9673,9.7057,9.5127,9.3788,9.2504,9.1431,9.0581,9.0581,9.0581,9.0581,9.0581,9.0328,8.9857,8.906,8.8244,8.7447,8.6687,8.6199,8.5764,8.4497,8.3791,8.332,0.0,0.0,0.0,0.0,0.0,0.0,0.0,0.0,0.0,0.0,0.0,0.0,0.0,0.0,0.0,0.0,0.0,0.0,0.0,0.0,5.2073,5.3531,5.4333,5.5059,5.5753,5.6708,5.7581,5.8262,5.8606,5.9446,6.079,6.0905,6.1287,6.1891,6.1891,6.1891,6.1853,6.1096,6.0293,5.9422,5.7848,5.6702,5.5753,0.0,5.3607,5.3416,5.2193,5.341,5.6473,6.2364,6.5192,6.6865,7.0572,7.5233,8.0009,8.3496,8.9065,9.4987,9.9114,10.3699,10.7405,10.7902,10.5915,10.2705,9.7994,9.1079,8.3668,7.68,7.0847,6.6415,6.484,6.6636,7.0533,7.7191,8.4021,9.0555,9.6581,9.9904,10.1815,10.2006,10.2185,10.1793,10.0795,10.072,10.0596,10.0313,10.0412,10.0619,10.0908,10.2289,10.3308,10.3709,10.2091,10.0112,9.7817,9.607,9.4687,9.3669,9.2099,9.1084,9.0581,9.0581,9.0581,9.0581,9.0581,9.0581,9.0545,8.9712,8.8988,8.828,8.7339,8.6634,8.5945,8.504,8.4243,8.3537,0.0,0.0,0.0,0.0,0.0,0.0,0.0,0.0,0.0,0.0,5.0206,5.0283,0.0,0.0,0.0,0.0,0.0,0.0,0.0,0.0,0.0,5.0971,5.1085,5.1238,5.1391,5.2881,5.376,5.3874,5.6014,5.6855,5.6504,5.716,5.7199,5.6695,5.6695,5.6695,5.6695,5.6542,5.5976,5.5097,5.411,5.3187,5.234,5.1353,0.0,0.0,5.2193,5.4225,5.7282,6.3197,6.7591,7.1573,7.7029,8.2264,8.7154,9.1243,9.5713,10.0107,10.3622,10.6705,10.8704,10.7405,10.4195,9.9419,9.2427,8.4976,7.7402,6.996,6.484,6.1409,6.0363,6.2273,6.5987,7.2032,7.9254,8.639,9.3038,9.7929,10.1406,10.2782,10.3487,10.3413,10.2587,10.2309,10.2114,10.2099,10.2511,10.2412,10.1693,10.2607,10.2682,10.1881,10.0601,9.9229,9.7817,9.6323,9.4962,9.3706,9.2489,9.1473,9.0581,9.0581,9.0581,9.0581,9.0581,9.0581,9.0545,8.9712,8.9314,8.906,8.7556,8.6904,8.6651,8.5221,8.4605,8.4279,0.0,0.0,0.0,0.0,0.0,0.0,0.0,0.0,5.0703,5.1505,5.2002,5.1964,5.1079,5.0588,0.0,0.0,0.0,0.0,0.0,0.0,0.0,5.0283,5.0283,5.0283,5.0283,5.1085,5.1505,5.1505,0.0,5.311,5.276,5.3148,5.311,5.276,5.276,5.276,5.276,5.276,5.2499,5.2079,5.1658,5.1276,5.0888,5.0468,0.0,0.0,5.1735,5.3798,5.6816,6.228,6.7477,7.2873,7.9675,8.5282,9.0249,9.4452,9.8655,10.2591,10.5495,10.7787,10.8882,10.6794,10.2094,9.6019,8.8415,7.9818,7.1527,6.4802,6.0064,5.7122,5.7154,5.9606,6.3388,6.886,7.6121,8.3419,9.0173,9.5817,10.0298,10.2908,10.42,10.4697,10.4087,10.3891,10.3702,10.36,10.3785,10.3488,10.2493,10.2704,10.2298,10.1293,10.0088,9.8825,9.7481,9.5792,9.4479,9.3475,9.2119,9.1179,9.0581,9.0581,9.0581,9.0581,9.0581,9.0581,9.0581,9.0183,8.9785,8.9314,8.8553,8.7756,8.6959,8.6199,8.5402,8.4569,0.0,0.0,0.0,0.0,0.0,0.0,0.0,5.0239,5.2231,5.3225,5.4104,5.4065,5.2569,5.1308,5.0506,0.0,0.0,0.0,0.0,0.0,0.0,0.0,0.0,0.0,5.0283,0.0,0.0,5.0588,5.0741,0.0,0.0,0.0,0.0,0.0,5.0283,5.0283,5.0283,5.0283,5.0283,0.0,0.0,5.0283,5.0283,0.0,0.0,0.0,0.0,5.3104,5.5817,6.0516,6.5757,7.1535,7.8414,8.4938,9.0937,9.5331,9.9496,10.3278,10.6106,10.8016,10.85,10.5788,9.9916,9.2695,8.4747,7.5271,6.6445,6.0568,5.6243,5.376,5.4441,5.716,6.0874,6.5536,7.2529,7.9675,8.6237,9.2531,9.7868,10.16,10.3921,10.5192,10.539,10.5417,10.5283,10.4899,10.4584,10.4116,10.3376,10.2721,10.1887,10.1093,9.968,9.8397,9.7138,9.5495,9.4212,9.328,9.1984,9.1103,9.0581,9.0581,9.0581,9.0581,9.0581,9.0581,9.0581,9.0581,9.0219,8.964,8.9459,8.8662,8.7539,8.7158,8.6216,8.5149,0.0,0.0,0.0,0.0,0.0,0.0,0.0,5.1091,5.3263,5.4938,5.5861,5.6014,5.5129,5.2913,5.1156,0.0,0.0,0.0,0.0,0.0,0.0,0.0,0.0,0.0,0.0,0.0,0.0,5.1461,5.2193,0.0,0.0,0.0,0.0,0.0,0.0,5.0283,5.0283,5.0283,0.0,0.0,0.0,0.0,0.0,0.0,0.0,0.0,0.0,5.2722,5.4753,5.8262,6.2357,6.6751,7.1306,7.9904,8.9294,9.4261,9.8158,10.1712,10.58,10.7596,10.7481,10.4195,9.7738,8.9752,8.0659,7.1374,6.2975,5.7084,5.3715,5.1843,5.192,5.4097,5.7008,6.053,6.6789,7.3323,7.9369,8.6619,9.3061,9.7832,10.1814,10.4692,10.609,10.6604,10.6602,10.5815,10.4696,10.4111,10.3982,10.2417,10.1298,10.0782,9.8971,9.7609,9.6916,9.6194,9.5012,9.3316,9.2949,9.205,9.0581,9.0581,9.0581,9.0581,9.0581,9.0581,9.0581,9.0581,9.0545,9.04,8.9676,8.9314,8.8988,8.752,8.6904,8.6578,0.0,0.0,0.0,0.0,0.0,0.0,4.8837,5.1206,5.3613,5.5823,5.6855,5.7052,5.6205,5.4333,5.2569,0.0,0.0,0.0,0.0,0.0,0.0,0.0,0.0,0.0,0.0,0.0,5.0812,5.0812,5.1123,0.0,0.0,0.0,0.0,0.0,0.0,5.0283,5.0283,5.0283,0.0,0.0,0.0,0.0,0.0,0.0,0.0,0.0,0.0,0.0,5.2951,5.5288,5.823,6.144,6.4611,7.0381,7.784,8.7498,9.3371,9.7841,10.2591,10.4883,10.5189,10.24,9.556,8.7269,7.849,6.9319,6.1096,5.5747,5.2575,5.0965,5.1499,5.3257,5.5543,5.8328,6.3581,6.9404,7.5281,8.2174,8.8635,9.4143,9.8389,10.1707,10.3698,10.4911,10.5612,10.5488,10.5005,10.4312,10.3297,10.1882,10.1076,10.0687,9.8565,9.7156,9.6554,9.5115,9.3934,9.3094,9.2071,9.1233,9.0581,9.0581,9.0581,9.0581,9.0581,9.0581,9.0581,9.0581,9.0581,9.0581,9.0255,8.9821,8.9314,8.8698,8.7829,8.6904,0.0,0.0,0.0,0.0,0.0,4.7073,4.8837,5.1015,5.3339,5.5899,5.6969,5.7275,5.667,5.5097,5.3531,5.2079,0.0,0.0,0.0,0.0,0.0,0.0,0.0,0.0,0.0,0.0,5.0283,5.0283,5.0283,5.0283,0.0,0.0,5.0283,5.0283,0.0,0.0,0.0,0.0,0.0,0.0,0.0,0.0,0.0,0.0,0.0,0.0,0.0,0.0,0.0,0.0,0.0,5.6778,5.9033,6.2319,6.7744,8.0153,8.7373,9.2493,9.7841,10.0489,10.11,9.8349,9.1892,8.4021,7.5548,6.7018,5.9491,5.4715,5.1888,5.0474,5.1117,5.2575,5.4422,5.6601,6.1011,6.6058,7.1392,7.7903,8.4289,9.0133,9.5096,9.9147,10.1991,10.4008,10.5293,10.5612,10.5295,10.4295,10.2595,10.1483,10.0714,10.0093,9.8096,9.6745,9.6123,9.4415,9.3389,9.2972,9.1595,9.0835,9.0581,9.0581,9.0581,9.0581,9.0581,9.0581,9.0581,9.0581,9.0581,9.0581,9.0581,9.0255,8.9712,8.9495,8.8698,8.7684,0.0,0.0,0.0,0.0,0.0,0.0,0.0,5.0512,5.2531,5.5091,5.6091,5.6594,5.6594,5.5097,5.376,5.2849,0.0,0.0,0.0,0.0,0.0,0.0,0.0,0.0,0.0,0.0,5.0283,5.0283,5.0283,5.0283,5.0283,5.0283,5.0283,5.0283,0.0,0.0,0.0,0.0,0.0,0.0,0.0,0.0,5.0283,0.0,0.0,0.0,0.0,0.0,0.0,0.0,0.0,0.0,0.0,5.7192,6.1509,7.3323,8.0391,8.5702,9.1586,9.4414,9.4872,9.1538,8.6227,7.9665,7.1183,6.4,5.7918,5.3683,5.1467,5.0283,5.0321,5.1697,5.3353,5.4955,5.8792,6.3001,6.7195,7.3553,7.9908,8.569,9.2261,9.7855,10.1684,10.4809,10.6499,10.6318,10.5588,10.4284,10.2415,10.1183,10.0001,9.874,9.7339,9.6301,9.5715,9.4705,9.3805,9.2987,9.2175,9.1378,9.0581,9.0581,9.0581,9.0581,9.0581,9.0581,9.0581,9.0581,9.0581,9.0581,9.0581,9.0581,9.0473,8.9676,8.9386,8.9241,0.0,0.0,0.0,0.0,0.0,0.0,0.0,4.9175,5.0785,5.3301,5.4371,5.4906,5.4906,5.3874,5.2881,5.2034,0.0,0.0,0.0,0.0,0.0,0.0,0.0,0.0,0.0,0.0,5.0583,5.1194,5.1194,5.1467,5.2008,5.2008,5.2008,5.1964,5.1423,5.1194,0.0,0.0,0.0,0.0,0.0,5.0283,5.0283,0.0,0.0,0.0,0.0,0.0,0.0,0.0,0.0,0.0,0.0,0.0,0.0,6.2884,7.0304,7.7717,8.3066,8.5702,8.6744,8.5664,8.0964,7.5004,6.889,6.2701,5.7237,5.3569,5.1467,5.0283,5.0283,5.1658,5.3302,5.4887,5.8172,6.2161,6.6862,7.2272,7.8173,8.4579,9.3035,9.9689,10.312,10.5198,10.6406,10.6302,10.5885,10.4401,10.1409,10.0507,9.9537,9.854,9.7131,9.6163,9.5695,9.4162,9.3241,9.2972,9.1632,9.0835,9.0581,9.0581,9.0581,9.0581,9.0581,9.0581,9.0581,9.0581,9.0581,9.0581,9.0581,9.0581,9.0581,9.0292,8.9857,8.935,0.0,0.0,0.0,0.0,0.0,0.0,0.0,4.8258,4.9519,5.2002,5.2805,5.3263,5.3569,5.2843,5.2155,5.1652,0.0,0.0,0.0,0.0,0.0,0.0,0.0,0.0,5.0283,5.0283,5.0735,5.1614,5.1882,5.2499,5.3307,5.3307,5.3307,5.3263,5.2422,5.2034,0.0,0.0,0.0,0.0,5.1238,5.1047,5.0779,0.0,0.0,0.0,0.0,0.0,0.0,0.0,0.0,0.0,0.0,0.0,0.0,0.0,6.1287,6.7744,7.4049,7.677,7.7726,7.7382,7.3819,6.9273,6.4833,6.0248,5.6091,5.2996,5.1505,5.0779,5.0779,5.2155,5.3798,5.5389,5.815,6.1817,6.6733,7.1768,7.8171,8.7015,9.4702,10.0579,10.3778,10.5198,10.5814,10.5814,10.5596,10.3992,10.0711,9.9962,9.8944,9.7556,9.6577,9.5939,9.5571,9.4157,9.3277,9.2972,9.1668,9.0871,9.0581,9.0581,9.0581,9.0581,9.0581,9.0581,0.0,9.0581,9.0581,9.0581,9.0581,9.0581,9.0581,9.0581,9.0292,8.9857,0.0,0.0,0.0,0.0,0.0,0.0,0.0,0.0,0.0,5.1194,5.1499,5.1805,5.2543,5.1964,5.1499,5.1499,0.0,0.0,0.0,0.0,0.0,0.0,0.0,0.0,5.0283,5.0359,5.0812,5.1691,5.2575,5.3422,5.4295,5.4333,5.4333,5.4256,5.3378,5.2925,5.2811,0.0,0.0,0.0,5.2811,5.2346,0.0,0.0,0.0,0.0,0.0,0.0,0.0,0.0,0.0,0.0,0.0,0.0,0.0,0.0,0.0,0.0,0.0,6.763,6.8317,6.7561,6.5574,6.2975,5.9675,5.7039,0.0,5.2111,5.1614,5.1614,5.1614,5.2957,5.4613,5.6251,5.8529,6.1871,6.6879,7.2328,8.0173,9.1999,9.6951,10.0616,10.38,10.471,10.51,10.51,10.469,10.3189,10.0307,9.9593,9.8283,9.6036,9.574,9.5535,9.5419,9.4565,9.3748,9.2987,9.2139,9.1306,9.0581,9.0581,9.0581,9.0581,9.0581,9.0581,9.0581,9.0581,9.0581,9.0581,9.0581,9.0581,9.0581,9.0581,9.0581,9.0581,0.0,0.0,0.0,0.0,0.0,0.0,0.0,0.0,0.0,0.0,5.0627,5.0665,5.0856,5.0703,5.0627,0.0,0.0,0.0,0.0,0.0,0.0,0.0,0.0,0.0,5.0283,5.0965,5.1697,5.2499,5.4027,5.5212,5.6021,5.6702,5.6664,5.5982,5.5174,5.4065,5.2811,5.2811,0.0,0.0,5.2811,5.2696,0.0,0.0,0.0,0.0,5.0544,5.0283,0.0,0.0,0.0,0.0,0.0,0.0,0.0,0.0,5.2187,5.3066,5.5638,0.0,6.1585,6.2058,6.1211,5.9759,0.0,5.5747,5.3874,5.1996,5.1614,5.1614,5.1614,5.2957,5.4613,5.6251,5.8529,6.2061,6.7715,7.7714,8.689,9.3364,9.7762,10.1212,10.3604,10.4607,10.5013,10.488,10.3903,10.2308,9.9927,9.8697,9.7323,9.5813,9.4969,9.4824,9.5383,9.3986,9.3189,9.2972,9.1559,9.0799,9.0581,9.0581,9.0581,9.0581,9.0581,9.0581,9.0581,9.0581,9.0581,9.0581,9.0581,9.0581,9.0581,9.0581,9.0581,9.0581,0.0,0.0,0.0,0.0,0.0,0.0,0.0,0.0,0.0,0.0,0.0,0.0,0.0,0.0,0.0,0.0,0.0,0.0,0.0,0.0,0.0,0.0,0.0,5.0283,5.0283,5.1156,5.1996,5.2811,5.4906,5.6587,5.7772,5.823,5.8421,5.8275,5.6664,5.5212,5.3989,5.3989,5.3989,5.3989,5.3989,0.0,0.0,0.0,0.0,0.0,5.0627,5.0283,0.0,5.0283,5.0283,5.0283,0.0,0.0,0.0,0.0,5.1003,5.1194,5.2002,5.418,5.6434,5.7282,5.716,5.6473,5.5142,5.4148,5.3034,5.1347,5.162,5.2155,5.2155,5.3836,5.5772,5.7444,6.0036,6.4696,7.2814,8.2682,9.055,9.4493,9.8615,10.1702,10.3105,10.4011,10.4213,10.3588,10.2779,10.1276,9.8962,9.7943,9.6676,9.5042,9.4483,9.442,9.4855,9.3624,9.2827,9.2465,9.1559,9.0943,9.0581,9.0581,9.0581,9.0581,9.0581,9.0581,9.0581,9.0581,9.0581,9.0581,9.0581,9.0581,9.0581,9.0581,9.0581,9.0581,0.0,0.0,0.0,0.0,0.0,0.0,0.0,0.0,0.0,0.0,0.0,0.0,0.0,0.0,0.0,0.0,0.0,0.0,0.0,0.0,0.0,0.0,5.0359,5.0359,5.0506,5.1461,5.2461,5.3384,5.6059,5.8154,5.9675,5.9828,5.9988,6.0109,5.7664,5.6167,5.5396,5.5396,5.5396,5.5396,5.5396,0.0,0.0,0.0,0.0,0.0,0.0,0.0,0.0,5.0283,5.0283,5.0283,5.0283,0.0,0.0,0.0,0.0,0.0,5.1347,5.2193,5.3002,5.3874,5.4218,5.4065,5.3193,5.3002,5.2575,5.1009,5.1926,5.3034,5.3148,5.5256,5.7619,5.9561,6.3375,6.9497,7.9205,8.6752,9.2443,9.5625,9.9445,10.2079,10.2692,10.3378,10.3306,10.211,10.158,10.0297,9.7937,9.725,9.6097,9.4302,9.4027,9.3862,9.382,9.3132,9.2465,9.1813,9.1668,9.1269,9.0581,9.0581,9.0581,9.0581,9.0581,9.0581,9.0581,9.0581,9.0581,9.0581,9.0581,9.0581,9.0581,9.0581,9.0581,9.0581,0.0,0.0,0.0,0.0,0.0,0.0,0.0,0.0,0.0,0.0,0.0,0.0,0.0,0.0,0.0,0.0,0.0,0.0,0.0,0.0,0.0,5.1385,5.0697,5.0665,5.1385,5.2919,5.4486,5.6021,5.9262,6.1325,6.2311,6.3083,6.1936,5.9217,5.739,5.6167,5.5396,5.5396,5.5396,5.5396,5.5396,0.0,0.0,0.0,0.0,0.0,0.0,0.0,0.0,5.0283,5.0283,5.0283,5.0283,0.0,0.0,0.0,0.0,0.0,5.1347,5.2193,5.3002,5.3874,5.4639,5.4976,5.4104,5.3913,5.3607,5.2614,5.3225,5.4142,5.4861,5.7039,5.9759,6.2899,7.0251,7.7368,8.251,8.8346,9.3502,9.7286,10.0087,10.2305,10.3518,10.3601,10.3085,10.1904,10.0789,9.9557,9.7992,9.6363,9.5188,9.4455,9.3127,9.2357,9.2175,9.2066,9.1921,9.1813,9.1125,9.0726,9.0581,9.0581,9.0581,9.0581,9.0581,9.0581,9.0581,9.0581,9.0581,9.0581,9.0581,9.0581,9.0581,9.0581,9.0581,9.0581,0.0,0.0,0.0,0.0,0.0,0.0,0.0,0.0,0.0,0.0,0.0,0.0,0.0,0.0,0.0,0.0,0.0,0.0,0.0,0.0,5.0697,5.1576,5.162,5.204,5.2913,5.46,5.6282,5.7963,6.1325,6.3427,6.4267,6.4236,6.2402,5.9064,5.7848,5.6587,5.5396,5.5396,5.5396,5.5396,0.0,0.0,0.0,0.0,0.0,0.0,0.0,0.0,0.0,0.0,5.0283,5.0283,5.0283,0.0,0.0,0.0,0.0,0.0,5.1888,5.2499,5.3231,5.5027,5.5747,5.5823,5.4982,5.5517,5.5899,5.5027,5.5899,5.7084,5.7925,6.0141,6.3847,6.9968,7.6274,8.2019,8.6626,9.1353,9.5282,9.7814,10.069,10.2697,10.3105,10.2902,10.2191,10.0917,9.9795,9.8318,9.6321,9.557,9.457,9.3243,9.2496,9.1816,9.1161,9.1161,9.1161,9.1161,9.0762,9.0581,9.0581,9.0581,9.0581,9.0581,9.0581,9.0581,9.0581,9.0581,9.0581,9.0581,9.0581,9.0581,9.0581,9.0581,9.0581,9.0581,0.0,0.0,0.0,0.0,0.0,0.0,0.0,0.0,0.0,0.0,0.0,0.0,0.0,0.0,0.0,0.0,0.0,0.0,0.0,5.0474,5.1009,5.1843,5.2843,5.3798,5.4677,5.6702,5.8803,6.0898,6.4305,6.6185,6.656,6.5154,6.267,5.937,5.8345,5.6969,5.5396,5.5396,5.5396,5.5396,0.0,0.0,0.0,0.0,0.0,0.0,0.0,0.0,0.0,0.0,0.0,0.0,0.0,0.0,0.0,5.0283,5.0283,5.0627,5.2117,5.2652,5.3384,5.5708,5.6594,5.6861,5.6625,5.7886,5.8956,5.8466,5.9568,6.0821,6.1707,6.4733,6.9548,7.6953,8.1725,8.5997,9.0449,9.43,9.7174,9.8531,10.1105,10.2719,10.2493,10.2,10.1109,9.9666,9.8651,9.7114,9.4929,9.4646,9.3781,9.2133,9.1733,9.1162,9.0328,9.0328,9.04,9.0581,9.0581,9.0581,9.0581,9.0581,9.0581,9.0581,9.0581,9.0581,9.0581,9.0581,9.0581,9.0581,9.0581,9.0581,9.0581,9.0581,9.0581,9.0581,0.0,0.0,0.0,0.0,0.0,0.0,0.0,0.0,0.0,0.0,0.0,0.0,0.0,0.0,0.0,0.0,0.0,0.0,0.0,5.1041,5.1888,5.2696,5.4333,5.5594,5.6403,5.9606,6.2853,6.6132,6.9502,7.0763,6.9952,6.6789,6.3503,6.0224,5.8612,5.6969,5.5396,5.5396,5.5396,5.5396,5.5396,0.0,0.0,0.0,0.0,0.0,0.0,0.0,0.0,0.0,0.0,0.0,0.0,0.0,5.0283,5.0283,5.0283,5.0506,5.1423,5.2231,5.3225,5.5059,5.6664,5.8192,5.9689,6.1325,6.2739,6.351,6.4344,6.5222,6.6101,7.1489,7.7258,8.1815,8.6538,9.0601,9.3341,9.6426,9.8929,10.0319,10.1309,10.2108,10.2315,10.1312,10.0006,9.8596,9.7467,9.624,9.4873,9.3394,9.2458,9.2097,9.0643,8.9746,8.9495,8.9495,8.9857,9.0581,9.0581,9.0581,9.0581,9.0581,9.0581,9.0581,9.0581,9.0581,9.0581,9.0581,9.0581,9.0581,9.0581,9.0581,9.0581,9.0581,9.0581,9.0581,0.0,0.0,0.0,0.0,0.0,0.0,0.0,0.0,0.0,0.0,0.0,0.0,0.0,0.0,0.0,0.0,0.0,0.0,0.0,5.1117,5.1958,5.2772,5.4944,5.7014,5.8925,6.1753,6.5146,6.9073,7.1374,7.1527,6.9578,6.6713,6.3618,6.0339,5.9185,5.7734,5.6129,5.6129,5.5861,5.5396,5.5396,5.5396,0.0,0.0,0.0,0.0,0.0,0.0,0.0,0.0,5.0283,5.0283,5.0283,5.0283,5.0283,5.0283,5.0283,5.0474,5.1347,5.2193,5.3346,5.56,5.8192,6.0523,6.1707,6.4917,6.7859,6.8707,6.9922,7.1145,7.2024,7.6379,8.1079,8.4757,8.8978,9.2808,9.5864,9.8072,9.9676,10.0601,10.1406,10.18,10.1694,10.0402,9.8975,9.758,9.6395,9.4982,9.3217,9.2223,9.1365,9.0626,8.9516,8.8875,8.8642,8.8642,8.8787,8.9113,9.011,9.0581,9.0581,9.0581,9.0581,9.0581,9.0581,9.0581,9.0581,9.0581,9.0581,9.0581,9.0581,9.0581,9.0581,9.0581,9.0581,9.0581,0.0,0.0,0.0,0.0,0.0,0.0,0.0,0.0,0.0,0.0,0.0,0.0,0.0,0.0,0.0,0.0,0.0,0.0,5.0283,5.1347,5.2231,5.2772,5.5256,5.7778,6.0339,6.2899,6.6376,7.0877,7.2291,7.168,6.912,6.633,6.3358,6.0377,5.9491,5.8192,5.6594,5.6594,5.6129,5.5396,5.5396,5.5396,0.0,0.0,0.0,0.0,0.0,0.0,0.0,0.0,5.0283,5.0283,5.0283,5.0474,5.0665,5.0397,5.0474,5.0774,5.1117,5.2193,5.3766,5.6021,5.9911,6.3656,6.5299,6.9005,7.2444,7.3828,7.5424,7.6876,7.7726,8.0659,8.3983,8.7078,9.0922,9.4482,9.731,9.9135,10.0386,10.08,10.0982,10.0918,10.0408,9.8775,9.7224,9.603,9.4859,9.3448,9.1727,9.1045,9.0228,8.9238,8.8457,8.7964,8.7809,8.7809,8.7809,8.7846,8.9185,8.9966,9.0219,9.0219,9.0364,9.0581,9.0581,9.0581,9.0581,9.0581,9.0581,9.0581,9.0581,9.0581,9.0581,9.0581,9.0581,9.0581,0.0,0.0,0.0,0.0,0.0,0.0,0.0,0.0,0.0,0.0,0.0,0.0,0.0,0.0,0.0,0.0,0.0,0.0,5.0321,5.1855,5.2811,5.2811,5.5256,5.7778,6.0339,6.2899,6.6682,7.1688,7.2567,7.168,6.9082,6.5765,6.2861,6.0377,5.9522,5.823,5.6632,5.6632,5.6167,5.5396,5.5396,5.5396,5.5396,0.0,0.0,0.0,0.0,0.0,0.0,0.0,5.0321,5.0283,5.0283,5.0888,5.1423,5.0544,5.0926,5.1385,5.0544,5.2155,5.4524,5.6212,6.1707,6.7591,7.0962,7.3713,7.6274,7.8834,8.0706,8.2111,8.2884,8.4403,8.639,8.8912,9.2627,9.5776,9.7463,9.9666,10.0992,10.08,9.9939,9.9111,9.8364,9.6271,9.4701,9.3944,9.2769,9.1634,9.0637,8.9821,8.9024,8.8208,8.7411,8.6977,8.6977,8.6977,8.6977,8.7013,8.7809,8.8606,8.9386,8.9386,8.9821,9.0581,9.0581,9.0581,9.0581,9.0581,9.0581,9.0581,9.0581,9.0581,9.0581,9.0581,9.0581,9.0581,0.0,0.0,0.0,0.0,0.0,0.0,0.0,0.0,0.0,0.0,0.0,0.0,0.0,0.0,0.0,0.0,0.0,0.0,5.1156,5.2193,5.3078,5.3683,5.5562,5.7504,5.9453,6.3121,6.6942,7.0801,7.103,6.9884,6.74,6.523,6.3472,6.2166,6.1891,6.0828,5.923,5.8612,5.7542,5.6205,5.5632,5.5396,5.5396,0.0,0.0,0.0,0.0,0.0,0.0,0.0,0.0,0.0,5.0283,5.0474,5.0621,5.0397,5.0474,5.0774,5.1117,5.2614,5.4791,5.7657,6.3006,6.8746,7.3331,7.7267,8.0812,8.3945,8.5473,8.5932,8.4938,8.6619,8.8606,8.9971,9.3553,9.6473,9.7539,9.9135,9.9972,9.9311,9.8739,9.7945,9.6877,9.5605,9.4354,9.3138,9.1951,9.0799,8.9804,8.8481,8.7628,8.743,8.667,8.6235,8.6235,8.6235,8.6235,8.6235,8.6489,8.7285,8.857,8.9133,8.9531,8.9785,9.0364,9.0581,9.0581,9.0581,9.0581,9.0581,9.0581,9.0581,9.0581,9.0581,9.0581,9.0581,0.0,0.0,0.0,0.0,0.0,0.0,0.0,0.0,0.0,0.0,5.0283,5.0283,0.0,0.0,0.0,0.0,0.0,0.0,0.0,5.2843,5.3531,5.4065,5.5403,5.6893,5.8574,6.2089,6.4726,6.6445,6.7439,6.7171,6.5681,6.4305,6.3579,6.3427,6.3427,6.2471,6.079,5.9599,5.8345,5.7014,5.5855,5.5594,5.5823,0.0,0.0,0.0,0.0,0.0,0.0,0.0,0.0,0.0,5.0392,5.055,5.0812,5.0812,5.1047,5.1467,5.2346,5.4288,5.6893,6.0293,6.6071,7.2682,7.9445,8.2951,8.555,8.8214,8.9218,8.9256,8.8186,8.9256,9.0593,9.1461,9.4132,9.6343,9.7094,9.8199,9.8675,9.8166,9.7404,9.6531,9.5589,9.413,9.2792,9.1708,9.0504,8.9395,8.8481,8.752,8.6868,8.6634,8.6163,8.5909,8.5909,8.5909,8.5909,8.5909,8.5909,8.638,8.7302,8.8082,8.8807,8.9422,9.0255,9.0581,9.0581,9.0581,9.0581,9.0581,9.0581,9.0581,9.0581,9.0581,9.0581,9.0581,0.0,0.0,0.0,0.0,0.0,0.0,0.0,0.0,0.0,0.0,5.0283,5.0283,0.0,0.0,0.0,0.0,0.0,0.0,0.0,5.3645,5.4142,5.4218,5.5135,5.632,5.7734,6.0141,6.0981,6.0186,6.2708,6.4007,6.4084,6.335,6.3503,6.4428,6.4428,6.3472,6.1707,5.9943,5.872,5.7734,5.6091,5.5823,5.6403,5.567,0.0,0.0,0.0,0.0,0.0,0.0,0.0,0.0,5.0697,5.0965,5.1576,5.1499,5.2079,5.2925,5.3951,5.6664,6.0095,6.374,7.0542,7.8566,8.7307,8.9485,9.0096,9.1586,9.1969,9.2007,9.193,9.1969,9.2312,9.3077,9.4494,9.5741,9.6421,9.7097,9.7413,9.7206,9.6106,9.5081,9.4423,9.2239,9.0609,8.995,8.8785,8.7773,8.7049,8.694,8.6597,8.5909,8.5909,8.5909,8.5909,8.5909,8.5909,8.5909,8.5909,8.5909,8.5909,8.6651,8.7846,8.9314,9.0074,9.0364,9.04,9.0473,9.0473,9.0509,9.0581,9.0581,9.0581,9.0581,9.0581,9.0581,0.0,0.0,0.0,0.0,0.0,0.0,0.0,0.0,0.0,0.0,0.0,0.0,0.0,0.0,0.0,0.0,0.0,0.0,0.0,5.3989,5.4409,5.5091,5.6549,5.7199,5.6899,5.8689,5.9255,5.8421,6.0943,6.251,6.3197,6.3694,6.4726,6.6178,6.6178,6.5222,6.3472,6.1141,5.9262,5.7734,5.6091,5.5511,5.5632,5.5473,5.5396,0.0,0.0,0.0,0.0,0.0,0.0,0.0,5.1576,5.1461,5.1461,5.0774,5.1194,5.2346,5.4518,5.7581,6.1409,6.6789,7.531,8.3601,8.8262,9.0861,9.2389,9.2733,9.3344,9.365,9.2962,9.3382,9.3906,9.4097,9.541,9.6427,9.6497,9.7097,9.7185,9.629,9.5574,9.4467,9.2667,9.1387,9.0208,8.9128,8.795,8.7194,8.7013,8.6452,8.6054,8.5909,8.5909,8.5909,8.5909,8.5909,8.5909,8.5909,8.5909,8.5909,8.5909,8.6651,8.752,8.8461,8.8642,8.8715,8.8751,8.9386,8.964,8.9712,9.0364,9.0581,9.0581,9.0581,9.0581,9.0581,0.0,0.0,0.0,0.0,0.0,0.0,0.0,0.0,0.0,0.0,0.0,0.0,0.0,0.0,0.0,0.0,0.0,0.0,0.0,0.0,5.4944,5.5396,5.6625,5.6893,5.6052,5.7275,5.7504,5.6702,5.8803,6.0676,6.2319,6.3587,6.5306,6.7247,6.6865,6.5757,6.4007,6.1019,5.9033,5.7734,5.6091,5.5632,5.5938,5.5556,5.5396,5.5396,5.5396,0.0,0.0,0.0,0.0,0.0,0.0,0.0,5.1576,5.1505,5.1811,5.2728,5.5288,5.8727,6.3579,7.1956,7.9513,8.5779,8.9131,9.1243,9.2618,9.3,9.4108,9.4834,9.4376,9.4681,9.4987,9.4987,9.5657,9.6139,9.5984,9.6233,9.6021,9.4918,9.4222,9.3102,9.1338,9.0037,8.9002,8.8177,8.7095,8.6489,8.6489,8.6126,8.5728,8.533,8.533,8.533,8.533,8.533,8.5511,8.5909,8.5909,8.5909,8.5909,8.6651,8.723,8.7701,8.8063,8.8208,8.8244,8.906,8.9386,8.9459,9.0292,9.0581,9.0581,9.0581,9.0581,9.0581,0.0,0.0,0.0,0.0,0.0,0.0,0.0,0.0,0.0,0.0,0.0,0.0,0.0,0.0,0.0,0.0,0.0,0.0,0.0,0.0,0.0,5.5396,5.6167,5.6205,5.5435,5.6205,5.6212,5.5396,5.7237,5.9376,6.186,6.374,6.588,6.8096,6.7286,6.591,6.3969,6.0561,5.8536,5.7542,5.6014,5.5785,5.6326,5.567,5.5396,5.5396,5.5396,5.5396,5.5282,5.4562,0.0,0.0,0.0,0.0,5.2111,5.2461,5.2696,5.3346,5.5906,6.0446,6.6781,7.6591,8.2158,8.6121,8.9346,9.0856,9.1833,9.2662,9.4097,9.5178,9.5178,9.5167,9.5118,9.5118,9.5096,9.504,9.4902,9.4784,9.4337,9.3403,9.2632,9.1626,9.0308,8.8777,8.7723,8.7283,8.6259,8.5692,8.5692,8.5547,8.5185,8.4497,8.4497,8.4497,8.4497,8.4497,8.4823,8.5475,8.5619,8.5764,8.5909,8.6506,8.6851,8.6923,8.752,8.7809,8.7882,8.8807,8.9205,8.9277,9.0219,9.0581,9.0581,9.0581,9.0581,9.0581,0.0,0.0,0.0,0.0,0.0,0.0,0.0,0.0,0.0,0.0,5.0283,5.0583,0.0,0.0,0.0,0.0,0.0,0.0,0.0,0.0,0.0,5.5396,5.6167,5.6205,5.5435,5.6205,5.6212,5.5396,5.7765,6.0248,6.277,6.5222,6.7324,6.9005,6.8126,6.6415,6.3969,6.0561,5.8192,5.6708,5.5785,5.5473,5.5556,5.5435,5.5396,5.5396,5.5396,5.5396,5.5396,5.5282,5.5244,0.0,0.0,0.0,5.3492,5.2149,5.227,5.3346,5.5906,6.3434,7.1739,7.6768,8.1164,8.4958,8.7503,8.9387,9.0836,9.1713,9.2706,9.3421,9.3421,9.3333,9.3266,9.3266,9.3137,9.3033,9.2903,9.277,9.2506,9.1997,9.1505,9.0659,8.9315,8.8397,8.7522,8.6575,8.5499,8.4859,8.4859,8.4225,8.3791,8.3682,8.3682,8.3682,8.3682,8.3682,8.3718,8.3827,8.4533,8.5221,8.5909,8.6018,8.6054,8.6054,8.6163,8.6199,8.6308,8.7773,8.8353,8.8497,9.0002,9.0581,9.0581,9.0581,9.0581,9.0581,0.0,0.0,0.0,0.0,0.0,0.0,0.0,0.0,0.0,0.0,0.0,5.1849,0.0,0.0,0.0,0.0,0.0,0.0,0.0,0.0,0.0,5.5396,5.5747,5.5747,5.5396,5.5747,5.5747,5.5396,5.788,6.063,6.3694,6.7668,6.9616,6.9807,6.847,6.6529,6.4007,6.1065,5.8574,5.6556,5.6205,5.5785,5.5396,5.5396,5.5396,5.5396,5.5396,5.5396,5.5396,5.5396,5.5396,5.532,5.4938,0.0,0.0,0.0,5.2499,5.3569,5.7046,6.3312,6.9898,7.3994,7.8552,8.265,8.5071,8.6986,8.8428,8.9305,8.9806,9.0661,9.2624,9.2934,9.2878,9.281,9.2752,9.2656,9.2609,9.2428,9.1963,9.1086,9.0547,8.9656,8.8138,8.7647,8.6898,8.5701,8.5155,8.4626,8.4081,8.3682,8.3284,8.2849,8.2849,8.2849,8.2849,8.2849,8.3066,8.3501,8.3863,8.446,8.5221,8.475,8.504,8.5873,8.6005,8.6006,8.6134,8.7825,8.8517,8.8699,9.0318,9.0936,9.0936,9.0936,9.0936,9.0936,0.0,0.0,0.0,0.0,0.0,0.0,0.0,0.0,0.0,0.0,0.0,0.0,0.0,0.0,0.0,0.0,0.0,0.0,0.0,0.0,0.0,5.5396,5.5396,5.5396,5.5396,5.5396,5.5396,5.5396,5.8109,6.1172,6.4619,6.9433,7.168,7.1642,6.9922,6.7561,6.4657,6.1867,5.923,5.6899,5.6708,5.6243,5.5708,5.5708,5.5708,5.5708,5.5708,5.5549,5.5396,5.5396,5.5396,5.5396,5.5396,5.4938,0.0,0.0,0.0,5.418,5.7536,6.1991,6.6574,7.0234,7.4923,7.933,8.1913,8.4014,8.567,8.6628,8.6852,8.7707,9.0213,9.1096,9.1388,9.1271,9.1223,9.1199,9.1199,9.0953,9.0445,8.9417,8.8918,8.8155,8.6812,8.649,8.5961,8.4899,8.4555,8.3938,8.2958,8.2686,8.2233,8.14,8.1581,8.169,8.169,8.1889,8.2414,8.3211,8.3266,8.3683,8.4426,8.4082,8.4609,8.5808,8.5846,8.6028,8.6374,8.8217,8.8947,8.9093,9.0701,9.1358,9.1358,9.1358,9.1358,9.1358,0.0,0.0,0.0,0.0,0.0,0.0,0.0,0.0,0.0,0.0,0.0,0.0,5.3951,5.4065,5.4448,5.5244,5.5358,0.0,0.0,0.0,0.0,5.5396,5.5396,0.0,5.5396,5.5396,5.5396,5.5396,5.8696,6.2058,6.5413,6.9701,7.2949,7.5165,7.3484,7.0457,6.6369,6.2968,6.0102,5.7772,5.6938,5.6556,5.6556,5.6556,5.6556,5.6556,5.6556,5.6052,5.5396,5.5396,5.5396,5.5396,5.5396,5.5358,5.5174,0.0,0.0,0.0,5.6479,5.9786,6.3581,6.5944,7.027,7.4757,7.7742,8.0499,8.2784,8.4104,8.4591,8.4751,8.4682,8.6165,8.7372,8.721,8.7108,8.7018,8.7018,8.6886,8.667,8.6251,8.5969,8.5637,8.526,8.4919,8.4635,8.4356,8.3332,8.2285,8.1273,8.0495,7.9716,7.8919,7.9643,8.0042,8.0042,8.0802,8.1563,8.2342,8.2558,8.3029,8.3792,8.4717,8.526,8.5511,8.5315,8.5789,8.6825,8.8632,8.9363,8.9546,9.1161,9.1785,9.1785,9.1785,9.1785,9.1785,0.0,0.0,0.0,0.0,0.0,0.0,0.0,0.0,0.0,0.0,0.0,0.0,0.0,5.4944,5.5052,5.5358,5.5396,0.0,0.0,0.0,0.0,5.5396,5.5396,5.5396,5.5396,5.5396,5.5396,5.5396,5.8185,6.1019,6.3923,6.9204,7.249,7.3904,7.3819,7.2015,6.8882,6.6063,6.3083,6.0217,5.9383,5.8696,5.8185,5.8185,5.8536,5.8963,5.8421,5.8032,5.7689,5.7199,5.6625,5.6167,5.6167,5.5823,5.5244,5.4371,5.4333,5.4753,5.5594,5.8474,6.1637,6.3438,6.7177,7.1074,7.3576,7.609,7.842,8.0393,8.1232,8.1706,8.2021,8.3723,8.5058,8.4916,8.4888,8.5036,8.5585,8.5538,8.5503,8.573,8.558,8.5271,8.4805,8.4792,8.4185,8.2754,8.2218,8.1246,7.9661,7.9281,7.8992,7.8702,7.8992,7.939,7.9897,8.0187,8.0801,8.1741,8.188,8.2419,8.3343,8.3907,8.4839,8.5999,8.6144,8.6607,8.7321,8.8712,8.9605,9.0197,9.1307,9.2047,9.2528,9.2528,9.2528,9.2528,0.0,0.0,0.0,0.0,0.0,0.0,0.0,0.0,0.0,5.532,0.0,0.0,0.0,0.0,5.5938,5.6205,5.6243,5.6129,5.5823,5.5785,5.567,5.5396,5.5396,5.5396,5.5396,5.5396,5.5396,5.5396,5.7612,5.9981,6.2579,6.763,7.0763,7.2176,7.2979,7.2244,7.022,6.7736,6.4917,6.1975,6.1134,6.0446,5.9981,6.0248,6.0752,6.1172,6.0592,6.0172,5.9752,5.8689,5.7925,5.7351,5.6785,5.6052,5.5282,5.4715,5.4524,5.4677,5.5244,5.7163,5.9351,6.089,6.387,6.6995,6.9238,7.1565,7.3782,7.5745,7.695,7.795,7.8866,8.0362,8.1734,8.2566,8.2678,8.2902,8.3462,8.3438,8.3452,8.3766,8.3719,8.3503,8.3088,8.319,8.2631,8.114,8.0947,8.0162,7.8496,7.8407,7.8372,7.8303,7.8303,7.881,7.9897,7.995,8.0489,8.1479,8.1751,8.2225,8.2957,8.3845,8.4949,8.618,8.6994,8.7505,8.7863,8.8948,8.9727,9.036,9.1455,9.22,9.2705,9.2965,9.3093,9.3093,0.0,0.0,0.0,0.0,0.0,0.0,0.0,0.0,5.5396,5.5396,0.0,0.0,0.0,0.0,0.0,5.7848,5.7925,5.7542,5.6708,5.6632,5.6282,5.5511,0.0,0.0,5.5473,5.5473,5.5473,5.5435,5.7084,5.9147,6.1554,6.4993,6.7889,7.0258,7.1145,7.1068,7.0105,6.7775,6.5329,6.2923,6.2089,6.1745,6.1898,6.2732,6.3075,6.3114,6.3075,6.2541,0.0,5.9866,0.0,0.0,0.0,0.0,0.0,0.0,0.0,5.5396,0.0,0.0,0.0,5.8274,6.0324,6.2542,6.4649,6.6981,6.9052,7.03,7.1891,7.3519,7.5019,7.5859,7.7186,7.9882,8.0348,8.0422,8.0459,8.0459,8.04,8.0199,8.0258,8.0198,7.9992,7.9977,7.9915,7.9669,7.9531,7.8959,7.781,7.7757,7.7674,7.7487,7.747,7.8231,7.9861,8.0036,8.0642,8.1613,8.2166,8.2502,8.2674,8.4694,8.5678,8.5916,8.7727,8.8459,8.8413,8.9369,8.9803,8.9952,9.1574,9.2209,9.2321,9.318,9.3517,9.3517,0.0,0.0,0.0,0.0,0.0,0.0,5.5358,5.5396,5.5396,0.0,0.0,0.0,5.6594,5.7167,5.7886,5.8682,5.823,5.781,5.7542,5.7542,5.7428,5.7237,5.7199,5.7199,5.7199,5.7199,5.6893,5.6288,5.7351,5.8268,5.8994,6.235,6.4649,6.5994,6.7439,6.7591,6.6865,6.8012,6.74,6.5635,6.5368,6.5643,6.6178,6.6407,6.7286,6.8233,6.7668,6.6904,6.591,0.0,6.2433,6.0523,0.0,0.0,0.0,0.0,0.0,0.0,5.5396,0.0,0.0,0.0,0.0,0.0,6.0857,6.2765,6.4882,6.6752,6.8797,7.0692,7.2174,7.3552,7.4691,7.5456,7.7179,7.8603,7.9193,7.9267,7.9473,7.998,7.9983,7.9942,7.9858,7.9842,7.9522,7.8746,7.8645,7.8167,7.7138,7.6971,7.6908,7.6858,7.6705,7.7398,7.9028,7.9218,8.0215,8.1965,8.2355,8.2761,8.3261,8.5197,8.6139,8.627,8.8096,8.8851,8.8808,8.9114,8.9578,9.0215,9.1265,9.2052,9.2652,9.353,9.3867,9.3867,0.0,0.0,0.0,0.0,0.0,5.6014,5.6396,5.6434,5.6434,0.0,0.0,0.0,5.9109,5.9988,6.0561,6.0669,5.9911,5.9147,5.8459,5.8414,5.8268,5.7925,5.7886,5.7886,5.7886,5.7886,5.7657,5.7122,5.7657,5.8077,5.8459,6.0752,6.2319,6.3159,6.4535,6.4833,6.4496,6.6674,6.7056,6.6216,6.6904,6.7706,6.8555,6.9625,7.061,7.1489,7.1336,0.0,7.0151,6.7782,6.4573,0.0,0.0,0.0,0.0,0.0,0.0,0.0,0.0,0.0,0.0,5.7381,0.0,0.0,5.8862,5.9928,6.1083,6.2576,6.4645,6.6749,6.8596,7.0225,7.1645,7.2633,7.4345,7.6045,7.7457,7.7662,7.7956,7.8765,7.8798,7.8772,7.8772,7.8772,7.8505,7.7919,7.7882,7.7584,7.695,7.6773,7.6676,7.6676,7.6512,7.7079,7.838,7.8929,8.0096,8.1807,8.2582,8.3172,8.3611,8.5156,8.6053,8.6479,8.7861,8.8691,8.8992,8.8992,8.9292,8.9818,9.1019,9.177,9.2333,9.355,9.4,9.4,0.0,0.0,5.567,5.6479,5.667,5.7052,5.7886,5.8116,5.8192,0.0,5.9179,6.0745,6.319,6.3969,6.4007,6.3121,6.2166,6.0943,5.9331,5.9255,5.8918,5.8192,5.8192,5.8192,5.8192,5.8192,5.8116,5.8039,5.8039,5.8345,5.8988,5.9835,6.0644,6.1363,6.2235,6.2617,6.2732,6.442,6.5222,6.5566,6.7446,6.8814,7.0037,7.2482,7.3476,7.3667,7.4584,7.4728,7.3964,7.0495,6.6139,0.0,0.0,0.0,0.0,0.0,5.8039,0.0,0.0,0.0,0.0,0.0,5.7632,0.0,5.7964,5.8093,5.8044,5.8485,6.0285,6.2433,6.4584,6.6383,6.8216,7.0384,7.1499,7.2939,7.5499,7.5909,7.6225,7.6959,7.7032,7.7069,7.7179,7.7179,7.7215,7.7289,7.7289,7.7264,7.7139,7.6929,7.6834,7.6834,7.6692,7.7076,7.8021,7.9072,8.021,8.1494,8.2807,8.3602,8.3902,8.4885,8.5727,8.6441,8.7329,8.8067,8.8756,8.8818,8.8917,8.9179,9.0846,9.1522,9.1709,9.3399,9.4,9.4,0.0,0.0,5.567,5.6479,5.7167,5.7925,5.872,5.9453,6.0148,6.079,6.2815,6.4879,6.672,6.5872,6.484,6.4007,6.251,6.1172,6.0224,6.0148,6.0071,5.9918,5.9918,5.9918,5.9918,5.9918,5.9568,5.8873,5.8873,5.8606,5.8154,5.8956,5.9446,5.9637,6.0485,6.0874,6.0988,6.2662,6.4191,6.5643,6.8699,7.1251,7.3429,7.5271,7.6418,7.722,7.8748,7.7946,7.5577,7.1519,6.8195,6.5452,0.0,0.0,0.0,5.9918,0.0,0.0,0.0,0.0,0.0,0.0,5.7798,0.0,5.6853,5.7048,5.731,5.7228,5.851,5.9987,6.0991,6.2966,6.4807,6.5839,6.7198,6.9532,7.3618,7.4735,7.5197,7.5344,7.538,7.5601,7.6276,7.635,7.6592,7.7252,7.7289,7.7273,7.7243,7.7139,7.7045,7.7045,7.687,7.7235,7.8236,7.936,8.0612,8.1981,8.3177,8.3956,8.4368,8.526,8.5713,8.5901,8.6614,8.7012,8.7187,8.7794,8.8428,8.9179,9.0846,9.1522,9.1709,9.3399,9.4,9.4,5.5396,5.5708,5.6396,5.7619,5.8574,5.9727,6.1402,6.202,6.2746,6.4,6.6713,6.9051,7.0312,6.9319,6.7867,6.6185,6.4458,6.2777,6.1103,6.0981,6.0835,6.0415,6.0415,6.0415,6.0415,6.0415,6.0186,5.9759,5.9759,5.9529,5.9154,5.9568,5.9759,5.9759,6.0224,6.0606,6.1096,6.2357,6.4107,6.6292,6.9226,7.1939,7.4422,7.6532,7.8137,7.9398,8.0697,7.9513,7.6914,7.3934,7.0724,0.0,6.6453,6.458,6.2823,0.0,6.1714,6.095,0.0,0.0,0.0,6.0293,0.0,0.0,0.0,5.7506,5.6739,5.6517,5.7044,5.7758,5.8409,5.9842,6.1368,6.2908,6.4097,6.602,6.9427,7.1462,7.2884,7.3634,7.4074,7.4441,7.4845,7.5285,7.5674,7.6078,7.6481,7.6702,7.6702,7.7028,7.7217,7.7217,7.7103,7.7364,7.8036,7.9142,8.0359,8.171,8.2853,8.3802,8.4493,8.4933,8.5311,8.5713,8.5988,8.6337,8.6776,8.7507,8.8053,8.8616,9.0681,9.1522,9.1709,9.3399,9.4,9.4,5.5396,5.6052,5.7091,5.8606,5.9835,6.1447,6.3816,6.4619,6.5689,6.7859,7.0648,7.272,7.3408,7.272,7.1077,6.8402,6.6636,6.4649,6.2242,6.1784,6.1325,6.0644,6.0492,6.0415,6.0415,6.0415,6.0415,6.0415,6.0415,6.0415,6.0415,6.0415,6.0415,6.0415,6.0568,6.0981,6.1669,6.2892,6.468,6.6934,6.957,7.2176,7.4736,7.7449,7.9436,8.085,8.1538,8.0391,7.8213,7.635,7.314,6.9769,6.8898,6.7485,0.0,0.0,0.0,0.0,0.0,0.0,0.0,0.0,0.0,5.9929,0.0,0.0,0.0,5.6261,5.6125,5.6192,5.6574,5.723,5.84,6.0398,6.1322,6.2523,6.4685,6.7062,6.9355,7.1411,7.2361,7.2898,7.3016,7.3905,7.4426,7.4426,7.5175,7.5652,7.5652,7.6585,7.7115,7.7115,7.7338,7.7607,7.7914,7.9033,8.02,8.1456,8.2611,8.3663,8.4639,8.4615,8.4943,8.5561,8.5411,8.5699,8.6339,8.7236,8.7619,8.7831,9.0282,9.1357,9.1672,9.3212,9.385,9.4,5.5396,5.6052,5.6899,5.7886,5.995,6.2089,6.3931,6.6071,6.8898,7.2826,7.4354,7.5127,7.5204,7.4431,7.2597,6.9349,6.7515,6.5796,6.4007,6.2471,6.1554,6.1478,6.0797,6.0415,6.0415,6.0415,6.0415,6.0415,6.0415,6.0415,6.0415,6.0415,6.0415,6.0415,6.1134,6.1516,6.1745,6.4114,6.5719,6.6972,7.0228,7.3064,7.57,7.8978,8.0812,8.169,8.1767,8.1117,7.9856,0.0,7.4775,7.2414,0.0,7.0121,6.8585,6.7714,0.0,0.0,0.0,0.0,0.0,0.0,6.3236,0.0,0.0,0.0,5.8251,5.6673,0.0,5.6136,5.5444,0.0,0.0,5.7561,5.8319,5.9279,6.0736,6.185,6.4056,6.8197,6.9299,6.9955,7.062,7.1929,7.2789,7.2789,7.3523,7.3979,7.3979,7.5581,7.6501,7.6501,7.7429,7.8048,7.8353,7.9587,8.0818,8.2033,8.3108,8.4148,8.5132,8.4995,8.4988,8.5079,8.4886,8.4793,8.4883,8.6367,8.6931,8.7077,8.9409,9.0832,9.1634,9.2521,9.3347,9.4,5.5473,5.6473,0.0,5.8459,6.0255,6.2357,6.4573,6.8287,7.1833,7.4584,7.6953,7.8414,7.8414,7.8061,7.6685,7.3781,7.2024,6.9731,6.6567,6.5222,6.3885,6.2426,6.2013,0.0,6.1096,6.1096,6.0874,6.0415,6.0415,6.0415,6.0415,6.0415,6.0644,6.1134,6.1975,6.319,6.4649,6.6216,6.8203,7.0572,7.2949,7.5433,7.784,7.9254,8.1241,8.3181,8.2684,8.1958,8.0926,0.0,7.6847,0.0,0.0,0.0,0.0,7.0503,0.0,0.0,0.0,0.0,0.0,0.0,0.0,0.0,6.2091,0.0,5.8863,0.0,0.0,0.0,0.0,0.0,0.0,0.0,5.7255,5.7613,5.9151,5.9612,6.1025,6.443,6.6296,6.7714,6.8783,6.9384,6.9747,6.9816,7.1006,7.1968,7.2516,7.4613,7.6064,7.6608,7.7682,7.838,7.8697,7.949,8.0438,8.1536,8.2602,8.3568,8.4447,8.4899,8.5073,8.4995,8.4813,8.4975,8.5384,8.648,8.7172,8.771,8.9189,9.0501,9.171,9.2538,9.3307,9.4015,5.6205,0.0,5.8421,5.8988,6.0478,6.2701,6.5948,7.0151,7.3866,7.6235,7.9063,8.1041,8.1499,8.1729,8.0926,7.8634,7.6876,7.424,7.0236,6.8547,6.6667,0.0,0.0,0.0,0.0,0.0,0.0,6.0721,6.0492,6.0415,6.0415,6.0415,6.0835,6.1669,6.2999,6.4879,6.7133,6.8669,7.1,7.3828,7.5509,7.7993,8.0668,8.0668,8.2311,8.4518,8.3649,8.2684,8.1576,8.0133,7.8481,0.0,7.6388,7.5577,7.4584,0.0,0.0,0.0,7.1336,0.0,0.0,0.0,0.0,0.0,0.0,0.0,0.0,0.0,0.0,0.0,0.0,0.0,0.0,0.0,0.0,5.6639,5.7567,5.7824,5.8815,6.1304,6.3379,6.5147,6.6491,6.6496,6.6457,6.6548,6.807,6.9389,7.032,7.2959,7.5005,7.6198,7.754,7.8526,7.9091,7.9528,8.0271,8.1263,8.206,8.298,8.4009,8.4625,8.4991,8.5094,8.4939,8.5256,8.6009,8.6744,8.7512,8.8318,8.9174,9.0455,9.1867,9.2387,9.3234,9.4131,5.781,5.8491,5.9064,5.9102,6.0478,6.3274,6.8317,7.1298,7.4478,7.8643,8.0659,8.2378,8.3983,8.4862,8.4632,8.2961,8.128,7.8863,7.5471,7.2138,6.954,0.0,0.0,6.4955,0.0,0.0,0.0,6.1554,6.0797,6.0415,6.0415,6.0415,6.0835,6.1707,6.4229,6.6254,6.8096,7.1421,7.3828,7.5586,7.7258,8.043,8.4146,8.4146,8.4671,8.5358,8.4556,0.0,0.0,8.0773,7.936,0.0,0.0,0.0,0.0,0.0,0.0,0.0,0.0,0.0,0.0,7.0754,0.0,0.0,0.0,0.0,6.1516,0.0,0.0,0.0,0.0,0.0,0.0,0.0,0.0,0.0,0.0,5.5879,5.7164,5.9325,6.0644,6.1871,6.3206,6.3235,6.315,6.3162,6.472,6.6036,6.6924,7.0182,7.2873,7.4807,7.6805,7.8384,7.9573,7.9971,8.0654,8.1592,8.1738,8.2674,8.4279,8.417,8.4576,8.5367,8.5105,8.5421,8.6178,8.7049,8.7773,8.8482,8.9426,9.0714,9.2048,9.1829,9.2871,9.4376,0.0,0.0,5.9797,5.9217,6.0478,6.3312,6.8432,7.2299,7.6159,8.0391,8.3868,8.6619,8.8301,8.9714,9.0058,8.8912,8.681,8.4098,8.0706,7.7296,0.0,0.0,0.0,6.8937,0.0,0.0,0.0,6.3319,6.2471,6.2051,6.2051,6.2051,6.2777,6.4191,6.6178,6.8631,7.145,7.424,7.7067,7.9895,8.2712,8.5015,8.6696,8.5511,8.5626,8.6189,8.4785,8.3945,0.0,8.2464,8.1423,8.043,7.9856,7.9092,7.8146,7.6732,7.6074,7.5806,0.0,0.0,7.3514,7.2406,0.0,0.0,0.0,0.0,0.0,0.0,0.0,0.0,0.0,0.0,0.0,0.0,0.0,0.0,0.0,5.5773,5.5976,5.7124,5.8791,6.0451,6.1879,6.1359,6.0974,6.1014,6.1986,6.3266,6.4796,6.8492,7.1703,7.4175,7.6616,7.8445,7.9645,8.003,8.0408,8.0811,8.149,8.2111,8.2646,8.3142,8.3818,8.4538,8.4428,8.5437,8.7201,8.7467,8.8395,8.9602,8.9821,9.0911,9.2329,9.2048,9.3011,9.4418,5.9599,6.0255,6.0561,5.972,6.1211,6.4114,6.889,7.3208,7.764,8.2493,8.6772,9.0287,9.2569,9.4338,9.5102,9.4529,9.2504,8.9791,8.6362,8.299,0.0,7.7449,7.5471,0.0,0.0,0.0,0.0,0.0,6.4496,6.3656,6.335,6.3037,6.3801,6.549,6.7477,7.0266,7.359,7.6418,7.9589,8.299,8.6342,8.8033,8.8415,8.7269,8.6839,8.6648,0.0,8.4824,8.4212,8.3649,8.2913,8.2073,8.1232,8.0391,7.9445,7.8031,7.7411,7.7144,7.7144,7.6379,0.0,7.4163,7.1764,0.0,6.8279,0.0,6.565,0.0,0.0,0.0,0.0,0.0,0.0,0.0,0.0,0.0,0.0,5.5865,5.5916,5.6505,5.7452,5.8529,5.9643,5.9099,5.871,5.8733,5.9684,6.1092,6.296,6.6627,7.0053,7.3175,7.5782,7.7855,7.9416,7.9982,8.0343,8.045,8.1051,8.1499,8.1843,8.2607,8.3419,8.418,8.4444,8.5765,8.7759,8.7715,8.8694,9.0205,9.0087,9.1093,9.2465,9.219,9.312,9.4557,6.0683,6.1211,6.1593,6.095,6.2823,6.5841,7.0029,7.4278,7.913,8.4967,8.9447,9.3344,9.6783,9.8655,9.966,9.966,9.812,9.5713,9.2312,8.9016,0.0,0.0,8.1012,7.8834,7.7067,0.0,0.0,0.0,6.6865,6.5184,6.4313,6.3465,6.3962,6.5643,6.8126,7.1107,7.4507,7.7917,8.1356,8.4747,8.8033,8.937,8.937,8.9332,8.829,8.6877,8.68,8.5741,8.4365,8.4365,8.3802,8.2923,8.2149,8.1308,8.0391,7.9598,7.8748,7.8061,7.8061,7.8013,7.764,7.6006,7.4363,0.0,0.0,0.0,6.8134,0.0,0.0,0.0,0.0,0.0,0.0,0.0,0.0,0.0,0.0,0.0,5.6813,5.7422,5.664,5.6236,5.683,5.6631,5.6472,5.6472,5.7878,5.9482,6.1321,6.4535,6.8076,7.1778,7.4374,7.676,7.8929,7.9914,8.044,8.0506,8.0506,8.0926,8.1767,8.2569,8.3419,8.4289,8.5029,8.6313,8.7828,8.7759,8.8667,9.0152,9.0216,9.1201,9.2541,9.2329,9.3339,9.4832,6.2319,6.3427,6.4955,6.6636,6.7477,6.9311,7.356,7.8299,8.3295,8.8596,9.2962,9.6859,10.021,10.2094,10.3087,10.3087,10.1597,9.9446,9.6657,0.0,0.0,8.8759,8.6237,8.3792,8.1432,7.8328,0.0,7.2024,0.0,6.808,6.6063,6.5834,6.6254,6.7332,6.9234,7.1985,7.5395,7.8748,8.2884,8.7307,8.9409,9.0277,9.0201,0.0,8.8644,8.7689,8.703,8.6113,8.5206,8.5206,8.4632,8.3945,8.3715,8.2646,8.1308,8.043,7.9598,7.8987,7.8987,7.8481,7.7908,7.7487,7.6112,7.4554,0.0,0.0,0.0,0.0,0.0,0.0,0.0,0.0,0.0,0.0,0.0,0.0,0.0,0.0,0.0,5.7579,5.6836,5.6747,5.7939,5.6861,5.6035,5.5966,5.6862,5.8165,5.9919,6.3643,6.7658,7.1836,7.4433,7.7057,7.9692,8.0071,8.0334,8.0506,8.0506,8.0621,8.085,8.1729,8.2569,8.3381,8.4231,8.5548,8.7142,8.7732,8.86,8.9658,9.083,9.2253,9.3674,9.4085,9.4541,9.4983,6.3618,6.5413,6.7973,7.0877,7.2902,7.4927,7.7305,8.1652,8.6505,9.1576,9.5904,9.9649,10.2705,10.4501,10.5609,10.5991,10.4883,10.3202,10.1012,0.0,0.0,9.3983,9.1423,8.8711,8.5817,8.2455,0.0,7.4622,0.0,7.0075,6.7209,6.6865,6.7133,6.7981,6.9655,7.2291,7.5777,8.0277,8.425,8.7689,8.936,9.0239,0.0,8.9627,8.8797,8.7995,8.7106,8.6227,8.5501,8.5501,8.5206,8.4747,8.4403,8.3639,8.2646,8.1423,8.0735,8.0324,7.9942,7.9474,7.9016,7.8672,7.7879,7.6847,7.5577,7.466,7.3866,0.0,7.1527,6.999,0.0,0.0,0.0,0.0,0.0,0.0,0.0,0.0,0.0,0.0,5.7797,5.7846,5.8584,5.6713,5.5406,5.5324,5.6324,5.7539,5.8872,6.2862,6.6753,7.0398,7.3739,7.6783,7.9566,8.0045,8.0544,8.1041,8.0697,8.0697,8.1117,8.192,8.276,8.3611,8.4441,8.5779,8.7422,8.788,8.8797,9.0037,9.161,9.2741,9.3663,9.4772,9.5167,9.5179,6.5765,6.802,7.1221,7.4622,7.8672,8.1729,8.2378,8.5501,8.9551,9.4403,9.8579,10.2018,10.4501,10.6182,10.7481,10.8284,10.7711,10.6488,10.4692,10.319,10.1203,9.8529,9.6084,9.3219,8.9867,8.639,8.2149,0.0,7.4431,7.1336,6.7867,6.7095,6.7056,6.7828,6.9502,7.2329,7.6197,8.1776,8.5091,8.6762,8.8443,8.96,9.0162,8.9284,8.853,8.7842,8.7068,8.6227,8.5501,8.5501,8.5501,8.5397,8.4671,8.4365,8.4021,8.2569,8.1958,8.1614,8.0888,8.0582,8.0315,7.9636,7.9445,7.9025,7.7411,7.6503,7.57,7.4584,7.2588,7.0724,0.0,0.0,0.0,0.0,0.0,0.0,0.0,0.0,0.0,0.0,0.0,0.0,5.8926,5.652,5.5018,5.5052,5.6275,5.7421,5.8333,6.2248,6.5794,6.8678,7.2719,7.6274,7.9257,8.002,8.0869,8.1805,8.0926,8.0964,8.1843,8.2607,8.3496,8.4327,8.5167,8.6428,8.7918,8.8043,8.9218,9.1069,9.2384,9.3075,9.3419,9.4906,9.5429,9.5429,7.2215,7.4049,7.6456,7.9856,8.3945,8.8148,9.2312,9.3038,9.4365,9.8044,10.1597,10.4386,10.6297,10.8016,10.8997,10.9201,10.9124,10.8016,10.5597,0.0,0.0,10.0298,9.8414,9.5855,9.2504,8.8443,8.3907,7.8834,7.5577,7.1909,6.7867,6.7095,6.6789,6.698,6.8661,7.2444,7.7793,8.1623,8.4212,8.5883,8.7613,8.8377,8.8453,8.7564,8.7144,8.6991,8.6839,8.6227,8.5501,8.5501,8.5501,8.5473,8.532,8.4824,8.425,8.3945,8.2875,8.1767,8.1614,8.1041,8.0468,8.0315,8.0277,8.0057,7.9063,7.8757,7.7993,7.5739,7.4936,7.3705,7.0754,0.0,0.0,0.0,0.0,0.0,0.0,0.0,0.0,0.0,0.0,5.8976,5.8926,5.7149,5.627,5.6795,5.6991,5.7733,5.9267,6.212,6.5555,0.0,7.2585,7.6037,0.0,0.0,8.0869,8.1805,8.0926,8.0964,8.1843,8.2607,8.3496,8.4327,8.5167,8.6074,8.7068,8.7804,8.9905,9.2684,9.2979,9.3923,9.5156,9.545,9.5565,9.5565,7.7067,7.8825,8.1041,8.448,8.8568,9.2924,9.7471,9.9725,10.1215,10.1903,10.4195,10.6182,10.7405,10.8704,10.9608,11.0003,11.0118,10.9201,10.7099,10.6985,10.5495,10.2094,10.0298,9.7612,9.3879,8.9638,8.4976,7.9942,7.6074,7.2253,6.8555,6.7286,6.6705,6.6819,6.9349,7.3055,7.7526,8.0468,8.2913,8.5015,8.6734,8.7689,8.7995,8.7144,8.7068,8.7422,8.6953,8.68,8.6772,8.6342,8.6151,8.6113,8.5654,8.5244,8.4824,8.4403,8.3715,8.2913,8.2034,8.1499,8.1079,8.0621,8.0506,8.0391,8.0018,7.9598,7.8949,7.7726,7.677,7.4966,7.1098,6.8356,0.0,0.0,0.0,0.0,0.0,0.0,0.0,0.0,0.0,0.0,0.0,5.8482,5.7597,5.7382,5.7656,5.8174,5.8975,6.1965,6.5022,0.0,0.0,0.0,7.9133,0.0,8.0917,8.1805,8.0926,8.1194,8.2455,8.2808,8.3677,8.4938,8.532,8.6237,8.7575,8.8874,9.0593,9.2465,9.2924,9.3879,9.5025,9.5446,9.5598,9.5598,8.1423,8.3333,8.5626,8.8874,9.2924,9.7127,10.1292,10.5112,10.6908,10.5418,10.6679,10.7902,10.8398,10.9201,11.0003,11.0614,11.0691,11.0003,10.8284,10.8016,10.6488,10.3278,10.1406,9.8655,9.5025,9.0593,8.5932,8.1041,7.6647,7.275,6.9425,6.7744,6.7056,6.7362,7.0351,7.3484,7.6609,7.936,8.1958,8.4441,8.5922,8.703,8.7727,8.6839,8.6963,8.7498,8.7192,8.7536,8.7995,8.7307,8.6953,8.6648,8.5769,8.5501,8.5397,8.4747,8.4441,8.4021,8.2684,8.2187,8.1843,8.1003,8.0773,8.0735,8.0544,8.0018,7.9522,7.9331,7.7917,7.5577,7.1901,6.9999,0.0,0.0,0.0,0.0,0.0,0.0,0.0,0.0,0.0,0.0,6.0492,5.9703,5.8932,5.8091,5.8361,5.8638,5.8797,0.0,0.0,0.0,0.0,7.508,7.7984,0.0,8.0773,8.1805,8.0926,8.1385,8.2999,8.2999,8.3907,8.5511,8.5692,8.6772,8.8453,8.9982,9.1166,9.2121,9.2847,9.3726,9.472,9.5369,9.5598,9.5598,8.5998,8.8214,9.0735,9.3333,9.7241,10.1406,10.5686,10.7902,10.8806,10.8016,10.9315,11.008,10.9392,11.0118,11.0614,11.0691,11.0691,11.0003,10.8284,10.7481,10.5877,10.329,10.0795,9.8617,9.6706,9.1739,8.7078,0.0,7.7802,7.3628,7.0258,6.8585,6.8203,6.9043,7.0886,7.3178,0.0,7.9101,8.1958,8.4365,8.5282,8.6151,8.6839,8.596,8.5654,8.5932,8.7422,8.8033,8.8071,8.7995,8.746,8.6648,8.5769,8.5501,8.5501,8.5387,8.4862,8.425,8.4098,8.3496,8.2693,8.1881,8.169,8.1461,8.0697,8.043,8.0162,7.9445,7.7917,7.6112,7.4193,7.3132,7.168,0.0,0.0,0.0,0.0,0.0,0.0,0.0,0.0,0.0,6.0492,6.0261,6.0127,6.0028,5.9247,5.9086,5.98,0.0,0.0,6.651,7.0072,7.3896,7.7946,7.8949,8.021,8.1805,8.0926,8.1385,8.2999,8.2999,8.3907,8.554,8.6342,8.7641,8.9256,9.0201,9.1538,9.3,9.3077,9.407,9.5484,9.556,9.5598,9.5598,9.1079,9.3371,9.5893,9.8453,10.1509,10.4616,10.729,10.9506,11.0691,10.9812,11.0309,11.0806,11.092,11.0806,11.0882,11.1417,11.05,10.9392,10.8284,10.6908,10.5303,10.329,10.1215,9.9114,9.6936,9.2886,8.8988,0.0,0.0,0.0,7.3399,7.0686,6.9884,7.0771,0.0,7.4163,7.7182,8.0047,8.2722,8.5129,8.6505,8.7269,8.7536,8.7192,8.7345,8.788,8.8568,8.9179,8.9523,8.8988,8.8262,8.7345,8.5932,8.5501,8.5501,8.5501,8.5282,8.49,8.4441,8.4069,8.3572,8.2732,8.2531,8.2416,8.2082,8.1614,8.1194,8.085,7.9445,7.7917,7.6685,7.5386,7.3828,7.1794,0.0,0.0,0.0,0.0,0.0,0.0,0.0,0.0,0.0,6.0387,6.0366,6.0366,5.9877,5.9703,0.0,0.0,0.0,6.5763,0.0,7.3255,7.6465,7.8375,7.9866,8.1003,8.1194,8.1881,8.3037,8.3534,8.4671,8.6342,8.7717,8.8672,8.937,9.0239,9.1576,9.3115,9.3115,9.4108,9.5598,9.5598,9.5598,9.5598,9.5598,9.7891,10.021,10.2323,10.468,10.6985,10.8704,11.05,11.1493,11.1111,11.0895,11.0882,11.1608,11.1111,11.0882,11.1608,11.0309,10.9086,10.8284,10.6412,10.4692,10.329,10.1292,0.0,9.7662,9.4299,9.1052,8.7908,8.2483,0.0,0.0,0.0,0.0,0.0,7.4087,7.6188,7.9283,8.1576,8.3983,8.639,8.7613,8.8224,8.8415,8.8196,8.8453,8.8988,8.9218,8.9714,9.0124,8.9523,8.8912,8.8186,8.6734,8.6084,8.5883,8.5883,8.5692,8.5397,8.4824,8.4632,8.4441,8.3611,8.3381,8.3305,8.3076,8.2569,8.2073,8.1843,8.085,7.9713,7.8596,7.742,7.5968,7.4057,0.0,0.0,0.0,0.0,0.0,0.0,6.2655,6.1975,6.053,6.0415,6.0492,6.0759,6.0613,6.0433,0.0,0.0,0.0,0.0,0.0,0.0,7.5815,7.8146,7.9827,8.0888,8.1499,8.234,8.3419,8.4518,8.597,8.7603,8.8787,8.9447,8.9742,9.0353,9.1434,9.2733,9.3,9.3994,9.5293,9.5522,9.5598,9.5598,9.9152,10.1418,10.3393,10.4195,10.6488,10.8704,11.0385,11.0691,11.0997,11.1914,11.1188,11.0691,11.0691,11.0691,11.0691,11.0691,10.9889,10.9086,10.8284,10.58,10.4081,0.0,0.0,9.9381,9.9393,9.6095,9.3104,9.0544,0.0,0.0,8.0391,0.0,7.6647,7.6685,7.7564,7.936,8.1843,8.3563,8.575,8.8081,8.8071,8.8568,8.9218,8.8415,8.812,8.8224,8.9027,8.9332,8.9332,8.9294,8.9294,8.9141,8.8339,8.7498,8.6762,8.6762,8.6151,8.5501,8.5501,8.5501,8.5282,8.448,8.4289,8.4069,8.319,8.2999,8.277,8.1958,8.1767,8.127,7.9598,7.9254,7.8414,7.5891,0.0,0.0,0.0,0.0,0.0,0.0,6.2128,6.1287,6.0492,6.0415,6.0721,6.1516,6.1593,0.0,0.0,0.0,0.0,6.659,6.996,0.0,7.6647,7.8414,8.0133,8.1767,8.1805,8.2684,8.4327,8.5998,8.7679,8.9256,8.9294,8.9791,9.0583,9.0583,9.109,9.1892,9.2771,9.365,9.4518,9.5293,9.5598,9.5598,10.2514,10.4386,10.6182,10.7596,10.901,11.008,11.0576,11.0691,11.0806,11.1111,11.0895,11.0691,11.0691,11.0691,11.0882,11.1493,10.9697,10.8513,10.8207,10.58,10.4004,10.3202,10.1903,10.0604,9.9419,9.7776,9.5702,9.318,0.0,0.0,0.0,8.1662,8.1012,8.105,8.192,8.3066,8.447,8.6734,8.853,8.9905,9.1052,9.1319,9.0975,9.0708,9.0287,8.9829,9.0086,9.0201,9.0201,9.0201,9.0201,9.0124,8.9905,8.8835,8.7575,8.6953,8.6609,8.6265,8.5654,8.5501,8.5435,8.5167,8.5129,8.5053,8.4785,8.4289,8.3649,8.2808,8.2607,8.2302,8.1194,8.0506,7.9484,7.7526,7.5501,0.0,0.0,0.0,0.0,0.0,6.2128,6.1516,6.1249,6.1211,0.0,6.2426,6.251,0.0,0.0,0.0,0.0,0.0,7.0809,0.0,7.6685,7.8978,8.0697,8.1805,8.2951,8.4365,8.6074,8.7717,8.8797,8.9332,8.9944,9.0353,9.0583,9.0583,9.1423,9.2695,9.3,9.3955,9.5255,9.5522,9.5598,9.5598,10.5112,10.6717,10.8207,10.9188,11.0118,11.0691,11.0691,11.0691,11.0691,11.0691,11.0691,11.0691,11.0691,11.0691,11.0882,11.1493,10.9506,10.8207,10.8207,10.58,10.4004,10.3202,10.24,10.1292,9.9878,9.9037,0.0,9.5778,9.2951,8.9714,8.6161,8.5626,8.5358,8.5397,8.5932,8.681,8.7957,8.9561,9.0746,9.1614,9.2695,9.2771,9.2274,9.2274,9.1969,9.1538,9.1538,9.1538,9.1499,9.1166,9.1041,9.1003,9.0697,8.9867,8.8874,8.7985,8.7526,8.7192,8.6619,8.6467,8.6467,8.6467,8.6467,8.639,8.6074,8.5578,8.49,8.3725,8.3496,8.3142,8.1996,8.1347,8.0315,7.8328,7.615,7.3667,7.0793,0.0,0.0,0.0,0.0,0.0,0.0,6.2586,6.3045,0.0,0.0,0.0,0.0,0.0,6.6942,6.9242,7.2338,7.528,7.8099,8.0047,8.1576,8.276,8.4441,8.6123,8.7755,8.8835,8.9485,8.9818,9.0353,9.0583,9.0583,9.0583,9.1395,9.2656,9.2962,9.3955,9.5178,9.5484,9.5598,9.5598,10.6794,10.8284,10.9379,10.9494,11.0194,11.0691,11.0691,11.0691,11.0691,11.0691,11.0691,11.0691,11.0691,11.0691,11.0691,11.0691,10.9201,10.8284,10.8207,10.5915,10.4195,10.3278,10.2514,10.1585,10.0718,9.9954,9.9114,9.8185,9.4911,9.2045,8.9714,8.9638,8.9561,8.9561,8.9561,9.044,9.1892,9.193,9.2465,9.3191,9.3268,9.3229,9.3191,9.3191,9.3153,9.3115,9.3115,9.3115,9.2962,9.216,9.1892,9.1778,9.1013,9.0774,9.0583,8.9589,8.8759,8.8148,8.812,8.812,8.812,8.812,8.812,8.788,8.7068,8.6877,8.6418,8.4824,8.448,8.3945,8.2264,8.192,8.1041,7.8443,7.6532,7.421,7.0793,0.0,0.0,0.0,0.0,0.0,6.4466,6.4504,6.523,0.0,0.0,0.0,0.0,0.0,6.8661,7.1764,7.4401,7.7305,8.0468,8.1538,8.2913,8.4594,8.6189,8.7794,8.9294,8.937,8.9818,9.0583,9.0583,9.0583,9.0583,9.0659,9.1166,9.1969,9.2847,9.3726,9.4556,9.5331,9.5598,9.5598,10.7711,10.8704,10.9608,11.0309,11.0576,11.0691,11.0691,11.0691,11.0691,11.0691,11.0691,11.0691,11.0691,11.0691,11.0691,11.0691,10.9697,10.8895,10.8207,10.6985,10.5686,10.4195,10.389,10.3087,10.1585,10.1406,10.0604,9.9075,9.6363,9.4681,9.407,9.2809,9.2198,9.2198,9.2198,9.2427,9.2847,9.3497,9.3868,9.4059,9.4758,9.4643,9.4097,9.4097,9.3688,9.3115,9.3115,9.3115,9.3077,9.2847,9.2809,9.2771,9.258,9.2504,9.2083,8.9944,8.9179,8.8874,8.8262,8.812,8.812,8.812,8.812,8.8043,8.7842,8.7804,8.7498,8.6418,8.6189,8.5702,8.4021,8.3142,8.169,7.8519,7.6036,7.3323,6.996,6.7897,0.0,0.0,6.5681,6.633,6.695,6.7637,6.8432,0.0,0.0,7.0075,7.1985,7.2329,7.2788,7.359,7.6732,7.9063,8.0506,8.3257,8.5473,8.7203,8.8224,8.8912,8.9332,8.9971,9.0392,9.0583,9.0583,9.0583,9.0659,9.1281,9.2007,9.2886,9.3764,9.4605,9.5331,9.5522,9.5598,9.5598,10.8589,10.9392,11.0118,11.0614,11.0691,11.0691,11.0691,11.0691,11.0691,11.0691,11.0691,11.0691,11.0691,11.0691,11.0691,11.0691,10.9889,10.9086,10.8284,10.7405,10.6182,10.4501,10.4386,10.3622,10.1891,10.1891,10.11,9.9381,9.8006,9.7127,9.6706,9.5446,9.4834,9.4834,9.4414,9.4223,9.4261,9.4758,9.4949,9.4949,9.5407,9.5331,9.4949,9.4949,9.4643,9.4223,9.4223,9.4223,9.4185,9.3841,9.3688,9.3612,9.3229,9.3115,9.2847,9.1434,9.0746,9.0287,8.9447,8.9256,8.9256,8.9256,8.9256,8.9141,8.8721,8.8644,8.8415,8.7575,8.7068,8.638,8.5091,8.3524,8.1461,7.8481,7.5539,7.275,7.0113,6.8661,6.7821,6.7706,6.8814,6.9884,7.0686,7.1221,7.1833,7.2673,7.2367,0.0,7.4584,7.5844,7.6532,7.6532,7.8681,8.0773,8.276,8.5397,8.7345,8.8644,8.9103,8.9523,8.9895,9.0392,9.0583,9.0583,9.0583,9.0812,9.1166,9.1625,9.2542,9.3726,9.4212,9.4911,9.5598,9.5598,9.5598,9.5598,10.9201,11.0105,11.0601,11.0703,11.069,11.0601,11.0703,11.0703,11.0716,11.0691,11.0691,11.0691,11.0691,11.0691,11.0691,11.0691,11.0003,10.9201,10.8284,10.7481,10.6297,10.4692,10.4501,10.3699,10.2082,10.1815,10.0986,9.9572,9.9469,9.9037,9.8262,9.7471,9.7089,9.705,9.6172,9.5789,9.5789,9.5637,9.5598,9.5598,9.5598,9.5598,9.5598,9.5598,9.5598,9.5598,9.5598,9.5598,9.5484,9.4796,9.4567,9.4452,9.3726,9.3497,9.3459,9.3344,9.2771,9.2007,9.1204,9.0965,9.0965,9.0812,9.0774,9.0544,8.9666,8.9513,8.9256,8.8453,8.7613,8.6724,8.5845,8.3677,8.1156,7.8596,7.5386,7.252,7.064,0.0,6.9693,7.0487,7.2367,7.3896,7.469,7.4995,7.5462,7.6197,7.5577,7.5844,7.7373,7.8987,7.998,8.0248,8.0888,8.2798,8.6046,8.7536,8.8683,8.9513,8.9638,9.0058,9.0774,9.0926,9.0965,9.0965,9.0965,9.1357,9.2007,9.2121,9.3077,9.4403,9.4518,9.4987,9.5598,9.5598,9.5598,9.5598,10.9198,10.9804,11.0412,11.0495,11.0414,11.0412,11.0495,11.0508,11.0599,11.0678,11.0691,11.0691,11.0691,11.0691,11.0691,11.0691,11.0576,10.9812,10.8284,10.8093,10.729,10.5609,10.4807,10.4004,10.3011,10.1597,10.0718,10.0413,9.9725,9.9343,9.919,9.8311,9.7918,9.788,9.705,9.6706,9.663,9.5904,9.5598,9.5598,9.5598,9.5598,9.5598,9.5598,9.5598,9.5598,9.5598,9.5598,9.556,9.5446,9.5407,9.5369,9.5255,9.5216,9.5064,9.4414,9.4097,9.3792,9.2962,9.2695,9.2542,9.1816,9.1625,9.1395,9.0583,9.0392,9.0162,8.9294,8.8453,8.7613,8.6762,8.4518,8.2006,7.9484,7.6227,7.3161,7.0754,0.0,7.0533,7.1421,7.424,7.6456,7.7326,7.8672,7.9589,7.9704,7.9589,7.9971,8.0964,8.192,8.3076,8.448,8.4671,8.6008,8.8683,8.8988,8.9561,9.0392,9.109,9.1472,9.1625,9.2389,9.2695,9.2695,9.2695,9.2771,9.2962,9.3688,9.4146,9.4479,9.514,9.5484,9.5598,9.5598,9.5598,9.5598,10.9523,10.9889,11.0194,11.0409,11.0305,11.0305,11.0493,11.0481,11.0496,11.0716,11.0691,11.0691,11.0691,11.0691,11.0691,11.0691,11.0691,11.0003,10.8284,10.8207,10.7481,10.58,10.4921,10.3813,10.2514,10.1292,10.0604,10.0604,10.0183,9.9992,9.9992,9.919,9.8808,9.877,9.7929,9.7547,9.7498,9.6668,9.6286,9.6248,9.5789,9.5598,9.5598,9.5598,9.5598,9.5598,9.5598,9.5598,9.5598,9.5598,9.5598,9.5598,9.5598,9.5598,9.5522,9.5178,9.4414,9.3612,9.3229,9.3115,9.3,9.2618,9.2504,9.2389,9.2045,9.1969,9.1701,9.0822,9.002,8.9065,8.7727,8.5015,8.2197,7.9713,7.6418,0.0,7.2024,7.2176,7.3132,7.4889,7.7258,7.9436,8.1232,8.2073,8.2722,8.3142,8.3181,8.3372,8.3782,8.4594,8.5397,8.6189,8.7068,8.811,8.9294,8.978,9.044,9.1243,9.1625,9.2045,9.2504,9.2924,9.3115,9.3115,9.3115,9.3382,9.3841,9.4212,9.4681,9.5064,9.5446,9.5598,9.5598,9.5598,9.5598,9.5598,10.9678,10.9912,10.9994,11.0218,11.0218,11.0208,11.0401,11.0504,11.0495,11.0716,11.0691,11.0691,11.0691,11.0691,11.0691,11.0691,11.0691,11.0003,10.8284,10.8207,10.7481,10.58,10.4692,10.3317,10.1585,10.0898,10.0604,10.0604,10.0604,10.0604,10.0604,9.9954,9.9687,9.9649,9.877,9.8414,9.8349,9.7547,9.7089,9.6859,9.6172,9.5789,9.5598,9.5598,9.5598,9.5598,9.5598,9.5598,9.5598,9.5598,9.5598,9.5598,9.5598,9.5598,9.5598,9.5598,9.4681,9.3688,9.3688,9.3688,9.365,9.3459,9.3421,9.3344,9.3153,9.3115,9.2924,9.2236,9.1319,9.0201,8.8912,8.5893,8.2884,8.0783,0.0,7.5119,7.4278,7.4698,7.5883,7.8061,8.0124,8.2225,8.4365,8.4938,8.5435,8.6046,8.6123,8.6123,8.6123,8.6915,8.7488,8.7679,8.8711,8.9485,8.9867,9.0555,9.1281,9.2083,9.2312,9.2733,9.3421,9.3612,9.3688,9.3688,9.3688,9.407,9.4681,9.4681,9.5025,9.5598,9.5598,9.5598,9.5598,9.5598,9.5598,9.5598,10.9689,10.9697,10.9697,11.0008,10.9897,10.9897,11.0312,11.0315,11.0412,11.0703,11.0691,11.0691,11.0691,11.0691,11.0691,11.0691,11.0691,11.0003,10.8284,10.8207,10.7481,10.58,10.4195,10.2514,10.0718,10.0604,10.0604,10.0604,10.0604,10.0604,10.0604,10.0489,10.0489,10.0489,9.9649,9.9305,9.9228,9.8376,9.7574,9.6898,9.6821,9.6324,9.5598,9.5598,9.5598,9.5598,9.5598,9.5598,9.5598,9.5598,9.5598,9.5598,9.5598,9.5598,9.5598,9.5598,9.5522,9.5407,9.5407,9.5407,9.5255,9.449,9.4288,9.4097,9.3268,9.3115,9.3077,9.3038,9.1739,9.0544,9.043,8.7603,8.5015,8.4059,0.0,0.0,7.7755,7.7678,7.8099,7.9101,8.2044,8.4403,8.531,8.6887,8.7842,8.788,8.7929,8.7929,8.7929,8.8683,8.9475,9.0277,8.9676,9.0058,9.1586,9.1663,9.216,9.3,9.383,9.425,9.4327,9.5064,9.5407,9.5407,9.5407,9.5446,9.5522,9.5522,9.556,9.5598,9.5598,9.5598,9.5598,9.5598,9.5598,9.5598,10.9575,10.9605,10.9712,10.9809,10.9883,11.0023,11.0298,11.0409,11.0506,11.0716,11.0691,11.0691,11.0691,11.0691,11.0691,11.0691,11.0691,11.0194,10.8997,10.8513,10.7214,10.4998,10.431,10.3393,10.2209,10.2209,10.1903,10.1394,10.1394,10.1089,10.0604,10.0604,10.0604,10.0604,10.0298,10.0107,10.0107,9.9266,9.8732,9.8388,9.7853,9.7165,9.6401,9.6401,9.6057,9.5598,9.5598,9.5598,9.5598,9.5598,9.5598,9.5598,9.5598,9.5598,9.5598,9.5598,9.5598,9.5598,9.5598,9.5598,9.5522,9.5216,9.514,9.5064,9.472,9.4643,9.4529,9.4032,9.341,9.2607,9.1548,8.9447,8.7422,8.6074,0.0,8.1471,8.1156,8.1079,8.1614,8.299,8.4747,8.639,8.7727,8.8453,8.9294,9.0326,9.0402,9.0631,9.1166,9.1472,9.1816,9.216,9.1816,9.1701,9.1816,9.2351,9.3038,9.3906,9.425,9.4681,9.514,9.5446,9.5598,9.5598,9.5598,9.5598,9.5598,9.5598,9.5598,9.5598,9.5598,9.5598,9.5598,9.5598,9.5598,9.5598,10.9497,10.9613,10.9621,10.981,10.9897,11.0094,11.0312,11.0387,11.0496,11.0716,11.0691,11.0691,11.0691,11.0691,11.0691,11.0691,11.0691,11.0309,10.9494,10.8398,10.6794,10.4501,10.4386,10.4004,10.3214,10.3214,10.2782,10.1891,10.1891,10.1521,10.0604,10.0604,10.0604,10.0604,10.0604,10.0604,10.0604,9.9992,9.961,9.9343,9.877,9.8006,9.728,9.728,9.6898,9.6363,9.6095,9.6019,9.6019,9.6019,9.6019,9.6057,9.6324,9.621,9.6019,9.6019,9.5789,9.5598,9.5598,9.5598,9.5598,9.5598,9.5598,9.5598,9.5598,9.5598,9.5446,9.4911,9.4567,9.4021,9.2847,9.1243,8.9714,8.8558,8.6467,8.49,8.4642,8.4604,8.4938,8.5807,8.6915,8.8023,8.9179,8.9791,9.0555,9.1701,9.2045,9.2465,9.3077,9.3115,9.3115,9.3115,9.3382,9.3229,9.2618,9.3229,9.3955,9.4796,9.4796,9.5064,9.5598,9.5598,9.5598,9.5598,9.5598,9.5598,9.5598,9.5598,9.5598,9.5598,9.5598,9.5598,9.5598,9.5598,9.5598,9.5598,10.9497,10.9597,10.9621,10.981,10.9897,11.0094,11.0312,11.0387,11.0496,11.0716,11.0691,11.0691,11.0691,11.0691,11.0691,11.0691,11.0691,11.0309,10.9417,10.7787,10.6182,10.4501,10.4386,10.4004,10.3202,10.3214,10.2782,10.1891,10.1891,10.1521,10.0604,10.0604,10.0604,10.0604,10.0604,10.0604,10.0604,10.0604,10.0107,9.9431,9.9431,9.8884,9.8109,9.8109,9.8109,9.7994,9.7203,9.6898,9.6898,9.6898,9.6898,9.705,9.7841,9.7547,9.6898,9.6898,9.6286,9.5598,9.5598,9.5598,9.5598,9.5598,9.5598,9.5598,9.5598,9.5598,9.5598,9.5598,9.4987,9.4403,9.4403,9.3,9.1816,9.1816,9.0402,8.9027,8.8262,8.811,8.7804,8.6953,8.8329,8.9332,8.9332,9.0822,9.1816,9.1816,9.2618,9.3115,9.3115,9.3115,9.3115,9.3115,9.3945,9.4403,9.4403,9.4403,9.4796,9.5598,9.5598,9.5598,9.5598,9.5598,9.5598,9.5598,9.5598,9.5598,9.5598,9.5598,9.5598,9.5598,9.5598,9.5598,9.5598,9.5598,9.5598,9.5598,10.8886,10.9092,10.9184,10.9381,10.9682,11.0003,11.0298,11.0387,11.0496,11.0716,11.0691,11.0691,11.0691,11.0691,11.0691,11.0691,11.0691,11.008,10.8704,10.8093,10.7099,10.5418,10.5303,10.5189,10.4998,10.4998,10.4501,10.3699,10.3699,10.2896,10.1509,10.1509,10.1203,10.0604,10.0604,10.0604,10.0604,10.0604,10.0489,10.0183,10.0183,9.9763,9.8999,9.8999,9.8617,9.8071,9.7841,9.7727,9.7727,9.7727,9.7727,9.7765,9.8032,9.7956,9.7612,9.7089,9.6706,9.6363,9.5751,9.5598,9.5598,9.5598,9.5598,9.5598,9.5598,9.5598,9.5598,9.5598,9.5407,9.5255,9.5255,9.4376,9.3612,9.3612,9.2198,9.1166,9.1548,9.109,9.0822,9.1166,9.1663,9.1969,9.1969,9.2427,9.2962,9.3573,9.4376,9.4834,9.4834,9.4834,9.4834,9.4834,9.5102,9.5255,9.5255,9.5255,9.5369,9.5598,9.5598,9.5598,9.5598,9.5598,9.5598,9.5598,9.5598,9.5598,9.5598,9.5598,9.5598,9.5598,9.5598,9.5598,9.5598,9.5598,9.5598,9.5598,10.8499,10.8585,10.8722,10.889,10.9216,10.9583,10.9897,11.0218,11.0387,11.0587,11.0613,11.0601,11.0691,11.0691,11.0691,11.0691,11.0691,11.008,10.8819,10.8704,10.8093,10.6717,10.6717,10.6412,10.5711,10.5711,10.5303,10.4386,10.4386,10.3496,10.1891,10.1891,10.1394,10.0604,10.0604,10.0604,10.0604,10.0604,10.0604,10.0604,10.0604,10.0298,9.9878,9.9878,9.9534,9.9064,9.8732,9.8617,9.8617,9.8617,9.8846,9.9026,9.8732,9.8376,9.7956,9.7127,9.6898,9.6783,9.6248,9.6095,9.6095,9.6095,9.5866,9.5598,9.5598,9.5598,9.5598,9.5598,9.5598,9.5598,9.5598,9.5216,9.4872,9.4872,9.3994,9.3382,9.3573,9.3153,9.2886,9.3077,9.3115,9.3115,9.3115,9.3421,9.3955,9.4796,9.5331,9.5598,9.5598,9.5598,9.5598,9.5598,9.5598,9.5598,9.5598,9.5598,9.5598,9.5598,9.5598,9.5598,9.5598,9.5598,9.5598,9.5598,9.5598,9.5598,9.5598,9.5598,9.5598,9.5598,9.5598,9.5598,9.5598,9.5598,9.5598,9.5598,10.8016,10.7997,10.8107,10.8286,10.8596,10.8984,10.939,10.9712,11.0109,11.0401,11.0506,11.0496,11.0703,11.0691,11.0691,11.0691,11.0691,11.0309,10.9494,10.9379,10.8997,10.8207,10.8207,10.752,10.5991,10.5788,10.5418,10.4501,10.4501,10.3699,10.2082,10.2082,10.1585,10.0718,10.0718,10.0718,10.0604,10.0604,10.0604,10.0604,10.0604,10.0604,10.0604,10.0604,10.0604,10.0489,9.9763,9.9496,9.9496,9.9496,9.9992,10.0489,9.9649,9.8846,9.8071,9.7241,9.7012,9.7012,9.7012,9.7012,9.7012,9.7012,9.6401,9.5789,9.5637,9.5598,9.5598,9.5598,9.5598,9.5598,9.5598,9.5598,9.5598,9.5598,9.5598,9.5331,9.4594,9.4518,9.4223,9.3421,9.3306,9.3306,9.3306,9.4032,9.4796,9.5522,9.5598,9.5598,9.5598,9.5598,9.5598,9.5598,9.5598,9.5598,9.5598,9.5598,9.5598,9.5598,9.5598,9.5598,9.5598,9.5598,9.5598,9.5598,9.5598,9.5598,9.5598,9.5598,9.5598,9.5598,9.5598,9.5598,9.5598,9.5598,9.5598,9.5598,10.7203,10.7413,10.7513,10.7684,10.8109,10.8499,10.9022,10.9375,10.9712,11.0094,11.0294,11.0495,11.0483,11.0588,11.0691,11.0691,11.0691,11.0309,10.9494,10.9379,10.8997,10.8207,10.8207,10.8016,10.7711,10.6985,10.6182,10.5418,10.5418,10.4921,10.389,10.389,10.3087,10.1585,10.1585,10.1203,10.0604,10.0604,10.0604,10.0604,10.0604,10.0604,10.0604,10.0604,10.0604,10.0604,10.0413,10.0298,10.0298,10.0298,10.0489,10.0489,9.9649,9.9266,9.8961,9.8071,9.7841,9.7841,9.7841,9.7841,9.7841,9.7841,9.7689,9.7203,9.5904,9.5598,9.5598,9.5598,9.5598,9.5598,9.5598,9.5598,9.5598,9.5598,9.5598,9.5522,9.5369,9.5331,9.5255,9.5064,9.5064,9.5064,9.5064,9.5216,9.5407,9.5598,9.5598,9.5598,9.5598,9.5598,9.5598,9.5598,9.5598,9.5598,9.5598,9.5598,9.5598,9.5598,9.5598,9.5598,9.5598,9.5598,9.5598,9.5598,9.5598,9.5598,9.5598,9.5598,9.5598,9.5598,9.5598,9.5598,9.5598,9.5598,9.5598,9.5598,10.6693,10.6796,10.6901,10.7101,10.7415,10.7796,10.8215,10.8722,10.9114,10.9614,10.9999,11.0294,11.0506,11.0613,11.0691,11.0691,11.0691,11.05,11.0118,11.0003,10.9812,10.9392,10.9392,10.9201,10.8819,10.8322,10.752,10.6297,10.5915,10.5303,10.4386,10.4386,10.3508,10.1891,10.1891,10.1394,10.0604,10.0604,10.0604,10.0604,10.0604,10.0604,10.0604,10.0604,10.0604,10.0604,10.0604,10.0604,10.0604,10.0604,10.0604,10.0489,9.9649,9.9381,9.9228,9.8338,9.8376,9.8732,9.8732,9.8732,9.8732,9.8732,9.8414,9.788,9.6974,9.6515,9.621,9.621,9.5904,9.5598,9.5598,9.5598,9.5598,9.5598,9.5598,9.5598,9.5598,9.5598,9.5598,9.5598,9.5598,9.5598,9.5598,9.5598,9.5598,9.5598,9.5598,9.5598,9.5598,9.5598,9.5598,9.5598,9.5598,9.5598,9.5598,9.5598,9.5598,9.5598,9.5598,9.5598,9.5598,9.5598,9.5598,9.5598,9.5598,9.5598,9.5598,9.5598,9.5598,9.5598,9.5598,9.5598,9.5598,9.5598,9.5598,9.5598,10.6376,10.6376,10.6476,10.6627,10.6796,10.7099,10.7397,10.7888,10.8478,10.8984,10.9598,10.999,11.0294,11.0483,11.0588,11.0703,11.0703,11.0716,11.0691,11.0691,11.0691,11.0691,11.0691,11.0385,10.9608,10.9494,10.8589,10.6908,10.622,10.5495,10.4616,10.4616,10.3813,10.2311,10.2311,10.1788,10.0795,10.0795,10.0718,10.0604,10.0604,10.0604,10.0604,10.0604,10.0604,10.0604,10.0604,10.0604,10.0604,10.0604,10.0604,10.0489,9.9649,9.9381,9.9266,9.8541,9.8846,9.9419,9.9572,9.961,9.961,9.961,9.9075,9.8529,9.8529,9.77,9.6898,9.6898,9.621,9.5598,9.5598,9.5598,9.5598,9.5598,9.5598,9.5598,9.5598,9.5598,9.5598,9.5598,9.5598,9.5598,9.5598,9.5598,9.5598,9.5598,9.5598,9.5598,9.5598,9.5598,9.5598,9.5598,9.5598,9.5598,9.5598,9.5598,9.5598,9.5598,9.5598,9.5598,9.5598,9.5598,9.5598,9.5598,9.5598,9.5598,9.5598,9.5598,9.5598,9.5598,9.5598,9.5598,9.5598,9.5598,9.5598,9.5598,10.6376,10.6376,10.6397,10.6381,10.6606,10.6796,10.7022,10.7588,10.809,10.8499,10.9114,10.9697,10.9915,11.0189,11.0412,11.0495,11.0508,11.0599,11.0691,11.0691,11.0691,11.0691,11.0691,11.0614,11.05,10.9812,10.8589,10.6908,10.6794,10.6297,10.5482,10.5482,10.4998,10.4119,10.4119,10.3202,10.17,10.17,10.1292,10.0604,10.0604,10.0604,10.0604,10.0604,10.0604,10.0604,10.0604,10.0604,10.0604,10.0604,10.0604,10.0489,9.9649,9.9381,9.9381,9.9266,9.9305,9.9534,10.0183,10.0413,10.0413,10.0413,10.0286,10.0298,10.0298,9.8541,9.6898,9.6898,9.621,9.5598,9.5598,9.5598,9.5598,9.5598,9.5598,9.5598,9.5598,9.5598,9.5598,9.5598,9.5598,9.5598,9.5598,9.5598,9.5598,9.5598,9.5598,9.5598,9.5598,9.5598,9.5598,9.5598,9.5598,9.5598,9.5598,9.5598,9.5598,9.5598,9.5598,9.5598,9.5598,9.5598,9.5598,9.5598,9.5598,9.5598,9.5598,9.5598,9.5598,9.5598,9.5598,9.5598,9.5598,9.5598,9.5598,9.5598,10.6376,10.6376,10.6376,10.6376,10.6497,10.6601,10.6705,10.7099,10.7494,10.7907,10.8496,10.8984,10.928,10.9682,10.999,11.0184,11.0305,11.0414,11.0612,11.0612,11.0613,11.0691,11.0691,11.0691,11.0691,11.0309,10.9506,10.8322,10.7405,10.6679,10.6412,10.5903,10.5189,10.4386,10.4386,10.3508,10.1891,10.1891,10.17,10.1292,10.0795,10.0909,10.1292,10.0795,10.0604,10.0604,10.0604,10.0604,10.0604,10.0604,10.0604,10.0489,10.0183,10.0107,10.0107,10.0107,10.0107,10.0107,10.0489,10.0604,10.0604,10.0604,10.0604,10.0604,10.0604,9.9419,9.8158,9.7662,9.6898,9.6172,9.5675,9.5598,9.5598,9.5598,9.5598,9.5598,9.5598,9.5598,9.5598,9.5598,9.5598,9.5598,9.5598,9.5598,9.5598,9.5598,9.5598,9.5598,9.5598,9.5598,9.5598,9.5598,9.5598,9.5598,9.5598,9.5598,9.5598,9.5598,9.5598,9.5598,9.5598,9.5598,9.5598,9.5598,9.5598,9.5598,9.5598,9.5598,9.5598,9.5598,9.5598,9.5598,9.5598,9.5598,9.5598,9.5598]}]]